.

MPMG - Transparência

Contracheque - Remuneração de todos os servidores ativos - Pós Resolução CNMP 200/2019

Período: 2023 - Maio

Ordem Matrícula Nome Cargo Efetivo Lotação Rendimentos Descontos Rendimento Líquido Total *14 Data de Referência
Remuneração básica Remuneração eventual ou Temporária Outras Remunerações Temporárias *7 Verbas Indenizatórias *8 Total de Rendimentos Brutos *9 Obrigatórios Legais Outros Descontos Eventuais Total de descontos *13
Remuneração do Cargo Efetivo *1 Outras Verbas Remuneratórias *2 Função de Confiança ou Cargo em Comissão *3 Gratificação Natalina *4 Férias 1/3 Constitucional *5 Abono de Permanência *6 Contribuição Previdenciária *10 Imposto de Renda *11 Retenção por Teto Constitucional *12
1 498900 ABDON MARCIO BARBOSA DA SILVA OFICIAL DO MP ABRE CAMPO - COMARCA; ABRE CAMPO-PJ-01PJ 7.506,70 1.501,34 0,00 0,00 0,00 0,00 0,00 2.105,00 11.113,04 1.222,23 1.151,86 0,00 0,00 2.374,09 8.738,95 31/05/2023
2 177800 ADALBERTO MENEZES FARIA SAMORA OFICIAL DO MP BELO HORIZONTE - COMARCA; DIRET DE PLANOS PROJETOS E PROGRAMAS INST 21.346,53 8.538,61 0,00 0,00 0,00 0,00 547,89 8.082,03 38.515,06 4.562,57 5.974,47 0,00 0,00 10.537,04 27.978,02 31/05/2023
3 306400 ADALBERTO MOREIRA GONCALVES ANALISTA DO MP BELO HORIZONTE - COMARCA; BH-24PJ JUIZO REG BARREIRO-SECRETARIA 22.191,68 6.657,50 0,00 0,00 0,00 0,00 528,90 7.874,84 37.252,92 4.396,82 5.839,44 0,00 0,00 10.236,26 27.016,66 31/05/2023
4 179300 ADENISE AUXILIADORA SOUZA SAD OFICIAL DO MP BARBACENA - COMARCA; BARBACENA-PJ-06PJ 20.533,67 8.213,47 0,00 0,00 0,00 0,00 527,03 7.854,43 37.128,60 4.380,49 5.711,59 0,00 0,00 10.092,08 27.036,52 31/05/2023
5 272200 ADILSON BATISTA ORNELAS OFICIAL DO MP LAVRAS - COMARCA; LAVRAS-PJ-SECRETARIA 7.506,70 2.252,01 0,00 0,00 0,00 0,00 0,00 2.105,00 11.863,71 1.342,34 1.377,40 0,00 0,00 2.719,74 9.143,97 31/05/2023
6 380100 ADILSON GONCALVES DE MELO JUNIOR ANALISTA DO MP ARAXÁ - COMARCA; ARAXA-PJ-05PJ 16.469,17 4.940,75 0,00 0,00 0,00 0,00 0,00 2.105,00 23.514,92 3.206,54 4.016,70 0,00 0,00 7.223,24 16.291,68 31/05/2023
7 148800 ADILSON JANUARIO OFICIAL DO MP BELO HORIZONTE - COMARCA; BH-22PJ PES COM DEF E IDOSOS-SECRETARIA 23.070,31 18.456,25 0,00 0,00 0,00 5.795,34 477,24 7.311,24 55.110,38 5.795,34 9.400,14 3.936,60 0,00 19.132,08 35.978,30 31/05/2023
8 322601 ADMILSON SILVEIRA ANALISTA DO MP SAO JOAO DO PARAISO COMARCA; SAO JOAO DO PARAISO-PJ-UNPJ 12.343,61 1.234,36 0,00 0,00 0,00 0,00 0,00 3.055,00 16.632,97 1.953,42 2.311,79 0,00 0,00 4.265,21 12.367,76 31/05/2023
9 333700 ADRIANA ABRITTA TEIXEIRA OFICIAL DO MP BELO HORIZONTE - COMARCA; DIRET DE PESSOAL DO MINISTERIO PUBLICO - DPMP 12.343,61 3.703,08 0,00 0,00 0,00 0,00 0,00 2.105,00 18.151,69 2.348,42 2.882,06 0,00 0,00 5.230,48 12.921,21 31/05/2023
10 468500 ADRIANA APARECIDA FIRMINO ANALISTA DO MP CARATINGA - COMARCA; CARATINGA-PJ-04PJ 12.343,61 2.468,72 0,00 0,00 0,00 0,00 0,00 2.105,00 16.917,33 2.150,92 2.544,79 0,00 0,00 4.695,71 12.221,62 31/05/2023
11 326100 ADRIANA AUGUSTA AMARAL BELO OFICIAL DO MP BARBACENA - COMARCA; BARBACENA-PJ-08PJ 12.343,61 3.703,08 0,00 0,00 0,00 0,00 0,00 2.105,00 18.151,69 2.348,42 2.777,79 0,00 0,00 5.126,21 13.025,48 31/05/2023
12 605700 ADRIANA COSTA LIRA OFICIAL DO MP BELO HORIZONTE - COMARCA; CAO-EDUCACAO 7.506,70 750,67 4.020,58 0,00 0,00 0,00 0,00 2.105,00 14.382,95 1.102,13 2.188,39 0,00 0,00 3.290,52 11.092,43 31/05/2023
13 541100 ADRIANA CRISTINA DE OLIVEIRA OFICIAL DO MP GUAPÉ - COMARCA; GUAPE-PJ-UNPJ 7.506,70 1.501,34 0,00 0,00 0,00 0,00 0,00 2.105,00 11.113,04 1.222,23 1.204,00 0,00 0,00 2.426,23 8.686,81 31/05/2023
14 254800 ADRIANA DAS GRACAS FERNANDES ANALISTA DO MP UBERABA - COMARCA; UBERABA-PJ-07PJ 23.070,31 18.456,25 0,00 0,00 0,00 0,00 0,00 2.105,00 43.631,56 5.795,34 7.806,42 3.936,60 0,00 17.538,36 26.093,20 31/05/2023
15 217400 ADRIANA DE CARVALHO CATAO BRAGA ASSESSOR ADMINISTRATIVO III BELO HORIZONTE - COMARCA; DIV FISCAL ADM CONT TERCEIRIZACAO 0,00 4.343,56 10.858,90 0,00 0,00 0,00 0,00 2.105,00 17.307,46 876,95 3.467,06 0,00 0,00 4.344,01 12.963,45 31/05/2023
16 434600 ADRIANA FERREIRA DA SILVA ANALISTA DO MP BELO HORIZONTE - COMARCA; BH-14PJ DEFESA CONSUMIDOR-GAB 112PJ 17.559,01 3.511,80 0,00 0,00 0,00 0,00 0,00 2.105,00 23.175,81 3.152,28 4.042,64 0,00 0,00 7.194,92 15.980,89 31/05/2023
17 499800 ADRIANA FERREIRA TIAGO OFICIAL DO MP SALINAS - COMARCA; SALINAS-PJ-02PJ 9.699,77 1.939,95 0,00 0,00 0,00 0,00 0,00 2.928,33 14.568,05 1.643,30 1.759,78 0,00 0,00 3.403,08 11.164,97 31/05/2023
18 543400 ADRIANA GUIMARAES NUNES DE PAULA ANALISTA DO MP PATROCÍNIO - COMARCA; PATROCINIO-PJ-01PJ 12.343,61 2.468,72 0,00 0,00 0,00 0,00 0,00 3.055,00 17.867,33 982,16 2.715,54 0,00 0,00 3.697,70 14.169,63 31/05/2023
19 471500 ADRIANA HORTA DE CARVALHO RODRIGUES DE SOUSA ANALISTA DO MP BELO HORIZONTE - COMARCA; GRUPO ESP PROM JUST DEF PROB ADM PAT PUB 12.343,61 2.468,72 0,00 0,00 0,00 0,00 0,00 2.105,00 16.917,33 2.150,92 2.544,79 0,00 0,00 4.695,71 12.221,62 31/05/2023
20 86400 ADRIANA MOREIRA CALDEIRA BRANT OFICIAL DO MP BELO HORIZONTE - COMARCA; BH-21PJ TUTELA FUNDACOES-SECRETARIA 21.346,53 14.942,57 0,00 0,00 0,00 5.587,20 0,00 2.105,00 43.981,30 5.587,20 9.094,54 0,00 0,00 14.681,74 29.299,56 31/05/2023
21 480700 ADRIANA MOREIRA DE AVELLAR CEZILIO OFICIAL DO MP BELO HORIZONTE - COMARCA; BH-12PJ JUIZO CRIMINAL-SECRETARIA 7.506,70 1.501,34 4.690,68 0,00 0,00 0,00 0,00 2.105,00 15.803,72 1.222,23 2.441,80 0,00 0,00 3.664,03 12.139,69 31/05/2023
22 326000 ADRIANA PEREIRA CARNEIRO RESENDE OFICIAL DO MP BELO HORIZONTE - COMARCA; BH-25PJ DEFESA DA EDUCACAO-SECRETARIA 12.343,61 3.703,08 0,00 0,00 0,00 0,00 0,00 2.105,00 18.151,69 2.348,42 2.882,06 0,00 0,00 5.230,48 12.921,21 31/05/2023
23 502200 ADRIANA PETRUCCI DAVINA OFICIAL DO MP PATROCÍNIO - COMARCA; PATROCINIO-PJ-01PJ 10.516,49 2.103,30 0,00 0,00 0,00 0,00 0,00 3.055,00 15.674,79 1.800,11 2.090,45 0,00 0,00 3.890,56 11.784,23 31/05/2023
24 201900 ADRIANA REIS PIMENTA OFICIAL DO MP TEÓFILO OTONI - COMARCA; TEOFILO OTONI-PJ-03PJ 20.533,67 8.213,47 0,00 0,00 0,00 0,00 527,03 7.854,43 37.128,60 4.380,49 5.815,87 0,00 0,00 10.196,36 26.932,24 31/05/2023
25 278700 ADRIANA RODRIGUES PINTO COELHO AMARAL ANALISTA DO MP BELO HORIZONTE - COMARCA; CGMP-DIR ESTAGIO PROBATORIO E ORIENT 23.070,31 6.921,09 0,00 0,00 0,00 0,00 0,00 2.105,00 32.096,40 4.579,57 6.103,29 0,00 0,00 10.682,86 21.413,54 31/05/2023
26 468000 ADRIANA SANTOS DE SANTANA MOREIRA ANALISTA DO MP GOVERNADOR VALADARES - COMARCA; GAECO REGIONAL DE GOVERNADOR VALADARES 12.343,61 4.937,44 0,00 0,00 0,00 0,00 0,00 2.105,00 19.386,05 2.545,92 3.062,93 0,00 0,00 5.608,85 13.777,20 31/05/2023
27 194700 ADRIANA TSUKIDE OFICIAL DO MP UBERABA - COMARCA; COORD REG BACIAS PARANAIBA BAIXO RIO GRANDE 20.533,67 8.213,47 0,00 0,00 0,00 0,00 527,03 7.854,43 37.128,60 4.380,49 5.763,73 0,00 0,00 10.144,22 26.984,38 31/05/2023
28 465500 ADRIANO CASSIANO MATOS ANALISTA DO MP ARAXÁ - COMARCA; ARAXA-PJ-02PJ 12.343,61 2.468,72 0,00 0,00 0,00 0,00 0,00 2.105,00 16.917,33 2.150,92 2.596,93 0,00 0,00 4.747,85 12.169,48 31/05/2023
29 500500 ADRIANO DE ALMEIDA SILVA OFICIAL DO MP UBERABA - COMARCA; UBERABA-PJ-12PJ 10.516,49 2.103,30 0,00 0,00 0,00 0,00 0,00 3.055,00 15.674,79 1.800,11 1.545,95 0,00 0,00 3.346,06 12.328,73 31/05/2023
30 187200 ADRIANO DE FREITAS MARON OFICIAL DO MP PONTE NOVA - COMARCA; PONTE NOVA-PJ-03PJ 17.559,01 15.803,11 0,00 0,00 0,00 5.118,89 564,39 8.261,96 47.307,36 5.118,89 8.289,62 0,00 0,00 13.408,51 33.898,85 31/05/2023
31 477900 ADRIANO FERREIRA DE ALMEIDA OFICIAL DO MP TAIOBEIRAS - COMARCA; TAIOBEIRAS-PJ-UNPJ 10.516,49 2.103,30 0,00 0,00 0,00 0,00 0,00 2.494,79 15.114,58 1.800,11 1.986,18 0,00 0,00 3.786,29 11.328,29 31/05/2023
32 269101 ADRIANO PEREIRA SILVA ANALISTA DO MP UBERABA - COMARCA; UBERABA-PJ-02PJ 12.343,61 2.468,72 0,00 0,00 0,00 0,00 0,00 2.105,00 16.917,33 2.150,92 2.440,52 0,00 0,00 4.591,44 12.325,89 31/05/2023
33 414200 ADRIANO RODRIGUES FERNANDES ANALISTA DO MP CARANDAÍ - COMARCA; CARANDAI-PJ-UNPJ 12.343,61 2.468,72 0,00 0,00 0,00 0,00 0,00 2.105,00 16.917,33 2.150,92 2.440,52 0,00 0,00 4.591,44 12.325,89 31/05/2023
34 536700 ADRIELLE COSTA MARIA MOURAO FIGUEIREDO OFICIAL DO MP SERRO - COMARCA; SERRO-PJ-SECRETARIA 7.506,70 1.501,34 0,00 0,00 0,00 0,00 0,00 3.055,00 12.063,04 1.222,23 1.256,14 0,00 0,00 2.478,37 9.584,67 31/05/2023
35 514300 ADRIENE DAMASCENO BRAGA ANALISTA DO MP ALFENAS - COMARCA; ALFENAS-PJ-03PJ 12.343,61 2.468,72 0,00 0,00 0,00 0,00 0,00 2.105,00 16.917,33 2.150,92 2.596,93 0,00 0,00 4.747,85 12.169,48 31/05/2023
36 254600 ADRIENE DOMINGUES COSTA ANALISTA DO MP BELO HORIZONTE - COMARCA; SUPER DE GESTAO DE PESSOAS-LOTACAO TEMPORARIA 23.070,31 9.228,12 0,00 0,00 0,00 0,00 0,00 0,00 32.298,43 4.948,70 6.636,22 0,00 0,00 11.584,92 20.713,51 31/05/2023
37 252001 ADRIENE GOMES BARRETO ANALISTA DO MP BELO HORIZONTE - COMARCA; BH-19PJ SAUDE-SECRETARIA 047PJ 18.720,84 9.360,42 0,00 0,00 0,00 0,00 514,82 7.721,25 36.317,33 4.273,95 5.662,05 0,00 0,00 9.936,00 26.381,33 31/05/2023
38 714800 ADSON GUSTAVO DE OLIVEIRA ASSESSOR PROCURADOR JUSTICA BELO HORIZONTE - COMARCA; GABINETE DE PROCURADOR DE JUSTIÇA - SALA 803 0,00 0,00 8.810,89 0,00 0,00 0,00 0,00 2.105,00 10.915,89 876,95 1.709,37 0,00 0,00 2.586,32 8.329,57 31/05/2023
39 724600 AECIO BRAS SILVA JUNIOR ASSESSOR PROMOTOR JUSTICA BAMBUÍ - COMARCA; BAMBUI-PJ-UNPJ 0,00 0,00 8.810,89 0,00 0,00 0,00 0,00 2.105,00 10.915,89 876,95 1.709,37 0,00 0,00 2.586,32 8.329,57 31/05/2023
40 302500 AGENOR JOSE DA SILVA JUNIOR ANALISTA DO MP JUIZ DE FORA - COMARCA; JUIZ DE FORA-PJ-07PJ 22.191,68 6.657,50 0,00 0,00 0,00 0,00 528,90 7.874,84 37.252,92 4.396,82 5.683,03 0,00 0,00 10.079,85 27.173,07 31/05/2023
41 357500 AILSON WAGNER DE ALENCAR SILVA OFICIAL DO MP BELO HORIZONTE - COMARCA; BH-12PJ JUIZO CRIMINAL-SECRETARIA 14.960,00 5.984,00 0,00 0,00 0,00 0,00 0,00 2.105,00 23.049,00 3.131,99 3.856,93 0,00 0,00 6.988,92 16.060,08 31/05/2023
42 366400 AILTON ALEXSSANDRO ALVES OFICIAL DO MP PARÁ DE MINAS - COMARCA; PARA DE MINAS-PJ-05PJ 12.343,61 4.937,44 0,00 0,00 0,00 0,00 0,00 2.105,00 19.386,05 2.545,92 3.167,20 0,00 0,00 5.713,12 13.672,93 31/05/2023
43 318900 AILTON DE CASTRO RIBEIRO JUNIOR OFICIAL DO MP CANDEIAS - COMARCA; CANDEIAS-PJ-UNPJ 12.343,61 3.703,08 0,00 0,00 0,00 0,00 0,00 2.105,00 18.151,69 2.348,42 2.725,65 0,00 0,00 5.074,07 13.077,62 31/05/2023
44 464400 ALAN MONTEIRO GASPAR ANALISTA DO MP SETE LAGOAS - COMARCA; SETE LAGOAS-PJ-08PJ 12.343,61 2.468,72 0,00 0,00 0,00 0,00 0,00 2.105,00 16.917,33 2.150,92 2.596,93 0,00 0,00 4.747,85 12.169,48 31/05/2023
45 492000 ALANA DE CASTRO FREITAS OFICIAL DO MP BELO HORIZONTE - COMARCA; SECRETARIA DO PROCON-MG 8.003,54 1.600,71 0,00 0,00 0,00 0,00 0,00 2.105,00 11.709,25 1.317,63 1.393,86 0,00 0,00 2.711,49 8.997,76 31/05/2023
46 306700 ALANA MARCIA DE OLIVEIRA OFICIAL DO MP BELO HORIZONTE - COMARCA; DIRETORIA DE ADMINISTRACAO FINANCEIRA 12.343,61 3.703,08 0,00 0,00 0,00 0,00 0,00 2.105,00 18.151,69 2.348,42 2.882,06 0,00 0,00 5.230,48 12.921,21 31/05/2023
47 324500 ALANMAR COUTINHO COSTA OFICIAL DO MP LEOPOLDINA - COMARCA; LEOPOLDINA-PJ-02PJ 12.343,61 3.703,08 0,00 0,00 0,00 0,00 0,00 2.105,00 18.151,69 2.348,42 2.777,79 0,00 0,00 5.126,21 13.025,48 31/05/2023
48 407300 ALBERTO LUIZ SOARES DE OLIVEIRA ANALISTA DO MP BELO HORIZONTE - COMARCA; DIRETORIA DE PROJETOS DE EDIFICACOES 17.559,01 3.511,80 0,00 0,00 0,00 0,00 0,00 2.105,00 23.175,81 3.152,28 4.042,64 0,00 0,00 7.194,92 15.980,89 31/05/2023
49 118200 ALBERTO PEREIRA DA COSTA OFICIAL DO MP DORES DO INDAIÁ - COMARCA; DORES DO INDAIA-PJ-UNPJ 22.191,68 19.972,51 0,00 0,00 0,00 5.795,34 477,24 7.311,23 55.748,00 5.795,34 9.400,14 4.574,23 0,00 19.769,71 35.978,29 31/05/2023
50 282400 ALCILENE MARISE DE ARAUJO ANALISTA DO MP BELO HORIZONTE - COMARCA; BH-23PJ INF-FISC MED SOC FEC 23.070,31 6.921,09 0,00 0,00 0,00 0,00 549,84 8.103,28 38.644,52 4.579,57 6.051,16 0,00 0,00 10.630,73 28.013,79 31/05/2023
51 396400 ALCIONE DE FREITAS E SILVA ANALISTA DO MP BELO HORIZONTE - COMARCA; ASSESS JUR DO CONS SUPERIOR DO MINISTERIO PUB 18.720,84 7.488,34 0,00 0,00 0,00 0,00 0,00 2.105,00 28.314,18 3.974,42 5.229,60 0,00 0,00 9.204,02 19.110,16 31/05/2023
52 657400 ALCIONE MARIA FERREIRA ASSESSOR PROCURADOR JUSTICA BELO HORIZONTE - COMARCA; GABINETE DE PROCURADOR DE JUSTIÇA - SALA 610 0,00 0,00 8.810,89 0,00 0,00 0,00 258,45 5.874,48 14.943,82 876,95 1.709,37 0,00 0,00 2.586,32 12.357,50 31/05/2023
53 161600 ALCIONE NERY SOUZA ASSESSOR ADMINISTRATIVO III BELO HORIZONTE - COMARCA; BH-18PJ DIREITOS HUMANOS-SECRETARIA 0,00 5.429,45 10.858,90 0,00 0,00 0,00 0,00 2.105,00 18.393,35 876,95 3.765,68 0,00 0,00 4.642,63 13.750,72 31/05/2023
54 376000 ALDA GOMES LANA OFICIAL DO MP BELO HORIZONTE - COMARCA; BH-18PJ VIOLENCIA DOMESTICA-SECRETARIA 12.343,61 3.703,08 0,00 0,00 0,00 0,00 0,00 2.105,00 18.151,69 2.348,42 2.829,93 0,00 0,00 5.178,35 12.973,34 31/05/2023
55 148000 ALDA MARTINS SIMOES OFICIAL DO MP BELO HORIZONTE - COMARCA; BH-23PJ CIVEL- FISC ENT AB POL 23.070,31 11.535,16 0,00 0,00 0,00 0,00 0,00 2.105,00 36.710,47 5.317,82 7.169,14 0,00 0,00 12.486,96 24.223,51 31/05/2023
56 318400 ALDO CREPALDI JUNIOR OFICIAL DO MP BELO HORIZONTE - COMARCA; DIVISAO DE MATERIAIS 12.343,61 3.703,08 0,00 0,00 0,00 0,00 0,00 2.105,00 18.151,69 2.348,42 2.829,93 0,00 0,00 5.178,35 12.973,34 31/05/2023
57 604500 ALENIZE APARECIDA RODRIGUES HENRIQUE OFICIAL DO MP RIO NOVO - COMARCA; RIO NOVO-PJ-SECRETARIA 7.506,70 750,67 0,00 0,00 0,00 0,00 0,00 2.105,00 10.362,37 1.102,13 1.082,73 0,00 0,00 2.184,86 8.177,51 31/05/2023
58 197900 ALESSA DE SOUSA E SILVA OFICIAL DO MP OLIVEIRA - COMARCA; OLIVEIRA-PJ-02PJ 21.346,53 8.538,61 0,00 0,00 0,00 0,00 0,00 2.259,14 32.144,28 4.562,57 5.974,47 0,00 0,00 10.537,04 21.607,24 31/05/2023
59 428500 ALESSANDRA ALVES DINIZ OFICIAL DO MP BELO HORIZONTE - COMARCA; CENTRAL DE APOIO TECNICO-SECRETARIA 10.015,59 5.007,80 0,00 0,00 0,00 0,00 550,86 8.114,36 23.688,61 2.184,69 2.645,68 0,00 0,00 4.830,37 18.858,24 31/05/2023
60 286801 ALESSANDRA BOTELHO JUNQUEIRA DE MENEZES ANALISTA DO MP PASSOS - COMARCA; PASSOS-PJ-05PJ 18.130,77 7.252,31 0,00 0,00 0,00 0,00 186,14 5.085,65 30.654,87 3.842,24 4.830,22 0,00 0,00 8.672,46 21.982,41 31/05/2023
61 307000 ALESSANDRA CRISTINA SANTOS MENDES ANALISTA DO MP BELO HORIZONTE - COMARCA; BH-18PJ VIOLENCIA DOMESTICA-SECRETARIA 20.533,67 6.160,10 0,00 0,00 0,00 0,00 0,00 2.105,00 28.798,77 4.051,95 5.289,40 0,00 0,00 9.341,35 19.457,42 31/05/2023
62 264400 ALESSANDRA DE SOUZA SANTOS ANALISTA DO MP BELO HORIZONTE - COMARCA; SECRETARIA DE ASSUNTOS INTERNACIONAIS 23.070,31 11.535,16 0,00 0,00 0,00 0,00 0,00 2.105,00 36.710,47 5.317,82 7.169,14 0,00 0,00 12.486,96 24.223,51 31/05/2023
63 441500 ALESSANDRA DRUMMOND DE FIGUEIREDO ROSSI ANALISTA DO MP BELO HORIZONTE - COMARCA; DIRETORIA DE PROJETOS DE EDIFICACOES 12.343,61 2.468,72 0,00 0,00 0,00 0,00 0,00 2.105,00 16.917,33 2.150,92 2.596,93 0,00 0,00 4.747,85 12.169,48 31/05/2023
64 524000 ALESSANDRA LUCIOLI DE BARROS GUERRA ANALISTA DO MP BELO HORIZONTE - COMARCA; BH-19PJ SAUDE--SECRETARIA 12.343,61 2.468,72 0,00 0,00 0,00 0,00 0,00 2.105,00 16.917,33 2.150,92 2.492,65 0,00 0,00 4.643,57 12.273,76 31/05/2023
65 479900 ALESSANDRA MARA ANDRADE DE FARIA OFICIAL DO MP UBERABA - COMARCA; UBERABA-PJ-09PJ 10.516,49 2.103,30 0,00 0,00 0,00 0,00 0,00 2.105,00 14.724,79 1.800,11 2.090,45 0,00 0,00 3.890,56 10.834,23 31/05/2023
66 226700 ALESSANDRA MARA VASCONCELOS REZENDE OFICIAL DO MP CONSELHEIRO LAFAIETE - COMARCA; CONSELHEIRO LAFAIETE-PJ-07PJ 17.559,01 7.023,60 0,00 0,00 0,00 0,00 90,14 3.088,30 27.761,05 3.714,17 4.853,86 0,00 0,00 8.568,03 19.193,02 31/05/2023
67 196500 ALESSANDRA MARIA RIBEIRO LUCIANO OFICIAL DO MP RIO PARANAÍBA - COMARCA; RIO PARANAIBA-PJ-UNPJ 21.346,53 10.673,27 0,00 0,00 0,00 0,00 0,00 2.105,00 34.124,80 4.904,12 6.467,58 0,00 0,00 11.371,70 22.753,10 31/05/2023
68 651700 ALESSANDRA PROFIRIO SOUZA OFICIAL DO MP NOVA ERA - COMARCA; NOVA ERA-PJ-UNPJ 6.097,80 609,78 0,00 0,00 0,00 0,00 0,00 2.105,00 8.812,58 858,46 671,41 0,00 0,00 1.529,87 7.282,71 31/05/2023
69 384900 ALESSANDRA RODRIGUES ANALISTA DO MP VISCONDE DO RIO BRANCO - COMARCA; VISCONDE DO RIO BRANCO-PJ-03PJ 18.720,84 5.616,25 0,00 0,00 0,00 0,00 0,00 3.055,00 27.392,09 3.674,88 4.692,87 0,00 0,00 8.367,75 19.024,34 31/05/2023
70 390000 ALESSANDRA SPADANO MASSARA VASCONCELOS OFICIAL DO MP BETIM - COMARCA; BETIM-PJ-10PJ 12.343,61 3.703,08 0,00 0,00 0,00 0,00 0,00 2.105,00 18.151,69 2.348,42 2.882,06 0,00 0,00 5.230,48 12.921,21 31/05/2023
71 426500 ALESSANDRO CAMPOS DE PAIVA ANALISTA DO MP BELO HORIZONTE - COMARCA; DIR CRIACAO E MIDIAS 18.130,77 3.626,15 0,00 0,00 0,00 0,00 0,00 2.105,00 23.861,92 3.262,06 4.201,13 0,00 0,00 7.463,19 16.398,73 31/05/2023
72 623400 ALESSANDRO DE OLIVEIRA REZENDE ANALISTA DO MP BELO HORIZONTE - COMARCA; DIRET DE INFORMACAO E CONHECIMENTO-DINC/CEAF 11.577,56 1.157,76 0,00 0,00 0,00 0,00 0,00 2.105,00 14.840,32 1.818,60 2.117,14 0,00 0,00 3.935,74 10.904,58 31/05/2023
73 420600 ALESSANDRO SILVA OFICIAL DO MP VISCONDE DO RIO BRANCO - COMARCA; VISCONDE DO RIO BRANCO-PJ-02PJ 11.577,56 4.631,02 0,00 0,00 0,00 0,00 0,00 2.105,00 18.313,58 2.374,32 2.469,23 0,00 0,00 4.843,55 13.470,03 31/05/2023
74 375301 ALETHEIA PATRICIA ASSIS MORAIS MOREIRA ANALISTA DO MP ITABIRA - COMARCA; ITABIRA-PJ-02PJ 12.343,61 2.468,72 0,00 0,00 0,00 0,00 0,00 3.055,00 17.867,33 2.150,92 2.544,79 0,00 0,00 4.695,71 13.171,62 31/05/2023
75 382300 ALEX CARVALHO LIMA ANALISTA DO MP UBERLÂNDIA - COMARCA; UBERLANDIA-PJ-14PJ 18.720,84 5.616,25 0,00 0,00 0,00 0,00 0,00 3.055,00 27.392,09 3.674,88 4.797,15 0,00 0,00 8.472,03 18.920,06 31/05/2023
76 195201 ALEX DE CASTRO PEREIRA ANALISTA DO MP UBERABA - COMARCA; UBERABA-PJ-09PJ 23.070,31 9.228,12 0,00 0,00 0,00 0,00 473,71 7.272,75 40.044,89 4.948,70 6.636,22 0,00 0,00 11.584,92 28.459,97 31/05/2023
77 358900 ALEX DE PAULA LANZA ASSESSOR ADMINISTRATIVO IV BELO HORIZONTE - COMARCA; DIR CONTEUDO JORNALISTICO 0,00 0,00 14.488,22 0,00 0,00 0,00 0,00 3.055,00 17.543,22 876,95 3.270,64 0,00 0,00 4.147,59 13.395,63 31/05/2023
78 178400 ALEX RODRIGO SALDANHA GUIMARAES OFICIAL DO MP BELO HORIZONTE - COMARCA; DIRETORIA DE SISTEMAS DE INFORMACAO 7.506,70 3.002,68 0,00 0,00 0,00 0,00 0,00 2.105,00 12.614,38 1.462,45 1.602,95 0,00 0,00 3.065,40 9.548,98 31/05/2023
79 413500 ALEX VILELA OLIVEIRA ANALISTA DO MP GOVERNADOR VALADARES - COMARCA; COORD REG PJ DEF EDU DIR CRIANCA ADOL RIODOCE 18.130,77 3.626,15 0,00 0,00 0,00 0,00 0,00 2.105,00 23.861,92 3.262,06 4.201,13 0,00 0,00 7.463,19 16.398,73 31/05/2023
80 264300 ALEXANDRA FATIMA SARAIVA SOARES ANALISTA DO MP BELO HORIZONTE - COMARCA; CENTRAL DE APOIO TECN-SETOR DE MEIO AMBIENTE 23.070,31 9.228,12 0,00 0,00 0,00 0,00 4.853,61 7.272,75 44.424,79 4.948,70 7.840,69 0,00 0,00 12.789,39 31.635,40 31/05/2023
81 488000 ALEXANDRA LARA PAIS DE CARVALHO ANALISTA DO MP SABARÁ - COMARCA; SABARA-PJ-04PJ 12.343,61 2.468,72 0,00 0,00 0,00 0,00 0,00 2.105,00 16.917,33 2.150,92 2.440,52 0,00 0,00 4.591,44 12.325,89 31/05/2023
82 256300 ALEXANDRA SANTOS GOMES OFICIAL DO MP BELO HORIZONTE - COMARCA; DIRETORIA GESTAO COMPRAS LICITACOES 12.343,61 4.937,44 0,00 0,00 0,00 0,00 0,00 2.105,00 19.386,05 2.545,92 3.167,20 0,00 0,00 5.713,12 13.672,93 31/05/2023
83 403300 ALEXANDRE AUGUSTO RODRIGUES ANALISTA DO MP ÁGUAS FORMOSAS - COMARCA; AGUAS FORMOSAS-PJ-UNPJ 12.343,61 2.468,72 0,00 0,00 0,00 0,00 0,00 4.005,00 18.817,33 2.150,92 2.596,93 0,00 0,00 4.747,85 14.069,48 31/05/2023
84 640900 ALEXANDRE BARBOSA MASCARENHAS ANALISTA DO MP BETIM - COMARCA; BETIM-PJ-02PJ 9.393,95 939,40 0,00 0,00 0,00 0,00 0,00 2.105,00 12.438,35 982,16 1.316,16 0,00 0,00 2.298,32 10.140,03 31/05/2023
85 311700 ALEXANDRE BARCELOS RESENDE OFICIAL DO MP BELO HORIZONTE - COMARCA; BH-13ª PJ JUÍZO DE TÓXICOS-SECRETARIA 10.858,90 3.257,67 0,00 0,00 0,00 0,00 0,00 3.055,00 17.171,57 2.039,60 2.436,21 0,00 0,00 4.475,81 12.695,76 31/05/2023
86 285600 ALEXANDRE CAMPOS DE OLIVEIRA OFICIAL DO MP UBERABA - COMARCA; COORD REG BACIAS PARANAIBA BAIXO RIO GRANDE 12.343,61 3.703,08 0,00 0,00 0,00 0,00 0,00 2.105,00 18.151,69 2.348,42 2.725,65 0,00 0,00 5.074,07 13.077,62 31/05/2023
87 509200 ALEXANDRE CAPUANO DE REZENDE ANALISTA DO MP BELO HORIZONTE - COMARCA; BH-07PJ 03 TRIBUNAL DO JURI-GAB 061PJ 12.343,61 2.468,72 0,00 0,00 0,00 0,00 0,00 2.105,00 16.917,33 2.150,92 2.544,79 0,00 0,00 4.695,71 12.221,62 31/05/2023
88 229400 ALEXANDRE CARLOS BOTREL SUPERINTENDENTE BELO HORIZONTE - COMARCA; SUPERINTENDENCIA DOS ORGAOS COLEGIADOS 28.013,39 11.205,36 0,00 0,00 0,00 0,00 551,32 8.119,39 47.889,46 3.842,24 8.395,66 1.628,79 0,00 13.866,69 34.022,77 31/05/2023
89 411900 ALEXANDRE CARVALHO SANTOS RIBEIRO ANALISTA DO MP OLIVEIRA - COMARCA; OLIVEIRA-PJ-02PJ 18.130,77 3.626,15 0,00 0,00 0,00 0,00 0,00 3.055,00 24.811,92 3.262,06 4.201,13 0,00 0,00 7.463,19 17.348,73 31/05/2023
90 641600 ALEXANDRE DA SILVA ASSUNCAO OFICIAL DO MP BELO HORIZONTE - COMARCA; SERVICO MEDICO-DEPTO PERIC MEDICA SAUDE OCUP 6.603,76 660,38 0,00 0,00 0,00 0,00 0,00 2.105,00 9.369,14 944,43 852,96 0,00 0,00 1.797,39 7.571,75 31/05/2023
91 201200 ALEXANDRE DE ALENCAR CORDEIRO OFICIAL DO MP ÁGUAS FORMOSAS - COMARCA; AGUAS FORMOSAS-PJ-UNPJ 7.506,70 3.753,35 0,00 0,00 3.753,35 0,00 536,73 7.960,23 23.510,36 1.582,56 2.808,52 0,00 0,00 4.391,08 19.119,28 31/05/2023
92 288200 ALEXANDRE DE VASCONCELOS COSTA KER ANALISTA DO MP BELO HORIZONTE - COMARCA; BH-03PJ EMPRESARIAL-SECRETARIA 22.191,68 6.657,50 0,00 0,00 0,00 0,00 528,90 7.874,84 37.252,92 4.396,82 5.787,30 0,00 0,00 10.184,12 27.068,80 31/05/2023
93 445000 ALEXANDRE DIOGENES OLIVEIRA ANALISTA DO MP SALINAS - COMARCA; SALINAS-PJ-02PJ 13.588,97 2.717,79 0,00 0,00 0,00 0,00 0,00 2.675,00 18.981,76 2.390,03 2.942,14 0,00 0,00 5.332,17 13.649,59 31/05/2023
94 463400 ALEXANDRE LEAL WINKELSTROTER ANALISTA DO MP TEÓFILO OTONI - COMARCA; TEOFILO OTONI-PJ-04PJ 12.343,61 2.468,72 0,00 0,00 0,00 0,00 0,00 2.105,00 16.917,33 2.150,92 2.596,93 0,00 0,00 4.747,85 12.169,48 31/05/2023
95 615700 ALEXANDRE LUIZ DE CASTRO MACIEL ANALISTA DO MP BELO HORIZONTE - COMARCA; BH-08PJ JUIZADO ESPECIAL-SECRETARIA 11.577,56 1.157,76 0,00 0,00 0,00 0,00 0,00 2.105,00 14.840,32 1.818,60 2.065,00 0,00 0,00 3.883,60 10.956,72 31/05/2023
96 356900 ALEXANDRE MOISES MENDONCA E ARAUJO OFICIAL DO MP UBERABA - COMARCA; UBERABA-PJ-13PJ 9.699,77 2.909,93 0,00 0,00 0,00 0,00 0,00 2.105,00 14.714,70 1.798,50 2.088,12 0,00 0,00 3.886,62 10.828,08 31/05/2023
97 633300 ALEXANDRE NONATO MARTINS OFICIAL DO MP IGARAPÉ - COMARCA; IGARAPE-PJ-02PJ 6.603,76 660,38 0,00 0,00 0,00 0,00 0,00 2.105,00 9.369,14 944,43 800,82 0,00 0,00 1.745,25 7.623,89 31/05/2023
98 469900 ALEXANDRE PEREIRA GUEDES ANALISTA DO MP CATAGUASES - COMARCA; CATAGUASES-PJ-03PJ 12.343,61 2.468,72 0,00 0,00 0,00 0,00 0,00 2.105,00 16.917,33 2.150,92 2.596,93 0,00 0,00 4.747,85 12.169,48 31/05/2023
99 208700 ALEXANDRE RESENDE FRAGA ANALISTA DO MP BELO HORIZONTE - COMARCA; BH-19PJ SAUDE-SECRETARIA 130PJ 23.070,31 9.228,12 0,00 0,00 0,00 0,00 0,00 2.105,00 34.403,43 4.948,70 6.479,80 0,00 0,00 11.428,50 22.974,93 31/05/2023
100 216401 ALEXANDRE RIBEIRO DE LIMA MAIORINO ANALISTA DO MP UBERABA - COMARCA; UBERABA-PJ-03PJ 22.191,68 8.876,67 0,00 0,00 0,00 0,00 569,59 8.318,67 39.956,61 4.751,88 6.299,93 0,00 0,00 11.051,81 28.904,80 31/05/2023
101 475100 ALEXANDRE TEOTONIO COSTA ANALISTA DO MP ARAGUARI - COMARCA; ARAGUARI-PJ-01PJ 12.343,61 2.468,72 0,00 0,00 0,00 0,00 0,00 2.105,00 16.917,33 2.150,92 2.492,65 0,00 0,00 4.643,57 12.273,76 31/05/2023
102 339000 ALEXANDRE VITOR CARDOSO OFICIAL DO MP BELO HORIZONTE - COMARCA; BH-23PJ INFRACIONAL-SEC EXP 7.506,70 2.252,01 0,00 0,00 0,00 0,00 0,00 2.105,00 11.863,71 1.342,34 1.273,13 0,00 0,00 2.615,47 9.248,24 31/05/2023
103 623100 ALEXSANDER BATISTA AGUIAR COORDENADOR II BELO HORIZONTE - COMARCA; DIRETORIA DE SUPORTE E MANUTENCAO 20.533,67 2.053,37 0,00 0,00 0,00 0,00 0,00 2.105,00 24.692,04 1.818,60 4.669,95 0,00 0,00 6.488,55 18.203,49 31/05/2023
104 513300 ALFSON MIRANDA BRAGA ANALISTA DO MP BELO HORIZONTE - COMARCA; BH-12PJ JUIZO CRIMINAL-GAB 087PJ 12.343,61 2.468,72 0,00 0,00 0,00 0,00 543,12 8.029,93 23.385,38 2.150,92 2.596,93 0,00 0,00 4.747,85 18.637,53 31/05/2023
105 618400 ALICE MAGALHAES MACEDO DE CARVALHO ANALISTA DO MP IPATINGA - COMARCA; IPATINGA-PJ-10PJ 11.577,56 1.157,76 0,00 0,00 0,00 0,00 0,00 3.055,00 15.790,32 1.818,60 2.117,14 0,00 0,00 3.935,74 11.854,58 31/05/2023
106 707000 ALICE MARIA RIBEIRO DINIZ ASSESSOR PROMOTOR JUSTICA BELO HORIZONTE - COMARCA; PROC JUST ATUACAO TRIBUNAIS SUPERIORES-GAB004 0,00 0,00 8.810,89 0,00 0,00 0,00 0,00 2.105,00 10.915,89 876,95 1.709,37 0,00 0,00 2.586,32 8.329,57 31/05/2023
107 471000 ALICE TITONELI MOREIRA ANALISTA DO MP MIRADOURO - COMARCA; MIRADOURO-PJ-UNPJ 12.343,61 2.468,72 0,00 0,00 0,00 0,00 543,12 8.979,93 24.335,38 2.150,92 2.492,65 0,00 0,00 4.643,57 19.691,81 31/05/2023
108 731600 ALICIA PAULA RODRIGUES DE LIMA ASSESSOR PROMOTOR JUSTICA TIROS - COMARCA; TIROS-PJ-UNPJ 0,00 0,00 8.810,89 0,00 0,00 0,00 0,00 2.105,00 10.915,89 876,95 1.709,37 0,00 0,00 2.586,32 8.329,57 31/05/2023
109 725800 ALINE ALBIERI FRANCISCO ASSESSOR PROMOTOR JUSTICA BELO HORIZONTE - COMARCA; CAO-ORDEM ECONOMICA E TRIBUTARIA-ASSESS TECN 0,00 0,00 8.810,89 0,00 2.936,96 0,00 0,00 2.105,00 13.852,85 876,95 2.517,04 0,00 0,00 3.393,99 10.458,86 31/05/2023
110 733200 ALINE APARECIDA DO PRADO TERRITO ASSESSOR ADMINISTRATIVO II BELO HORIZONTE - COMARCA; ESCRITORIO DE PROTECAO DE DADOS PESSOAIS 0,00 0,00 7.506,70 0,00 0,00 0,00 0,00 2.105,00 9.611,70 876,95 1.350,72 0,00 0,00 2.227,67 7.384,03 31/05/2023
111 622400 ALINE BALBINO PORTUGAL LOPES ANALISTA DO MP TRÊS PONTAS - COMARCA; TRES PONTAS-PJ-03PJ 11.577,56 1.157,76 0,00 0,00 0,00 0,00 0,00 3.055,00 15.790,32 1.818,60 2.117,14 0,00 0,00 3.935,74 11.854,58 31/05/2023
112 373000 ALINE BOTELHO RESENDE OFICIAL DO MP JUIZ DE FORA - COMARCA; JUIZ DE FORA-PJ-22PJ 11.954,43 3.586,33 0,00 0,00 0,00 0,00 0,00 2.105,00 17.645,76 2.267,47 2.765,19 0,00 0,00 5.032,66 12.613,10 31/05/2023
113 699800 ALINE CRISTINA DE OLIVEIRA AMARAL BARBOSA ASSESSOR PROCURADOR JUSTICA BELO HORIZONTE - COMARCA; GABINETE DE PROCURADOR DE JUSTIÇA - SALA 904 0,00 0,00 8.810,89 0,00 0,00 0,00 0,00 2.105,00 10.915,89 876,95 1.605,10 0,00 0,00 2.482,05 8.433,84 31/05/2023
114 407700 ALINE CRISTINA RODRIGUES PEREIRA COORDENADOR II BELO HORIZONTE - COMARCA; DIRETORIA DE PROJETOS DE EDIFICACOES 20.533,67 4.106,73 0,00 0,00 0,00 0,00 0,00 2.105,00 26.745,40 2.150,92 5.299,65 0,00 0,00 7.450,57 19.294,83 31/05/2023
115 193100 ALINE CRISTINA SENA OLIVEIRA OFICIAL DO MP UBERLÂNDIA - COMARCA; UBERLANDIA-PJ-03PJ 20.533,67 8.213,47 0,00 0,00 0,00 0,00 527,03 8.804,43 38.078,60 4.380,49 5.763,73 0,00 0,00 10.144,22 27.934,38 31/05/2023
116 554200 ALINE CRISTINA SILVA SOUZA OFICIAL DO MP TIROS - COMARCA; TIROS-PJ-UNPJ 7.506,70 750,67 0,00 0,00 0,00 0,00 0,00 2.105,00 10.362,37 1.102,13 1.082,73 0,00 0,00 2.184,86 8.177,51 31/05/2023
117 505500 ALINE DA CUNHA MARREIROS OLIVEIRA ANALISTA DO MP EUGENÓPOLIS - COMARCA; EUGENOPOLIS-PJ-UNPJ 12.343,61 2.468,72 0,00 0,00 0,00 0,00 0,00 3.118,33 17.930,66 2.150,92 2.544,79 0,00 0,00 4.695,71 13.234,95 31/05/2023
118 433500 ALINE DE MELO QUEIROZ OFICIAL DO MP BELO HORIZONTE - COMARCA; ASSESSORIA JURIDICA DO PROCON-MG 11.212,54 2.242,51 4.020,58 0,00 0,00 0,00 0,00 3.055,00 20.530,63 1.933,76 3.389,05 0,00 0,00 5.322,81 15.207,82 31/05/2023
119 691100 ALINE DE MELO SOUZA ASSESSOR PROCURADOR JUSTICA BELO HORIZONTE - COMARCA; GABINETE DE PROCURADOR DE JUSTIÇA - SALA 401 0,00 0,00 8.810,89 0,00 0,00 0,00 0,00 2.105,00 10.915,89 876,95 1.709,37 0,00 0,00 2.586,32 8.329,57 31/05/2023
120 542700 ALINE DE SOUSA ALBINO ANALISTA DO MP CONTAGEM - COMARCA; CONTAGEM-PJ-09PJ 12.343,61 2.468,72 0,00 0,00 0,00 0,00 0,00 2.105,00 16.917,33 2.150,92 2.596,93 0,00 0,00 4.747,85 12.169,48 31/05/2023
121 330000 ALINE DIORIO MAYRINK OFICIAL DO MP BELO HORIZONTE - COMARCA; NUCLEO DE ACORDOS DE NAO PERSECUCAO PENAL BH 10.015,59 2.003,12 0,00 0,00 0,00 0,00 0,00 2.105,00 14.123,71 1.703,94 1.951,60 0,00 0,00 3.655,54 10.468,17 31/05/2023
122 499000 ALINE FERREIRA LOPES ANALISTA DO MP TEÓFILO OTONI - COMARCA; TEOFILO OTONI-PJ-09PJ 12.343,61 2.468,72 0,00 0,00 0,00 0,00 0,00 2.105,00 16.917,33 2.150,92 2.544,79 0,00 0,00 4.695,71 12.221,62 31/05/2023
123 405300 ALINE LAIA CARDOZO SUPERINTENDENTE BELO HORIZONTE - COMARCA; SUPERINTENDENCIA LOGISTICA SERVICOS 28.013,39 5.602,68 0,00 0,00 0,00 0,00 0,00 2.105,00 35.721,07 3.375,35 7.431,24 0,00 0,00 10.806,59 24.914,48 31/05/2023
124 278200 ALINE MARCIA FARIA BARBOSA FERNANDES OFICIAL DO MP BARBACENA - COMARCA; BARBACENA-PJ-SECRETARIA 9.699,77 2.909,93 0,00 0,00 0,00 0,00 0,00 2.105,00 14.714,70 1.798,50 1.983,85 0,00 0,00 3.782,35 10.932,35 31/05/2023
125 389000 ALINE NERI NOBRE ANALISTA DO MP MONTES CLAROS - COMARCA; COORD REG PJ DEF EDUC DIR CRIANCA ADOL NORTE 18.720,84 7.488,34 0,00 0,00 0,00 0,00 192,20 4.201,73 30.603,11 3.974,42 5.229,60 0,00 0,00 9.204,02 21.399,09 31/05/2023
126 294600 ALINE PATRICIA SILVA VIEIRA OFICIAL DO MP UBERLÂNDIA - COMARCA; UBERLANDIA-PJ-03PJ 14.960,00 4.488,00 0,00 0,00 0,00 0,00 1.771,66 2.105,00 23.324,66 2.892,63 3.946,42 0,00 0,00 6.839,05 16.485,61 31/05/2023
127 420000 ALINE RODRIGUES CAMOROPIN ANALISTA DO MP SABARÁ - COMARCA; SABARA-PJ-02PJ 18.130,77 3.626,15 0,00 0,00 0,00 0,00 398,88 6.456,38 28.612,18 3.262,06 4.201,13 0,00 0,00 7.463,19 21.148,99 31/05/2023
128 715800 ALINE SANTOS PEDROSA MAIA BARBOSA ASSESSOR PROCURADOR JUSTICA BELO HORIZONTE - COMARCA; GABINETE DE PROCURADOR DE JUSTIÇA - SALA 1010 0,00 0,00 8.810,89 0,00 0,00 0,00 0,00 2.105,00 10.915,89 876,95 1.709,37 0,00 0,00 2.586,32 8.329,57 31/05/2023
129 699600 ALINE SEPULVEDA ROSA PIRES ASSESSOR PROCURADOR JUSTICA BELO HORIZONTE - COMARCA; GABINETE DE PROCURADOR DE JUSTIÇA - SALA 905 0,00 0,00 8.810,89 0,00 0,00 0,00 0,00 2.105,00 10.915,89 876,95 1.709,37 0,00 0,00 2.586,32 8.329,57 31/05/2023
130 408300 ALINE SILVA ARAUJO DE PAULA ANALISTA DO MP SÃO SEBASTIÃO DO PARAÍSO - COMARCA; SAO SEBASTIAO DO PARAISO-PJ-02PJ 18.130,77 3.626,15 0,00 0,00 0,00 0,00 0,00 2.105,00 23.861,92 982,16 4.690,95 0,00 0,00 5.673,11 18.188,81 31/05/2023
131 734300 ALINE TAVARES GURGEL ASSESSOR ADMINISTRATIVO III BELO HORIZONTE - COMARCA; SECRETARIA-GERAL 0,00 0,00 10.858,90 0,00 0,00 0,00 0,00 2.105,00 12.963,90 876,95 2.272,58 0,00 0,00 3.149,53 9.814,37 31/05/2023
132 425400 ALINE TRINDADE DE FREITAS CAMPOS OFICIAL DO MP BELO HORIZONTE - COMARCA; BH-14PJ DEFESA CONSUMIDOR-SECRETARIA 11.212,54 2.242,51 0,00 0,00 0,00 0,00 0,00 2.105,00 15.560,05 1.933,76 2.283,39 0,00 0,00 4.217,15 11.342,90 31/05/2023
133 517200 ALISSOM PEREIRA DA SILVA ANALISTA DO MP BORDA DA MATA - COMARCA; BORDA DA MATA-PJ-UNPJ 12.343,61 2.468,72 0,00 0,00 0,00 0,00 0,00 3.055,00 17.867,33 2.150,92 2.596,93 0,00 0,00 4.747,85 13.119,48 31/05/2023
134 442400 ALISSON LABRE ANALISTA DO MP VARGINHA - COMARCA; VARGINHA-PJ-03PJ 13.160,57 2.632,11 0,00 0,00 0,00 0,00 0,00 2.105,00 17.897,68 982,16 3.187,93 0,00 0,00 4.170,09 13.727,59 31/05/2023
135 643800 ALLAN PAUL FONSECA DE CASTRO OFICIAL DO MP CONTAGEM - COMARCA; CONTAGEM-PJ-SECRETARIA 6.603,76 660,38 2.918,39 0,00 0,00 0,00 0,00 3.055,00 13.237,53 944,43 1.655,52 0,00 0,00 2.599,95 10.637,58 31/05/2023
136 612900 ALLAN VINICIUS VIEIRA ARAUJO COORDENADOR II BELO HORIZONTE - COMARCA; DIRETORIA DE GESTAO DOCUMENTAL 20.533,67 2.053,37 0,00 0,00 0,00 0,00 0,00 2.105,00 24.692,04 1.102,13 5.023,39 0,00 0,00 6.125,52 18.566,52 31/05/2023
137 349000 ALLEC RODRIGUES VIEIRA OFICIAL DO MP CAPINÓPOLIS - COMARCA; CAO-CIVEL 12.343,61 3.703,08 0,00 0,00 0,00 0,00 0,00 2.105,00 18.151,69 2.348,42 2.882,06 0,00 0,00 5.230,48 12.921,21 31/05/2023
138 297300 ALLYSON SALIBA MONTEIRO LAIZO ANALISTA DO MP CONSELHEIRO LAFAIETE - COMARCA; CONSELHEIRO LAFAIETE-PJ-03PJ 23.070,31 6.921,09 0,00 0,00 0,00 0,00 549,84 9.053,28 39.594,52 4.579,57 6.103,29 0,00 0,00 10.682,86 28.911,66 31/05/2023
139 303700 ALMIR LOPES LOURES ANALISTA DO MP BELO HORIZONTE - COMARCA; CENTRAL DE APOIO TECN-SETOR DE MEIO AMBIENTE 23.070,31 6.921,09 0,00 0,00 0,00 0,00 549,84 8.103,28 38.644,52 4.579,57 6.103,29 0,00 0,00 10.682,86 27.961,66 31/05/2023
140 696600 ALOIZIO MARTINS JALES JUNIOR ASSESSOR PROMOTOR JUSTICA CAMPESTRE - COMARCA; CAMPESTRE-PJ-SECRETARIA 0,00 0,00 8.810,89 0,00 0,00 0,00 0,00 2.105,00 10.915,89 876,95 1.709,37 0,00 0,00 2.586,32 8.329,57 31/05/2023
141 515900 ALTAIR NEVES JUNIOR OFICIAL DO MP BELO HORIZONTE - COMARCA; BH-01PJ FAZENDA PUBLICA-SECRETARIA 9.699,77 1.939,95 0,00 0,00 0,00 0,00 0,00 2.105,00 13.744,72 1.643,30 1.864,06 0,00 0,00 3.507,36 10.237,36 31/05/2023
142 233300 ALVARINDO BATISTA ANALISTA DO MP BELO HORIZONTE - COMARCA; NUCLEO APOIO TECNICO ESP COMUNICACAO 23.070,31 9.228,12 0,00 0,00 0,00 0,00 473,71 7.272,75 40.044,89 4.948,70 6.584,08 0,00 0,00 11.532,78 28.512,11 31/05/2023
143 274100 ALYSSON CARVALHO VIDAL DE LACERDA OFICIAL DO MP MANHUAÇU - COMARCA; MANHUACU-PJ-01PJ 12.343,61 3.703,08 0,00 0,00 0,00 0,00 0,00 2.105,00 18.151,69 2.348,42 2.882,06 0,00 0,00 5.230,48 12.921,21 31/05/2023
144 621000 AMANDA BASTOS ALVES ANALISTA DO MP BELO HORIZONTE - COMARCA; BH-07PJ 02 TRIBUNAL DO JURI-GAB 066PJ 11.577,56 1.157,76 0,00 0,00 0,00 0,00 0,00 2.105,00 14.840,32 982,16 2.239,33 0,00 0,00 3.221,49 11.618,83 31/05/2023
145 521700 AMANDA CRISTINA AGUIAR MACHADO OFICIAL DO MP CONGONHAS - COMARCA; CONGONHAS-PJ-01PJ 7.506,70 1.501,34 0,00 0,00 0,00 0,00 0,00 2.105,00 11.113,04 1.222,23 1.204,00 0,00 0,00 2.426,23 8.686,81 31/05/2023
146 733500 AMANDA CRISTINA GONCALVES ASSESSOR ADMINISTRATIVO I PARACATU - COMARCA; COORD REG AP COM INCL MOB SOCIAIS NOROESTE MG 0,00 0,00 4.872,71 0,00 0,00 0,00 0,00 2.105,00 6.977,71 718,08 670,06 0,00 0,00 1.388,14 5.589,57 31/05/2023
147 713900 AMANDA DE ARAUJO CARVALHO ASSESSOR PROMOTOR JUSTICA ARAÇUAÍ - COMARCA; ARACUAI-PJ-01PJ 0,00 0,00 8.810,89 0,00 0,00 0,00 0,00 2.105,00 10.915,89 876,95 1.709,37 0,00 0,00 2.586,32 8.329,57 31/05/2023
148 613400 AMANDA DE ASSIS IUNES SANTOS ANALISTA DO MP CONGONHAS - COMARCA; CONGONHAS-PJ-01PJ 11.577,56 1.157,76 0,00 0,00 0,00 0,00 0,00 2.105,00 14.840,32 1.818,60 2.117,14 0,00 0,00 3.935,74 10.904,58 31/05/2023
149 695900 AMANDA DE OLIVEIRA ASSESSOR PROCURADOR JUSTICA BELO HORIZONTE - COMARCA; PROC JUST ATUACAO TRIBUNAIS SUPERIORES-GAB004 0,00 0,00 8.810,89 0,00 0,00 0,00 0,00 2.105,00 10.915,89 876,95 1.709,37 0,00 0,00 2.586,32 8.329,57 31/05/2023
150 520800 AMANDA DE SOUZA MACHADO ANALISTA DO MP BAEPENDI - COMARCA; BAEPENDI-PJ-UNPJ 12.343,61 2.468,72 0,00 0,00 0,00 0,00 0,00 2.105,00 16.917,33 2.150,92 2.492,65 0,00 0,00 4.643,57 12.273,76 31/05/2023
151 663900 AMANDA DENISE GONCALVES DA SILVA ASSESSOR ADMINISTRATIVO I BELO HORIZONTE - COMARCA; BH-12PJ JUIZO CRIMINAL-SECRETARIA 0,00 0,00 4.872,71 0,00 0,00 0,00 0,00 2.105,00 6.977,71 718,08 670,06 0,00 0,00 1.388,14 5.589,57 31/05/2023
152 543100 AMANDA VIEIRA FREITAS BRESSANE ANALISTA DO MP VARGINHA - COMARCA; COORD REG DEF ORDEM ECON TRIB VARGINHA 12.343,61 2.468,72 0,00 0,00 0,00 0,00 0,00 2.105,00 16.917,33 2.150,92 2.596,93 0,00 0,00 4.747,85 12.169,48 31/05/2023
153 434400 AMARILIS ASSIS SIMAO CURCIO ANALISTA DO MP BELO HORIZONTE - COMARCA; DIRETORIA GESTAO COMPRAS LICITACOES 12.343,61 2.468,72 0,00 0,00 0,00 0,00 0,00 2.105,00 16.917,33 2.150,92 2.596,93 0,00 0,00 4.747,85 12.169,48 31/05/2023
154 652000 AMAURI SILVA ALVES ASSESSOR ADMINISTRATIVO III BELO HORIZONTE - COMARCA; BH-23PJ INFRACIONAL-COORD ADM INFRACIONAL 10.858,90 1.085,89 0,00 0,00 0,00 0,00 0,00 2.105,00 14.049,79 858,16 2.163,86 0,00 0,00 3.022,02 11.027,77 31/05/2023
155 58000 AMELIA GUARIZE DE CASTRO OFICIAL DO MP JUIZ DE FORA - COMARCA; JUIZ DE FORA-PJ-SECRETARIA 8.264,07 9.090,49 0,00 0,00 0,00 2.557,68 0,00 2.105,00 22.017,24 2.557,68 3.887,54 0,00 0,00 6.445,22 15.572,02 31/05/2023
156 324301 AMERICA SUELI FERREIRA DA SILVA ANALISTA DO MP UBERLÂNDIA - COMARCA; UBERLANDIA-PJ-02PJ 12.343,61 2.468,72 0,00 0,00 0,00 0,00 0,00 2.105,00 16.917,33 2.150,92 2.544,79 0,00 0,00 4.695,71 12.221,62 31/05/2023
157 273300 AMUJACY DE BRITO ASSIZ OFICIAL DO MP BELO HORIZONTE - COMARCA; BH-12PJ JUIZO CRIMINAL-SECRETARIA 12.343,61 3.703,08 0,00 0,00 0,00 0,00 0,00 2.105,00 18.151,69 2.348,42 2.673,52 0,00 0,00 5.021,94 13.129,75 31/05/2023
158 482200 ANA ALICE LOPES ACHTSCHIN ANALISTA DO MP BELO HORIZONTE - COMARCA; PROC JUST ATUACAO TRIBUNAIS SUPERIORES-GAB003 14.960,00 2.992,00 0,00 0,00 0,00 0,00 0,00 2.105,00 20.057,00 2.653,27 3.322,19 0,00 0,00 5.975,46 14.081,54 31/05/2023
159 490400 ANA AMELIA PAULINO GARCIA OFICIAL DO MP CONTAGEM - COMARCA; CONTAGEM-PJ-SECRETARIA 10.516,49 2.103,30 0,00 0,00 0,00 0,00 0,00 3.055,00 15.674,79 1.800,11 2.038,31 0,00 0,00 3.838,42 11.836,37 31/05/2023
160 690400 ANA ANGELICA MOREIRA DA CUNHA ASSESSOR PROMOTOR JUSTICA TIMÓTEO - COMARCA; TIMOTEO-PJ-02PJ 0,00 0,00 8.810,89 0,00 0,00 0,00 0,00 2.105,00 10.915,89 876,95 1.709,37 0,00 0,00 2.586,32 8.329,57 31/05/2023
161 714900 ANA BEATRIZ LOBATO ALVES DE CARVALHO ASSESSOR PROCURADOR JUSTICA BELO HORIZONTE - COMARCA; GABINETE DE PROCURADOR DE JUSTICA - SALA 309 0,00 3.524,36 8.810,89 0,00 0,00 0,00 0,00 2.105,00 14.440,25 876,95 2.678,57 0,00 0,00 3.555,52 10.884,73 31/05/2023
162 715000 ANA CARLA RODRIGUES DE SOUZA ASSESSOR PROMOTOR JUSTICA TRÊS CORACOES - COMARCA; TRES CORACOES-PJ-01PJ 0,00 0,00 8.810,89 0,00 0,00 0,00 0,00 2.105,00 10.915,89 876,95 1.709,37 0,00 0,00 2.586,32 8.329,57 31/05/2023
163 279100 ANA CAROLINA ARAUJO PEREIRA ANALISTA DO MP BELO HORIZONTE - COMARCA; DIRETORIA DE PROJETOS DE EDIFICACOES 23.070,31 6.921,09 0,00 0,00 0,00 0,00 549,84 8.103,28 38.644,52 4.579,57 6.051,16 0,00 0,00 10.630,73 28.013,79 31/05/2023
164 653300 ANA CAROLINA CYRNE DINIZ ASSESSOR ADMINISTRATIVO III BELO HORIZONTE - COMARCA; CENTRAL DE APOIO TECNICO-SETOR CONTABIL 0,00 0,00 10.858,90 0,00 0,00 0,00 0,00 2.105,00 12.963,90 876,95 2.272,58 0,00 0,00 3.149,53 9.814,37 31/05/2023
165 359400 ANA CAROLINA DE ABREU FARIA ASSESSOR ADMINISTRATIVO IV BELO HORIZONTE - COMARCA; SUPERINTENDÊNCIA DE ENGENHARIA E ARQUITETURA 0,00 0,00 14.488,22 0,00 0,00 0,00 0,00 3.055,00 17.543,22 876,95 3.218,50 0,00 0,00 4.095,45 13.447,77 31/05/2023
166 408500 ANA CAROLINA DE CASTRO CARVALHO ANALISTA DO MP BARBACENA - COMARCA; BARBACENA - SECRETARIA DAS PJS CRIMINAIS 18.130,77 3.626,15 0,00 0,00 0,00 0,00 0,00 3.055,00 24.811,92 3.262,06 4.201,13 0,00 0,00 7.463,19 17.348,73 31/05/2023
167 688000 ANA CAROLINA DE OLIVEIRA PINTO ASSESSOR PROCURADOR JUSTICA BELO HORIZONTE - COMARCA; GABINETE DE PROCURADOR DE JUSTIÇA - SALA 1005 0,00 0,00 8.810,89 0,00 0,00 0,00 0,00 2.105,00 10.915,89 876,95 1.709,37 0,00 0,00 2.586,32 8.329,57 31/05/2023
168 420200 ANA CAROLINA FERNANDES SILVA ANALISTA DO MP BELO HORIZONTE - COMARCA; GABINETE DE PROCURADOR DE JUSTIÇA - SALA 704 17.559,01 3.511,80 0,00 0,00 0,00 0,00 0,00 2.105,00 23.175,81 3.152,28 4.042,64 0,00 0,00 7.194,92 15.980,89 31/05/2023
169 522100 ANA CAROLINA FERNANDINO VIDAL PEREIRA SANTOS OFICIAL DO MP BELO HORIZONTE - COMARCA; SECRETARIA DO PROCON-MG 9.699,77 1.939,95 0,00 0,00 0,00 0,00 0,00 2.105,00 13.744,72 982,16 1.960,64 0,00 0,00 2.942,80 10.801,92 31/05/2023
170 716000 ANA CAROLINA FIGUEIREDO SILVA ASSESSOR PROCURADOR JUSTICA BELO HORIZONTE - COMARCA; PROC JUST ATUACAO TRIBUNAIS SUPERIORES-GAB006 0,00 0,00 8.810,89 0,00 0,00 0,00 0,00 2.105,00 10.915,89 876,95 1.709,37 0,00 0,00 2.586,32 8.329,57 31/05/2023
171 502400 ANA CAROLINA GONCALVES FERNANDES ANALISTA DO MP IPATINGA - COMARCA; IPATINGA-PJ-01PJ 12.343,61 2.468,72 0,00 0,00 0,00 0,00 0,00 4.005,00 18.817,33 982,16 2.767,68 0,00 0,00 3.749,84 15.067,49 31/05/2023
172 529900 ANA CAROLINA GONCALVES PECANHA CHEQUER ANALISTA DO MP MANHUAÇU - COMARCA; MANHUACU-PJ-04PJ 12.343,61 2.468,72 0,00 0,00 0,00 0,00 0,00 4.005,00 18.817,33 2.150,92 2.596,93 0,00 0,00 4.747,85 14.069,48 31/05/2023
173 431900 ANA CAROLINA MOTTA GUATIMOSIM ANALISTA DO MP BELO HORIZONTE - COMARCA; ASSESSORIA JURIDICO-ADMINISTRATIVA 17.559,01 3.511,80 0,00 0,00 0,00 0,00 0,00 3.055,00 24.125,81 3.152,28 4.042,64 0,00 0,00 7.194,92 16.930,89 31/05/2023
174 490600 ANA CAROLINA XAVIER GODOY ANALISTA DO MP BELO HORIZONTE - COMARCA; BH-18PJ DIREITOS HUMANOS-SECRETARIA 12.343,61 2.468,72 0,00 0,00 0,00 0,00 0,00 4.005,00 18.817,33 2.150,92 2.492,65 0,00 0,00 4.643,57 14.173,76 31/05/2023
175 600300 ANA CAROLINE PEREIRA DINIZ ANALISTA DO MP BELO HORIZONTE - COMARCA; PROC JUST ESP ACOES COMP ORIG CRIMINAL-SEC 12.343,61 1.234,36 0,00 0,00 0,00 0,00 0,00 3.055,00 16.632,97 1.953,42 2.311,79 0,00 0,00 4.265,21 12.367,76 31/05/2023
176 615800 ANA CAROLINE PEREIRA OLIVEIRA OFICIAL DO MP ALFENAS - COMARCA; ALFENAS-PJ-06PJ 7.506,70 750,67 0,00 0,00 0,00 0,00 0,00 2.105,00 10.362,37 1.102,13 1.082,73 0,00 0,00 2.184,86 8.177,51 31/05/2023
177 324800 ANA CECILIA MENDES DA SILVA OFICIAL DO MP OURO FINO - COMARCA; OURO FINO-PJ-01PJ 12.343,61 4.937,44 0,00 0,00 0,00 0,00 0,00 2.105,00 19.386,05 2.545,92 3.115,06 0,00 0,00 5.660,98 13.725,07 31/05/2023
178 736000 ANA CLARA FERREIRA AMARAL ASSESSOR ADMINISTRATIVO I BELO HORIZONTE - COMARCA; PROCURADOR-GERAL DE JUSTICA- GABINETE 0,00 0,00 4.872,71 0,00 0,00 0,00 487,27 2.887,55 8.247,53 814,94 833,67 0,00 0,00 1.648,61 6.598,92 31/05/2023
179 704100 ANA CLARA MARTINS ALBUQUERQUE ASSESSOR ADMINISTRATIVO I BELO HORIZONTE - COMARCA; CAO-CRIANCAS E ADOLESCENTES-ASS TECNICA 0,00 0,00 4.872,71 0,00 0,00 0,00 0,00 2.105,00 6.977,71 718,08 670,06 0,00 0,00 1.388,14 5.589,57 31/05/2023
180 698700 ANA CLARA SANTOS ALMEIDA ASSESSOR PROMOTOR JUSTICA SABINÓPOLIS - COMARCA; SABINOPOLIS-PJ-UNPJ 0,00 0,00 8.810,89 0,00 0,00 0,00 0,00 2.105,00 10.915,89 876,95 1.709,37 0,00 0,00 2.586,32 8.329,57 31/05/2023
181 441300 ANA CLAUDIA ALKIMIM MIRANDA BOMTEMPO ANALISTA DO MP MONTES CLAROS - COMARCA; MONTES CLAROS-PJ-11PJ 17.559,01 3.511,80 0,00 0,00 0,00 0,00 0,00 2.105,00 23.175,81 3.152,28 3.938,36 0,00 0,00 7.090,64 16.085,17 31/05/2023
182 642500 ANA CLAUDIA DA COSTA NAVES OFICIAL DO MP MONTE CARMELO - COMARCA; MONTE CARMELO-PJ-02PJ 6.097,80 609,78 0,00 0,00 0,00 0,00 0,00 3.094,42 9.802,00 858,16 723,63 0,00 0,00 1.581,79 8.220,21 31/05/2023
183 716800 ANA CLAUDIA DOURADO MENDES ASSESSOR PROMOTOR JUSTICA ARAÇUAÍ - COMARCA; ARACUAI-PJ-02PJ 0,00 0,00 8.810,89 0,00 0,00 0,00 0,00 2.105,00 10.915,89 876,95 1.709,37 0,00 0,00 2.586,32 8.329,57 31/05/2023
184 604900 ANA CLAUDIA OLIVEIRA DE MIRANDA OFICIAL DO MP PONTE NOVA - COMARCA; PONTE NOVA-PJ-04PJ 7.506,70 750,67 0,00 0,00 0,00 0,00 0,00 2.105,00 10.362,37 1.102,13 1.030,59 0,00 0,00 2.132,72 8.229,65 31/05/2023
185 379300 ANA CRISTINA ALVES FLAVIO ANALISTA DO MP SÃO GOTARDO - COMARCA; SAO GOTARDO-PJ-01PJ 18.720,84 5.616,25 0,00 0,00 0,00 0,00 0,00 3.055,00 27.392,09 3.674,88 4.745,01 0,00 0,00 8.419,89 18.972,20 31/05/2023
186 461200 ANA CRISTINA ALVES PASCHOAL ANALISTA DO MP BELO HORIZONTE - COMARCA; BH-07PJ 03 TRIBUNAL DO JURI-GAB 064PJ 12.343,61 2.468,72 0,00 0,00 0,00 0,00 0,00 2.105,00 16.917,33 2.150,92 2.544,79 0,00 0,00 4.695,71 12.221,62 31/05/2023
187 514100 ANA CRISTINA ARAUJO ASSUNCAO ANALISTA DO MP BELO HORIZONTE - COMARCA; ASSESS JUR DO CONS SUPERIOR DO MINISTERIO PUB 12.343,61 2.468,72 0,00 0,00 0,00 0,00 0,00 3.055,00 17.867,33 2.150,92 2.544,79 0,00 0,00 4.695,71 13.171,62 31/05/2023
188 113401 ANA CRISTINA BRAGA ALBUQUERQUE ASSESSOR ADM. ESPECIAL BELO HORIZONTE - COMARCA; DIRETORIA-GERAL 0,00 0,00 28.013,39 0,00 0,00 0,00 513,58 7.102,68 35.629,65 876,95 6.990,06 0,00 0,00 7.867,01 27.762,64 31/05/2023
189 233800 ANA CRISTINA BRAGA SOARES OFICIAL DO MP BELO HORIZONTE - COMARCA; DIRETORIA DE CONTABILIDADE 14.960,00 5.984,00 0,00 0,00 0,00 0,00 0,00 2.105,00 23.049,00 3.131,99 3.909,07 0,00 0,00 7.041,06 16.007,94 31/05/2023
190 186400 ANA CRISTINA DE AZEVEDO LOPES OFICIAL DO MP UBÁ - COMARCA; UBA-PJ-01PJ 20.533,67 8.213,47 0,00 0,00 0,00 0,00 527,03 7.854,43 37.128,60 4.380,49 5.815,87 0,00 0,00 10.196,36 26.932,24 31/05/2023
191 693000 ANA CRISTINA DE MELO SILVEIRA ASSESSOR PROCURADOR JUSTICA BELO HORIZONTE - COMARCA; COORD DE CONTROLE CONSTITUCIONALIDADE 0,00 0,00 8.810,89 0,00 0,00 0,00 0,00 3.055,00 11.865,89 -1.191,14 2.278,10 0,00 0,00 1.086,96 10.778,93 31/05/2023
192 465100 ANA CRISTINA DE OLIVEIRA GUIMARAES ANALISTA DO MP ITAJUBA - COMARCA; ITAJUBA-PJ-05PJ 12.343,61 2.468,72 0,00 0,00 0,00 0,00 0,00 3.055,00 17.867,33 2.150,92 2.492,65 0,00 0,00 4.643,57 13.223,76 31/05/2023
193 500600 ANA CRISTINA LATADO SUDARIO ANALISTA DO MP UBERLÂNDIA - COMARCA; UBERLANDIA-PJ-09PJ 12.343,61 2.468,72 0,00 0,00 0,00 0,00 0,00 2.105,00 16.917,33 2.150,92 2.596,93 0,00 0,00 4.747,85 12.169,48 31/05/2023
194 331400 ANA CRISTINA RIBEIRO ALVES OFICIAL DO MP BAMBUÍ - COMARCA; BAMBUI-PJ-UNPJ 12.343,61 3.703,08 0,00 0,00 0,00 0,00 0,00 2.105,00 18.151,69 2.348,42 2.829,93 0,00 0,00 5.178,35 12.973,34 31/05/2023
195 249300 ANA ELOINA MARTINS OFICIAL DO MP BETIM - COMARCA; BETIM-PJ-02PJ 17.559,01 8.779,51 0,00 0,00 0,00 0,00 96,57 3.158,54 29.593,63 3.995,11 5.259,48 0,00 0,00 9.254,59 20.339,04 31/05/2023
196 257400 ANA FLAVIA CAMBRAIA ANALISTA DO MP BELO HORIZONTE - COMARCA; BH-19PJ SAUDE-SECRETARIA 150PJ 23.070,31 9.228,12 0,00 0,00 0,00 0,00 0,00 2.105,00 34.403,43 4.948,70 6.584,08 0,00 0,00 11.532,78 22.870,65 31/05/2023
197 248201 ANA FLAVIA DE MORAIS SOUZA ANALISTA DO MP DIVINÓPOLIS - COMARCA; DIVINOPOLIS-PJ-01PJ 14.960,00 5.984,00 0,00 0,00 0,00 0,00 0,00 2.105,00 23.049,00 3.131,99 3.909,07 0,00 0,00 7.041,06 16.007,94 31/05/2023
198 621100 ANA FLAVIA DINIZ TEODORO OFICIAL DO MP SANTA LUZIA - COMARCA; SANTA LUZIA-PJ-06PJ 7.506,70 750,67 0,00 0,00 0,00 0,00 302,77 5.407,95 13.968,09 1.102,13 1.082,73 0,00 0,00 2.184,86 11.783,23 31/05/2023
199 238600 ANA FLAVIA FRANCO OFICIAL DO MP BELO HORIZONTE - COMARCA; DIRETORIA DE PESSOAL ADMINISTRATIVO - DPAD 18.130,77 7.252,31 0,00 0,00 0,00 0,00 186,14 4.135,65 29.704,87 3.842,24 5.038,77 0,00 0,00 8.881,01 20.823,86 31/05/2023
200 690000 ANA FLAVIA LURIAN DE PAIVA ASSESSOR PROCURADOR JUSTICA BELO HORIZONTE - COMARCA; GABINETE DE PROCURADOR DE JUSTIÇA - SALA 609 0,00 0,00 8.810,89 0,00 0,00 0,00 0,00 2.105,00 10.915,89 876,95 1.709,37 0,00 0,00 2.586,32 8.329,57 31/05/2023
201 402900 ANA FLAVIA PORTES DE CARVALHO ANALISTA DO MP BELO HORIZONTE - COMARCA; DIRET DE PLANOS PROJETOS E PROGRAMAS INST 18.720,84 3.744,17 0,00 0,00 0,00 0,00 0,00 2.105,00 24.570,01 3.375,35 4.312,56 0,00 0,00 7.687,91 16.882,10 31/05/2023
202 382700 ANA KARENINA SALDANHA GONTIJO ANALISTA DO MP BELO HORIZONTE - COMARCA; ASSESS TECNICO-JUR JUNTO AS PROC. DE JUST 18.999,41 5.699,82 0,00 0,00 0,00 0,00 0,00 2.105,00 26.804,23 3.732,83 4.880,80 0,00 0,00 8.613,63 18.190,60 31/05/2023
203 620500 ANA KARINE DE ANDRADE OLIVEIRA ANALISTA DO MP RIBEIRÃO DAS NEVES - COMARCA; RIBEIRAO NEVES-SEC PJ EXECUCAO PENAL 10.516,49 1.051,65 0,00 0,00 0,00 0,00 0,00 2.105,00 13.673,14 1.631,85 1.847,52 0,00 0,00 3.479,37 10.193,77 31/05/2023
204 462200 ANA LUCIA ANDRADE TOMICH OTTONI ANALISTA DO MP TEÓFILO OTONI - COMARCA; TEOFILO OTONI-PJ-07PJ 12.343,61 2.468,72 0,00 0,00 0,00 0,00 543,12 8.979,93 24.335,38 2.150,92 2.492,65 0,00 0,00 4.643,57 19.691,81 31/05/2023
205 504100 ANA LUCIA CATAO DE CARVALHO OFICIAL DO MP BELO HORIZONTE - COMARCA; DIR RELACOES INSTITUCIONAIS 10.516,49 2.103,30 4.020,58 0,00 0,00 0,00 0,00 2.105,00 18.745,37 1.800,11 3.143,97 0,00 0,00 4.944,08 13.801,29 31/05/2023
206 274700 ANA LUCIA DE ALENCAR BRAGATO OFICIAL DO MP UBERABA - COMARCA; UBERABA-PJ-07PJ 12.343,61 3.703,08 0,00 0,00 0,00 0,00 0,00 2.105,00 18.151,69 2.348,42 2.882,06 0,00 0,00 5.230,48 12.921,21 31/05/2023
207 509400 ANA LUCIA DORNELAS MALLOSTO ANALISTA DO MP JUIZ DE FORA - COMARCA; JUIZ DE FORA-PJ-25PJ 12.343,61 2.468,72 0,00 0,00 0,00 0,00 0,00 2.105,00 16.917,33 2.150,92 2.544,79 0,00 0,00 4.695,71 12.221,62 31/05/2023
208 302600 ANA LUCIA LOPES SANTOS OFICIAL DO MP BELO HORIZONTE - COMARCA; DIVISÃO DE FISCALIZAÇÃO DAS RELAÇÕES DE CONSU 12.343,61 3.703,08 0,00 0,00 0,00 0,00 1.771,66 2.105,00 19.923,35 2.348,42 3.317,13 0,00 0,00 5.665,55 14.257,80 31/05/2023
209 716700 ANA LUISA DE LANA COELHO ASSESSOR PROCURADOR JUSTICA BELO HORIZONTE - COMARCA; GABINETE DE PROCURADOR DE JUSTIÇA - SALA 715 0,00 0,00 8.810,89 0,00 0,00 0,00 0,00 2.105,00 10.915,89 876,95 1.709,37 0,00 0,00 2.586,32 8.329,57 31/05/2023
210 702000 ANA LUISA DE OLIVEIRA RIBEIRO ASSESSOR PROCURADOR JUSTICA BELO HORIZONTE - COMARCA; ASSESS TECNICO-JUR JUNTO AS PROC. DE JUST 0,00 0,00 8.810,89 0,00 0,00 0,00 0,00 2.105,00 10.915,89 876,95 1.709,37 0,00 0,00 2.586,32 8.329,57 31/05/2023
211 493400 ANA LUISA NOGUEIRA MOREIRA ANALISTA DO MP BELO HORIZONTE - COMARCA; BH-19PJ SAUDE-SECRETARIA 130PJ 12.343,61 2.468,72 0,00 0,00 0,00 0,00 0,00 2.105,00 16.917,33 2.150,92 2.596,93 0,00 0,00 4.747,85 12.169,48 31/05/2023
212 389300 ANA LUISA REUTER LIMA ANALISTA DO MP BELO HORIZONTE - COMARCA; DIRETORIA DE SISTEMAS DE INFORMACAO 18.720,84 5.616,25 5.538,92 0,00 0,00 0,00 0,00 2.105,00 31.981,01 3.674,88 6.320,35 0,00 0,00 9.995,23 21.985,78 31/05/2023
213 480600 ANA LUIZA FERNANDES FRAGA E GRECO COORDENADOR I BELO HORIZONTE - COMARCA; OUVIDORIA DO MPMG 16.469,17 3.293,83 0,00 0,00 0,00 0,00 0,00 2.105,00 21.868,00 1.643,30 4.097,96 0,00 0,00 5.741,26 16.126,74 31/05/2023
214 726800 ANA LUIZA GOMES PEREIRA ASSESSOR ADMINISTRATIVO I BELO HORIZONTE - COMARCA; OUVIDORIA DO MPMG 0,00 0,00 4.872,71 0,00 0,00 0,00 0,00 2.105,00 6.977,71 718,08 670,06 0,00 0,00 1.388,14 5.589,57 31/05/2023
215 733600 ANA LUIZA MACHADO RODRIGUES ASSESSOR PROMOTOR JUSTICA CARMO DA MATA - COMARCA; CARMO DA MATA-PJ-UNPJ 0,00 0,00 8.810,89 0,00 0,00 0,00 0,00 2.105,00 10.915,89 876,95 1.709,37 0,00 0,00 2.586,32 8.329,57 31/05/2023
216 517800 ANA LUIZA MAGALHAES CIRINO PIOTO DE MELO OFICIAL DO MP BELO HORIZONTE - COMARCA; DIVISAO DE MATERIAIS 6.818,83 681,88 0,00 0,00 0,00 0,00 0,00 4.005,00 11.505,71 981,10 907,93 0,00 0,00 1.889,03 9.616,68 31/05/2023
217 481400 ANA MARCIA CANDIDA FERREIRA OFICIAL DO MP BRUMADINHO - COMARCA; BRUMADINHO-PJ-02PJ 7.506,70 1.501,34 0,00 0,00 0,00 0,00 0,00 2.105,00 11.113,04 1.222,23 1.256,14 0,00 0,00 2.478,37 8.634,67 31/05/2023
218 643100 ANA MARIA LOPES MIRANDA ANALISTA DO MP BELO HORIZONTE - COMARCA; CAO-FUNDACOES 10.341,72 1.034,17 0,00 0,00 0,00 0,00 0,00 3.055,00 14.430,89 982,16 1.813,74 0,00 0,00 2.795,90 11.634,99 31/05/2023
219 556400 ANA MARIA OLIVEIRA SOUZA OFICIAL DO MP ITAPECERICA - COMARCA; ITAPECERICA-PJ-UNPJ 8.003,54 800,35 0,00 0,00 0,00 0,00 0,00 2.105,00 10.908,89 1.189,57 1.208,98 0,00 0,00 2.398,55 8.510,34 31/05/2023
220 409600 ANA OLIVIA FARIA ROSENBURG ANALISTA DO MP BELO HORIZONTE - COMARCA; DIRETORIA DO COLEGIO E DA CAMARA DE PJ 18.130,77 7.252,31 0,00 0,00 0,00 0,00 0,00 2.105,00 27.488,08 3.842,24 5.038,77 0,00 0,00 8.881,01 18.607,07 31/05/2023
221 461500 ANA PAULA ALVES CARVALHO ANALISTA DO MP UBERLÂNDIA - COMARCA; UBERLANDIA-PJ-25PJ 13.160,57 2.632,11 0,00 0,00 0,00 0,00 57,91 3.686,71 19.537,30 2.307,78 2.719,11 0,00 0,00 5.026,89 14.510,41 31/05/2023
222 523200 ANA PAULA ALVES DA SILVA OFICIAL DO MP GOVERNADOR VALADARES - COMARCA; GOVERNADOR VALADARES-PJ-10PJ 9.699,77 1.939,95 0,00 0,00 0,00 0,00 0,00 5.905,00 17.544,72 982,16 1.856,37 0,00 0,00 2.838,53 14.706,19 31/05/2023
223 381200 ANA PAULA BARROS PEREIRA RIGHI ANALISTA DO MP BELO HORIZONTE - COMARCA; PROC JUST ATUACAO TRIBUNAIS SUPERIORES-GAB003 18.720,84 5.616,25 0,00 0,00 0,00 0,00 0,00 3.055,00 27.392,09 982,16 5.138,40 0,00 0,00 6.120,56 21.271,53 31/05/2023
224 696400 ANA PAULA CARVALHO SILVA ASSESSOR PROMOTOR JUSTICA PERDÕES - COMARCA; PERDOES-PJ-UNPJ 0,00 0,00 8.810,89 0,00 0,00 0,00 0,00 3.055,00 11.865,89 876,95 1.657,24 0,00 0,00 2.534,19 9.331,70 31/05/2023
225 700900 ANA PAULA CRAVO SALOME ASSESSOR ADMINISTRATIVO I BELO HORIZONTE - COMARCA; PROCURADOR-GERAL DE JUSTIÇA 0,00 0,00 4.872,71 0,00 0,00 0,00 0,00 2.105,00 6.977,71 718,08 670,06 0,00 0,00 1.388,14 5.589,57 31/05/2023
226 227200 ANA PAULA DA SILVA CAMPOLINA ANALISTA DO MP BELO HORIZONTE - COMARCA; DIRETORIA DE ORCAMENTO-DIOR/SPC 23.070,31 11.535,16 0,00 0,00 0,00 0,00 507,55 7.641,88 42.754,90 5.317,82 7.169,14 0,00 0,00 12.486,96 30.267,94 31/05/2023
227 278500 ANA PAULA DIAS CAPANEMA OFICIAL DO MP BELO HORIZONTE - COMARCA; DIRETORIA DE SEGURANCA 13.160,57 3.948,17 0,00 0,00 0,00 0,00 0,00 2.105,00 19.213,74 2.518,35 3.127,40 0,00 0,00 5.645,75 13.567,99 31/05/2023
228 327300 ANA PAULA GARCIA MAXIMO OFICIAL DO MP UNAÍ - COMARCA; UNAI-PJ-01PJ 15.447,01 7.723,51 0,00 0,00 0,00 0,00 0,00 2.105,00 25.275,52 3.488,23 4.371,26 0,00 0,00 7.859,49 17.416,03 31/05/2023
229 270000 ANA PAULA GOULART CRUZ DE MAGALHAES ANALISTA DO MP BELO HORIZONTE - COMARCA; ASSESSORIA ESPECIAL DO PGJ 23.070,31 6.921,09 0,00 0,00 0,00 0,00 549,84 8.103,28 38.644,52 4.579,57 6.103,29 0,00 0,00 10.682,86 27.961,66 31/05/2023
230 262100 ANA PAULA KOMATSUZAKI ABIJAUDI ANALISTA DO MP BELO HORIZONTE - COMARCA; BH-17PJ PATRIMONIO PUBLICO-SECRETARIA 23.070,31 11.535,16 0,00 0,00 0,00 0,00 0,00 2.105,00 36.710,47 5.317,82 7.064,87 0,00 0,00 12.382,69 24.327,78 31/05/2023
231 278900 ANA PAULA MOREIRA GURGEL ANALISTA DO MP BELO HORIZONTE - COMARCA; ASSESSORIA JURIDICO-ADMINISTRATIVA 23.070,31 11.535,16 8.404,02 0,00 0,00 0,00 551,32 8.119,40 51.680,21 5.317,82 7.989,88 5.419,53 0,00 18.727,23 32.952,98 31/05/2023
232 425701 ANA PAULA ROCHA ANALISTA DO MP BELO HORIZONTE - COMARCA; ASSESSORIA DE COMUNICACAO INTEGRADA 12.343,61 1.234,36 0,00 0,00 0,00 0,00 0,00 3.055,00 16.632,97 1.953,42 2.311,79 0,00 0,00 4.265,21 12.367,76 31/05/2023
233 395601 ANA PAULA SALGE OLIVEIRA ANALISTA DO MP UBERABA - COMARCA; UBERABA-PJ-15PJ 12.343,61 4.937,44 0,00 0,00 0,00 0,00 0,00 2.105,00 19.386,05 2.545,92 3.167,20 0,00 0,00 5.713,12 13.672,93 31/05/2023
234 473200 ANA PAULA SCOTTON BRASIL ANALISTA DO MP JUIZ DE FORA - COMARCA; JUIZ DE FORA-PJ-09PJ 12.343,61 2.468,72 0,00 0,00 0,00 0,00 0,00 2.105,00 16.917,33 2.150,92 2.596,93 0,00 0,00 4.747,85 12.169,48 31/05/2023
235 633600 ANA PAULA SILVA FERNANDES OFICIAL DO MP CATAGUASES - COMARCA; CATAGUASES-PJ-04PJ 7.270,07 727,01 0,00 0,00 0,00 0,00 0,00 2.105,00 10.102,08 1.060,48 1.022,61 0,00 0,00 2.083,09 8.018,99 31/05/2023
236 470900 ANA PAULA VALADARES ANALISTA DO MP PITANGUI - COMARCA; PITANGUI-PJ-01PJ 12.343,61 2.468,72 0,00 0,00 0,00 0,00 0,00 2.105,00 16.917,33 2.150,92 2.492,65 0,00 0,00 4.643,57 12.273,76 31/05/2023
237 447000 ANA PAULA VALENTIM DE ARAUJO ANALISTA DO MP BELO HORIZONTE - COMARCA; PROC JUST ESP ACOES COMP ORIG CRIMINAL-ASSESS 13.588,97 2.717,79 0,00 0,00 0,00 0,00 0,00 2.105,00 18.411,76 2.390,03 2.942,14 0,00 0,00 5.332,17 13.079,59 31/05/2023
238 604200 ANA PAULA VIANA E SILVA OFICIAL DO MP BELO HORIZONTE - COMARCA; BH-17PJ PATRIMONIO PUBLICO-SECRETARIA 7.506,70 750,67 0,00 0,00 0,00 0,00 0,00 2.105,00 10.362,37 1.102,13 1.082,73 0,00 0,00 2.184,86 8.177,51 31/05/2023
239 505400 ANA PAULA VIEIRA SOUTO OFICIAL DO MP ALMENARA - COMARCA; ALMENARA-PJ-01PJ 7.506,70 3.002,68 0,00 0,00 0,00 0,00 0,00 2.105,00 12.614,38 1.462,45 1.550,81 0,00 0,00 3.013,26 9.601,12 31/05/2023
240 280200 ANA RACHEL BRANDAO LADEIRA ROLAND ANALISTA DO MP BELO HORIZONTE - COMARCA; SUPERINTENDENCIA GESTÃO DE PESSOAS 23.070,31 6.921,09 8.404,02 0,00 0,00 0,00 0,00 2.105,00 40.500,42 4.579,57 8.192,90 805,46 0,00 13.577,93 26.922,49 31/05/2023
241 691000 ANA RACHEL DOS REIS E SENA COSTA ASSESSOR PROMOTOR JUSTICA BELO HORIZONTE - COMARCA; GABINETE DE PROCURADOR DE JUSTIÇA - SALA 601 0,00 0,00 8.810,89 0,00 0,00 0,00 0,00 2.105,00 10.915,89 876,95 1.709,37 0,00 0,00 2.586,32 8.329,57 31/05/2023
242 601200 ANA REGINA RIBEIRO ANALISTA DO MP BELO HORIZONTE - COMARCA; DIV FISCAL ADM CONT TERCEIRIZACAO 12.343,61 1.234,36 4.940,75 0,00 0,00 0,00 0,00 2.105,00 20.623,72 982,16 3.710,49 0,00 0,00 4.692,65 15.931,07 31/05/2023
243 384700 ANA RODRIGUES PEREIRA MARRA ANALISTA DO MP COROMANDEL - COMARCA; COROMANDEL-PJ-01PJ 12.343,61 3.703,08 0,00 0,00 0,00 0,00 0,00 2.105,00 18.151,69 2.348,42 2.777,79 0,00 0,00 5.126,21 13.025,48 31/05/2023
244 232700 ANA SILVIA SEMBLANO NAKAMURA OFICIAL DO MP BELO HORIZONTE - COMARCA; CENT DE APOIO TEC-SETOR DEF,IDOSO E INFANC 12.343,61 4.937,44 4.020,58 0,00 0,00 0,00 0,00 2.105,00 23.406,63 2.545,92 4.272,86 0,00 0,00 6.818,78 16.587,85 31/05/2023
245 602100 ANACLETO FRANCISCO MARCIER PIMENTA OFICIAL DO MP SÃO JOÃO DEL REI - COMARCA; SAO JOAO DEL REI-PJ-03PJ 7.506,70 750,67 0,00 0,00 0,00 0,00 0,00 3.055,00 11.312,37 1.102,13 822,04 0,00 0,00 1.924,17 9.388,20 31/05/2023
246 310400 ANADEJE DO CARMO DINIZ ARAUJO OFICIAL DO MP BELO HORIZONTE - COMARCA; DIRETORIA DE PESSOAL ADMINISTRATIVO - DPAD 12.343,61 3.703,08 0,00 0,00 0,00 0,00 0,00 2.105,00 18.151,69 2.348,42 2.882,06 0,00 0,00 5.230,48 12.921,21 31/05/2023
247 337000 ANAILDES MARIA MENDES OFICIAL DO MP JANAÚBA - COMARCA; JANAUBA-PJ-02PJ 12.343,61 3.703,08 0,00 0,00 0,00 0,00 0,00 3.055,00 19.101,69 2.348,42 2.882,06 0,00 0,00 5.230,48 13.871,21 31/05/2023
248 377400 ANDEIRSON DA MATTA BARBOSA ANALISTA DO MP POUSO ALEGRE - COMARCA; POUSO ALEGRE-PJ-01PJ 12.343,61 3.703,08 0,00 0,00 0,00 0,00 0,00 3.055,00 19.101,69 2.348,42 2.882,06 0,00 0,00 5.230,48 13.871,21 31/05/2023
249 317400 ANDERSON DA SILVA BICALHO OFICIAL DO MP CONTAGEM - COMARCA; CONTAGEM-PJ-SECRETARIA 11.954,43 3.586,33 0,00 0,00 0,00 0,00 0,00 2.105,00 17.645,76 2.267,47 2.608,78 0,00 0,00 4.876,25 12.769,51 31/05/2023
250 506900 ANDERSON DE SOUZA DAMIANI ANALISTA DO MP BELO HORIZONTE - COMARCA; DIRETORIA DE PAGAMENTO DE PESSOAL-DPAG 12.343,61 4.937,44 5.538,92 0,00 0,00 0,00 0,00 2.105,00 24.924,97 2.545,92 4.638,27 0,00 0,00 7.184,19 17.740,78 31/05/2023
251 410000 ANDERSON DE SOUZA NETO ASSESSOR ADMINISTRATIVO II BELO HORIZONTE - COMARCA; DIRETORIA DE ADMINISTRACAO FINANCEIRA 0,00 0,00 7.506,70 0,00 0,00 0,00 0,00 2.105,00 9.611,70 876,95 1.350,72 0,00 0,00 2.227,67 7.384,03 31/05/2023
252 181900 ANDERSON FLAVIO DE OLIVEIRA OFICIAL DO MP ITAGUARA - COMARCA; ITAGUARA-PJ-SECRETARIA 18.130,77 7.252,31 0,00 0,00 0,00 0,00 0,00 2.105,00 27.488,08 3.842,24 5.038,77 0,00 0,00 8.881,01 18.607,07 31/05/2023
253 333200 ANDERSON JOSE DE FREITAS OFICIAL DO MP IPATINGA - COMARCA; IPATINGA-PJ-04PJ 12.343,61 3.703,08 0,00 0,00 0,00 0,00 1.771,66 3.055,00 20.873,35 2.348,42 3.212,86 0,00 0,00 5.561,28 15.312,07 31/05/2023
254 699400 ANDERSON LUIZ CABRAL ASSESSOR PROMOTOR JUSTICA ALÉM PARAÍBA - COMARCA; ALEM PARAIBA-PJ-03PJ 0,00 0,00 8.810,89 0,00 0,00 0,00 0,00 2.105,00 10.915,89 876,95 1.709,37 0,00 0,00 2.586,32 8.329,57 31/05/2023
255 462100 ANDERSON LUIZ GUIMARAES CARDOSO ANALISTA DO MP BARBACENA - COMARCA; BARBACENA-PJ-02PJ 14.960,00 2.992,00 0,00 0,00 0,00 0,00 0,00 2.105,00 20.057,00 2.653,27 3.322,19 0,00 0,00 5.975,46 14.081,54 31/05/2023
256 429700 ANDERSON MELO DE SOUZA COORDENADOR II BELO HORIZONTE - COMARCA; DIRET DE ESTAGIOS E CONVENIOS ACADEMICOS 20.533,67 4.106,73 0,00 0,00 0,00 0,00 0,00 2.105,00 26.745,40 1.222,23 5.555,04 0,00 0,00 6.777,27 19.968,13 31/05/2023
257 545600 ANDERSON MENDES PROCOPIO FERREIRA ANALISTA DO MP BELO HORIZONTE - COMARCA; BH-12PJ JUIZO CRIMINAL-GAB 089PJ 12.343,61 2.468,72 0,00 0,00 0,00 0,00 0,00 2.105,00 16.917,33 2.150,92 2.596,93 0,00 0,00 4.747,85 12.169,48 31/05/2023
258 519900 ANDERSON MOREIRA DOEHLER ANALISTA DO MP TEÓFILO OTONI - COMARCA; COORD REG SAUDE MACRORREGIAO SANIT NORDESTE 12.343,61 4.937,44 0,00 0,00 0,00 0,00 0,00 2.105,00 19.386,05 2.545,92 3.167,20 0,00 0,00 5.713,12 13.672,93 31/05/2023
259 103000 ANDERSON TADEU DE DEUS ASSESSOR ADMINISTRATIVO II BELO HORIZONTE - COMARCA; BH-26 CRIME CONT CRIAN ADOL-SECRETARIA 0,00 6.005,36 7.506,70 0,00 0,00 0,00 0,00 4.357,00 17.869,06 876,95 3.002,20 0,00 0,00 3.879,15 13.989,91 31/05/2023
260 309200 ANDITYAS SOARES DE MOURA COSTA MATOS ANALISTA DO MP BELO HORIZONTE - COMARCA; GABINETE DE PROCURADOR DE JUSTIÇA - SALA 909 20.533,67 8.213,47 0,00 0,00 0,00 0,00 0,00 2.105,00 30.852,14 4.380,49 5.815,87 0,00 0,00 10.196,36 20.655,78 31/05/2023
261 519200 ANDRE BORJA LANA ANALISTA DO MP BELO HORIZONTE - COMARCA; DIR CONTEUDO JORNALISTICO 12.343,61 2.468,72 0,00 0,00 0,00 0,00 0,00 2.105,00 16.917,33 2.150,92 2.596,93 0,00 0,00 4.747,85 12.169,48 31/05/2023
262 637200 ANDRE FERNANDES DA CUNHA OFICIAL DO MP MORADA NOVA DE MINAS - COMARCA; MORADA NOVA DE MINAS-PJ-UNPJ 7.270,07 727,01 0,00 0,00 0,00 0,00 0,00 2.105,00 10.102,08 982,16 1.044,14 0,00 0,00 2.026,30 8.075,78 31/05/2023
263 651500 ANDRE GONCALVES MARANHAO OFICIAL DO MP ANDRADAS - COMARCA; ANDRADAS-PJ-02PJ 6.097,80 609,78 0,00 0,00 0,00 0,00 73,78 2.909,91 9.691,27 858,46 723,55 0,00 0,00 1.582,01 8.109,26 31/05/2023
264 521900 ANDRE LUIS GOMES SILVA ANALISTA DO MP FORMIGA - COMARCA; FORMIGA-PJ-02PJ 12.343,61 2.468,72 0,00 0,00 0,00 0,00 0,00 4.005,00 18.817,33 2.150,92 2.043,38 0,00 0,00 4.194,30 14.623,03 31/05/2023
265 304300 ANDRE LUIZ AVELAR ANALISTA DO MP BELO HORIZONTE - COMARCA; DIRETORIA DE REDES E BANCOS DE DADOS 10.341,72 3.102,52 0,00 0,00 0,00 0,00 0,00 2.105,00 15.549,24 1.932,03 2.228,76 0,00 0,00 4.160,79 11.388,45 31/05/2023
266 397400 ANDRE PATARO MYRRHA DE PAULA E SILVA ANALISTA DO MP BELO HORIZONTE - COMARCA; ASSESSORIA JURIDICO-ADMINISTRATIVA 18.720,84 5.616,25 0,00 0,00 0,00 0,00 1.878,94 3.129,88 29.345,91 3.974,42 5.229,60 0,00 0,00 9.204,02 20.141,89 31/05/2023
267 650100 ANDRE THOME VARGAS OFICIAL DO MP LEOPOLDINA - COMARCA; LEOPOLDINA-PJ-04PJ 6.603,76 660,38 0,00 0,00 0,00 0,00 0,00 2.105,00 9.369,14 944,43 852,96 0,00 0,00 1.797,39 7.571,75 31/05/2023
268 548500 ANDRE VINICIUS CARVALHO MEIRA ANALISTA DO MP JUIZ DE FORA - COMARCA; JUIZ DE FORA-PJ-24PJ 12.343,61 2.468,72 0,00 0,00 0,00 0,00 1.827,27 8.573,05 25.212,65 982,16 3.081,66 0,00 0,00 4.063,82 21.148,83 31/05/2023
269 297200 ANDRE WILLE ROSARIO ANALISTA DO MP BELO HORIZONTE - COMARCA; ASSESSORIA ESPECIAL DO PGJ 23.070,31 6.921,09 0,00 0,00 0,00 0,00 549,84 8.103,28 38.644,52 4.579,57 5.999,02 0,00 0,00 10.578,59 28.065,93 31/05/2023
270 423600 ANDREA COSTA GUALBERTO ALVES ANALISTA DO MP GOVERNADOR VALADARES - COMARCA; COORD REG PJ DEF EDU DIR CRIANCA ADOL RIODOCE 17.559,01 14.047,21 0,00 0,00 0,00 4.837,94 0,00 2.105,00 38.549,16 4.837,94 7.754,61 0,00 0,00 12.592,55 25.956,61 31/05/2023
271 467300 ANDREA DE CASSIA PENNA ALVERNAZ ANALISTA DO MP PONTE NOVA - COMARCA; PONTE NOVA-PJ-01PJ 12.343,61 2.468,72 0,00 0,00 0,00 0,00 0,00 2.105,00 16.917,33 2.150,92 2.544,79 0,00 0,00 4.695,71 12.221,62 31/05/2023
272 308000 ANDREA DE CASSIA SANTOS OLIVEIRA ANALISTA DO MP BELO HORIZONTE - COMARCA; COORD DE GABINETE DO PGJ 22.191,68 6.657,50 0,00 0,00 0,00 0,00 0,00 2.105,00 30.954,18 4.396,82 5.787,30 0,00 0,00 10.184,12 20.770,06 31/05/2023
273 349500 ANDREA DE OLIVEIRA LOIOLA REGIS OFICIAL DO MP IGUATAMA - COMARCA; IGUATAMA-PJ-UNPJ 12.343,61 3.703,08 0,00 0,00 0,00 0,00 0,00 2.105,00 18.151,69 2.348,42 2.777,79 0,00 0,00 5.126,21 13.025,48 31/05/2023
274 287900 ANDREA FERNANDES PENA MARTINS OFICIAL DO MP MONTES CLAROS - COMARCA; MONTES CLAROS-PJ-09PJ 12.343,61 3.703,08 0,00 0,00 0,00 0,00 0,00 2.105,00 18.151,69 2.348,42 2.777,79 0,00 0,00 5.126,21 13.025,48 31/05/2023
275 300800 ANDREA FERREIRA ANALISTA DO MP LAVRAS - COMARCA; LAVRAS-PJ-04PJ 21.346,53 6.403,96 0,00 0,00 0,00 0,00 508,76 7.655,10 35.914,35 4.221,03 5.585,64 0,00 0,00 9.806,67 26.107,68 31/05/2023
276 395100 ANDREA LANNA MENDES NOVAIS ANALISTA DO MP BELO HORIZONTE - COMARCA; PROMOT ESTADUAL DE DEF PATRI CULT E TUR DE MG 18.720,84 5.616,25 0,00 0,00 0,00 0,00 0,00 2.105,00 26.442,09 3.674,88 4.745,01 0,00 0,00 8.419,89 18.022,20 31/05/2023
277 67300 ANDREA LEAO MAGALHAES ROQUE ASSESSOR ADMINISTRATIVO IV BELO HORIZONTE - COMARCA; GRUPO ATUACAO ESP COMB CRIMES CIBER 0,00 11.590,57 14.488,22 0,00 0,00 0,00 0,00 2.105,00 28.183,79 876,95 6.405,91 0,00 0,00 7.282,86 20.900,93 31/05/2023
278 335700 ANDREA LOPES PEREIRA ANALISTA DO MP GOVERNADOR VALADARES - COMARCA; COORD REG DO MA DA BACIA DO RIO DOCE 22.191,68 6.657,50 0,00 0,00 0,00 0,00 0,00 2.105,00 30.954,18 4.396,82 5.839,44 0,00 0,00 10.236,26 20.717,92 31/05/2023
279 419000 ANDREIA BARBOSA DE ALMEIDA ANALISTA DO MP BELO HORIZONTE - COMARCA; CENT ESTAD COOPERACAO TECNICO-JURIDICA 17.559,01 3.511,80 0,00 0,00 0,00 0,00 0,00 2.105,00 23.175,81 3.152,28 4.042,64 0,00 0,00 7.194,92 15.980,89 31/05/2023
280 281501 ANDREIA CARLA COSTA ANALISTA DO MP UBÁ - COMARCA; UBA-PJ-02PJ 18.130,77 3.626,15 0,00 0,00 0,00 0,00 0,00 2.105,00 23.861,92 3.262,06 4.201,13 0,00 0,00 7.463,19 16.398,73 31/05/2023
281 477100 ANDREIA DE ALMEIDA RIBEIRO MELO OFICIAL DO MP CONTAGEM - COMARCA; CONTAGEM-PJ-SECRETARIA 10.516,49 3.154,95 0,00 0,00 0,00 0,00 0,00 2.105,00 15.776,44 1.968,38 2.333,38 0,00 0,00 4.301,76 11.474,68 31/05/2023
282 619000 ANDREIA FERREIRA NORONHA COORDENADOR II BELO HORIZONTE - COMARCA; DIRETORIA DE SERVICO CRIMINAL 20.533,67 2.053,37 0,00 0,00 0,00 0,00 0,00 2.105,00 24.692,04 1.102,13 5.023,39 0,00 0,00 6.125,52 18.566,52 31/05/2023
283 424000 ANDREIA LUCIA COUTO ANALISTA DO MP BELO HORIZONTE - COMARCA; BH-18PJ DIREITOS HUMANOS-SECRETARIA 18.130,77 3.626,15 0,00 0,00 0,00 0,00 0,00 2.105,00 23.861,92 3.262,06 4.201,13 0,00 0,00 7.463,19 16.398,73 31/05/2023
284 370100 ANDREIA MARIA SILVA PINTO OFICIAL DO MP CORONEL FABRICIANO - COMARCA; CORONEL FABRICIANO-PJ-01PJ 12.343,61 3.703,08 0,00 0,00 0,00 0,00 0,00 3.055,00 19.101,69 982,16 3.081,66 0,00 0,00 4.063,82 15.037,87 31/05/2023
285 382100 ANDREIA NATALI PEREIRA DE OLIVEIRA OFICIAL DO MP PRADOS - COMARCA; PRADOS-PJ-UNPJ 12.343,61 3.703,08 0,00 0,00 0,00 0,00 0,00 2.105,00 18.151,69 2.348,42 2.882,06 0,00 0,00 5.230,48 12.921,21 31/05/2023
286 275200 ANDREIA RIBEIRO FREITAS OFICIAL DO MP VIÇOSA - COMARCA; VICOSA-PJ-04PJ 13.160,57 5.264,23 0,00 0,00 0,00 0,00 0,00 2.105,00 20.529,80 2.728,92 3.379,27 0,00 0,00 6.108,19 14.421,61 31/05/2023
287 352200 ANDREIA XAVIER PEREIRA OFICIAL DO MP CLÁUDIO - COMARCA; CLAUDIO-PJ-UNPJ 12.343,61 3.703,08 0,00 0,00 0,00 0,00 0,00 3.530,00 19.576,69 2.348,42 2.882,06 0,00 0,00 5.230,48 14.346,21 31/05/2023
288 638500 ANDRESA ALVES FEITOSA CASAGRANDE ANALISTA DO MP LAVRAS - COMARCA; COORD REG DO MA DA BACIA DO RIO GRANDE 11.212,54 1.121,25 0,00 0,00 0,00 0,00 0,00 2.105,00 14.438,79 982,16 2.236,74 0,00 0,00 3.218,90 11.219,89 31/05/2023
289 383700 ANDRESSA EDUARDO SOUZA ANALISTA DO MP OURO BRANCO - COMARCA; OURO BRANCO-PJ-SECRETARIA 18.720,84 5.616,25 0,00 0,00 0,00 0,00 0,00 2.105,00 26.442,09 3.674,88 4.797,15 0,00 0,00 8.472,03 17.970,06 31/05/2023
290 678400 ANDRESSA LUIZA SILVA LOPES ASSESSOR PROMOTOR JUSTICA CARMO DO PARANAÍBA - COMARCA; CARMO DO PARANAIBA-PJ-02PJ 0,00 0,00 8.810,89 0,00 0,00 0,00 0,00 2.105,00 10.915,89 876,95 1.709,37 0,00 0,00 2.586,32 8.329,57 31/05/2023
291 426200 ANDRESSA MENDES CASAL OFICIAL DO MP BELO HORIZONTE - COMARCA; DIR ESTRUTURA E PROCESSOS ORGANIZACIONAIS 9.699,77 1.939,95 0,00 0,00 0,00 0,00 0,00 3.055,00 14.694,72 1.643,30 1.811,92 0,00 0,00 3.455,22 11.239,50 31/05/2023
292 390100 ANDRESSA RIBEIRO PUCCI OFICIAL DO MP UBERABA - COMARCA; UBERABA-PJ-14PJ 9.393,95 1.878,79 0,00 0,00 0,00 0,00 0,00 2.105,00 13.377,74 1.584,59 1.779,28 0,00 0,00 3.363,87 10.013,87 31/05/2023
293 462500 ANDREZA APARECIDA COSTA E SILVA ANALISTA DO MP CONSELHEIRO LAFAIETE - COMARCA; CONSELHEIRO LAFAIETE-PJ-02PJ 12.343,61 2.468,72 0,00 0,00 4.937,44 0,00 0,00 4.005,00 23.754,77 982,16 4.125,47 0,00 0,00 5.107,63 18.647,14 31/05/2023
294 677700 ANDREZA DE LOURDES FERREIRA DE PAIVA ASSESSOR PROMOTOR JUSTICA ABRE CAMPO - COMARCA; ABRE CAMPO-PJ-01PJ 0,00 0,00 8.810,89 0,00 0,00 0,00 0,00 2.105,00 10.915,89 876,95 1.709,37 0,00 0,00 2.586,32 8.329,57 31/05/2023
295 537800 ANDREZZA LUZIA DE OLIVEIRA ALVES ANALISTA DO MP PATOS DE MINAS - COMARCA; COORD REG PJ DEF EDU DIR CRI ADO AL PAR NOROE 12.343,61 2.468,72 0,00 0,00 0,00 0,00 0,00 2.105,00 16.917,33 2.150,92 2.544,79 0,00 0,00 4.695,71 12.221,62 31/05/2023
296 491600 ANE PATRICIA RIBEIRO DUARTE ANALISTA DO MP SETE LAGOAS - COMARCA; SETE LAGOAS-PJ-11PJ 12.343,61 2.468,72 0,00 0,00 0,00 0,00 0,00 2.105,00 16.917,33 2.150,92 2.544,79 0,00 0,00 4.695,71 12.221,62 31/05/2023
297 465800 ANELISE GAMA ASSESSOR ADMINISTRATIVO III BELO HORIZONTE - COMARCA; BH-18PJ VIOLENCIA DOMESTICA-SECRETARIA 0,00 0,00 10.858,90 0,00 0,00 0,00 0,00 2.105,00 12.963,90 876,95 2.272,58 0,00 0,00 3.149,53 9.814,37 31/05/2023
298 535200 ANELIZE FERNANDA ALVES VILARINHO OFICIAL DO MP CAPINÓPOLIS - COMARCA; CAPINOPOLIS-PJ-UNPJ 7.506,70 1.501,34 0,00 0,00 0,00 0,00 0,00 3.055,00 12.063,04 1.222,23 1.256,14 0,00 0,00 2.478,37 9.584,67 31/05/2023
299 197200 ANGELA COELHO SALDANHA OFICIAL DO MP PARÁ DE MINAS - COMARCA; PARA DE MINAS-PJ-03PJ 21.346,53 8.538,61 0,00 0,00 0,00 0,00 0,00 2.105,00 31.990,14 4.562,57 6.078,75 0,00 0,00 10.641,32 21.348,82 31/05/2023
300 307400 ANGELA CRISTINA GONCALVES MUNIZ ANALISTA DO MP UBERLÂNDIA - COMARCA; UBERLANDIA-PJ-SEC FAMILIA 23.070,31 9.228,12 0,00 0,00 0,00 0,00 0,00 2.105,00 34.403,43 4.948,70 6.531,94 0,00 0,00 11.480,64 22.922,79 31/05/2023
301 191800 ANGELA MARIA DE OLIVEIRA OFICIAL DO MP GUARANÉSIA - COMARCA; GUARANESIA-PJ-SECRETARIA 21.346,53 17.077,22 0,00 0,00 0,00 5.795,34 477,24 7.311,24 52.007,57 5.795,34 9.452,28 833,79 0,00 16.081,41 35.926,16 31/05/2023
302 497400 ANGELA MARIA HENRIQUES ANALISTA DO MP BELO HORIZONTE - COMARCA; COORD REG BACIAS RIO VELHAS E PARAOPEBA 12.343,61 2.468,72 0,00 0,00 0,00 0,00 0,00 2.105,00 16.917,33 2.150,92 2.596,93 0,00 0,00 4.747,85 12.169,48 31/05/2023
303 260700 ANGELICA CRISTINA AZEVEDO MOREIRA MOUCO OFICIAL DO MP UBÁ - COMARCA; UBA-PJ-05PJ 17.559,01 7.023,60 0,00 0,00 0,00 0,00 0,00 2.105,00 26.687,61 3.714,17 4.853,86 0,00 0,00 8.568,03 18.119,58 31/05/2023
304 708300 ANGELICA NUNES VIEIRA DA SILVA ASSESSOR PROMOTOR JUSTICA IBIRITÉ - COMARCA; IBIRITE-PJ-02PJ 0,00 0,00 8.810,89 0,00 0,00 0,00 0,00 2.105,00 10.915,89 876,95 1.709,37 0,00 0,00 2.586,32 8.329,57 31/05/2023
305 334600 ANGELICA PANISSA DE FREITAS GALLATI OFICIAL DO MP GUAXUPÉ - COMARCA; GUAXUPE-PJ-02PJ 12.343,61 4.937,44 0,00 0,00 0,00 0,00 0,00 3.055,00 20.336,05 2.545,92 3.115,06 0,00 0,00 5.660,98 14.675,07 31/05/2023
306 521100 ANGELICA SALES MOREIRA OFICIAL DO MP BELO HORIZONTE - COMARCA; BH-02PJ FAMILIA-SECRETARIA 9.699,77 1.939,95 0,00 0,00 0,00 0,00 0,00 2.105,00 13.744,72 1.643,30 1.864,06 0,00 0,00 3.507,36 10.237,36 31/05/2023
307 466500 ANGELLO MARQUES AGRELLI ANALISTA DO MP MAR DE ESPANHA - COMARCA; MAR DE ESPANHA-PJ-UNPJ 12.343,61 2.468,72 0,00 0,00 0,00 0,00 0,00 2.105,00 16.917,33 2.150,92 2.596,93 0,00 0,00 4.747,85 12.169,48 31/05/2023
308 363300 ANGELO VERDOLIN HENRIQUES ANALISTA DO MP SETE LAGOAS - COMARCA; SETE LAGOAS-PJ-04PJ 21.346,53 8.538,61 0,00 0,00 0,00 0,00 547,89 8.082,03 38.515,06 4.562,57 6.078,75 0,00 0,00 10.641,32 27.873,74 31/05/2023
309 250900 ANISIO APARECIDO SANTOS OFICIAL DO MP BETIM - COMARCA; BETIM - SECRETARIA DAS PJS CRIMINAIS 7.506,70 3.002,68 0,00 0,00 0,00 0,00 0,00 2.105,00 12.614,38 1.462,45 932,38 0,00 0,00 2.394,83 10.219,55 31/05/2023
310 698100 ANNA CAROLINA POLICARIO BERTOLIN ASSESSOR PROCURADOR JUSTICA BELO HORIZONTE - COMARCA; PROC. JUSTICA DIR. DIFUSOS E COLETIVOS-SEC 0,00 0,00 8.810,89 0,00 0,00 0,00 0,00 2.105,00 10.915,89 876,95 1.709,37 0,00 0,00 2.586,32 8.329,57 31/05/2023
311 253400 ANNA FLAVIA LEHMAN ANALISTA DO MP BELO HORIZONTE - COMARCA; SUPRIN DE PLANEJAMENTO E COORDENACAO 23.070,31 9.228,12 8.404,02 0,00 0,00 0,00 551,32 8.119,39 49.373,16 4.948,70 7.934,97 3.112,49 0,00 15.996,16 33.377,00 31/05/2023
312 688800 ANNA LUIZA MATTOS DUARTE ASSESSOR PROCURADOR JUSTICA BELO HORIZONTE - COMARCA; GABINETE DE PROCURADOR DE JUSTICA - SALA 311 0,00 0,00 8.810,89 0,00 0,00 0,00 0,00 2.105,00 10.915,89 876,95 1.709,37 0,00 0,00 2.586,32 8.329,57 31/05/2023
313 447600 ANNGELUCE ALCANTARA DE CAMPOS OFICIAL DO MP DIVINÓPOLIS - COMARCA; DIVINOPOLIS-PJ-07PJ 10.341,72 3.102,52 0,00 0,00 0,00 0,00 0,00 2.105,00 15.549,24 1.932,03 2.280,90 0,00 0,00 4.212,93 11.336,31 31/05/2023
314 119600 ANSELMO BORGES PARREIRAS OFICIAL DO MP BONFIM - COMARCA; BONFIM-PJ-UNPJ 10.858,90 9.773,01 0,00 0,00 0,00 3.082,05 0,00 2.105,00 25.818,96 3.082,05 4.736,68 0,00 0,00 7.818,73 18.000,23 31/05/2023
315 630300 ANTONIA GOMES RAMALHO OFICIAL DO MP NOVO CRUZEIRO - COMARCA; NOVO CRUZEIRO-PJ-UNPJ 7.506,70 750,67 0,00 0,00 0,00 0,00 0,00 4.005,00 12.262,37 1.102,13 1.082,73 0,00 0,00 2.184,86 10.077,51 31/05/2023
316 401600 ANTONIO CARLOS GUEDES AROUCA ANALISTA DO MP BELO HORIZONTE - COMARCA; ASSESSORIA JURIDICO-ADMINISTRATIVA 16.469,17 3.293,83 0,00 0,00 0,00 0,00 0,00 2.105,00 21.868,00 2.943,03 3.740,53 0,00 0,00 6.683,56 15.184,44 31/05/2023
317 333900 ANTONIO GONCALVES DE SOUZA FILHO OFICIAL DO MP BELO HORIZONTE - COMARCA; DIRETORIA DE CONTABILIDADE 12.343,61 3.703,08 0,00 0,00 0,00 0,00 0,00 2.105,00 18.151,69 2.348,42 2.882,06 0,00 0,00 5.230,48 12.921,21 31/05/2023
318 176100 ANTONIO MARCELO CAMPOS CAMPANELLA OFICIAL DO MP BELO HORIZONTE - COMARCA; COORD DE GABINETE DO PGJ 21.346,53 10.673,27 0,00 0,00 0,00 0,00 469,62 7.228,17 39.717,59 4.904,12 6.571,85 0,00 0,00 11.475,97 28.241,62 31/05/2023
319 321001 ANTONIO OLINTO VIEIRA MACHADO ANALISTA DO MP BELO HORIZONTE - COMARCA; CENTRAL DE APOIO TECN-SETOR DE MEIO AMBIENTE 18.720,84 5.616,25 0,00 0,00 0,00 3.674,88 0,00 2.105,00 30.116,97 3.674,88 5.703,47 0,00 0,00 9.378,35 20.738,62 31/05/2023
320 356200 ANTONIO PAULA DA SILVA OFICIAL DO MP JUIZ DE FORA - COMARCA; JUIZ DE FORA-PJ-20PJ 11.954,43 4.781,77 0,00 0,00 0,00 0,00 0,00 2.105,00 18.841,20 2.458,74 3.041,34 0,00 0,00 5.500,08 13.341,12 31/05/2023
321 119900 ANTONIO RODRIGUES DE PINHO OFICIAL DO MP GUANHÃES - COMARCA; GUANHAES-PJ-01PJ 20.533,67 16.426,94 0,00 0,00 0,00 0,00 542,09 8.018,70 45.521,40 5.694,65 7.661,04 0,00 0,00 13.355,69 32.165,71 31/05/2023
322 373300 ANTONIO SERGIO ANANIAS OFICIAL DO MP SÃO JOÃO NEPOMUCENO - COMARCA; SAO JOAO NEPOMUCENO-PJ-01PJ 11.212,54 3.363,76 0,00 0,00 0,00 0,00 0,00 2.105,00 16.681,30 982,16 2.801,29 0,00 0,00 3.783,45 12.897,85 31/05/2023
323 608100 ANTONIO SIDINEY VIEIRA LEMOS ANALISTA DO MP PIRAPORA - COMARCA; PIRAPORA-PJ-01PJ 11.577,56 5.788,78 0,00 0,00 0,00 0,00 0,00 3.055,00 20.421,34 2.559,56 3.134,77 0,00 0,00 5.694,33 14.727,01 31/05/2023
324 374700 ANTONIO SILVA NETO OFICIAL DO MP BELO HORIZONTE - COMARCA; GAECO - SECRETARIA 12.343,61 3.703,08 0,00 0,00 0,00 0,00 0,00 3.055,00 19.101,69 2.348,42 2.882,06 0,00 0,00 5.230,48 13.871,21 31/05/2023
325 636700 ANTONIUS VITORIANO FERNANDES OFICIAL DO MP BELO HORIZONTE - COMARCA; ASSESSORIA JURIDICA DO PROCON-MG 6.603,76 660,38 0,00 0,00 0,00 0,00 0,00 2.105,00 9.369,14 944,43 852,96 0,00 0,00 1.797,39 7.571,75 31/05/2023
326 413200 ANY PEREIRA SILVA ANALISTA DO MP TRÊS PONTAS - COMARCA; TRES PONTAS-PJ-01PJ 17.559,01 3.511,80 0,00 0,00 0,00 0,00 0,00 2.105,00 23.175,81 3.152,28 4.042,64 0,00 0,00 7.194,92 15.980,89 31/05/2023
327 151401 APARECIDA DE FATIMA MENDES DE ALMEIDA ASSESSOR ADMINISTRATIVO II JUIZ DE FORA - COMARCA; JUIZ DE FORA-PJ-SECRETARIA 0,00 0,00 7.506,70 0,00 0,00 0,00 0,00 2.105,00 9.611,70 876,95 1.350,72 0,00 0,00 2.227,67 7.384,03 31/05/2023
328 329300 APARECIDA MARIA MELO DE ASSIS OFICIAL DO MP BELO HORIZONTE - COMARCA; BH-18PJ DIREITOS HUMANOS-SECRETARIA 12.343,61 3.703,08 0,00 0,00 0,00 0,00 0,00 2.105,00 18.151,69 2.348,42 2.882,06 0,00 0,00 5.230,48 12.921,21 31/05/2023
329 653000 APARECIDA ROSA DE LIMA ASSESSOR ADMINISTRATIVO III BELO HORIZONTE - COMARCA; SECRETARIA PROCESSOS DISCIPES ADMINISTRATIVOS 0,00 0,00 10.858,90 0,00 0,00 0,00 0,00 2.105,00 12.963,90 876,95 2.272,58 0,00 0,00 3.149,53 9.814,37 31/05/2023
330 354500 APARECIDA VIEIRA DE CARVALHO OFICIAL DO MP BELO HORIZONTE - COMARCA; DIVISÃO DE EDUCAÇÃO PARA O CONSUMO 10.516,49 3.154,95 0,00 0,00 0,00 0,00 0,00 2.105,00 15.776,44 1.968,38 2.333,38 0,00 0,00 4.301,76 11.474,68 31/05/2023
331 551000 ARACELES BICALHO FELIX ANALISTA DO MP MANHUAÇU - COMARCA; MANHUACU-PJ-SECRETARIA 12.343,61 1.234,36 0,00 0,00 0,00 0,00 0,00 4.005,00 17.582,97 1.953,42 2.311,79 0,00 0,00 4.265,21 13.317,76 31/05/2023
332 286200 ARACELI MEDRADO DOS SANTOS LIMA OFICIAL DO MP PARACATU - COMARCA; PARACATU-PJ-03PJ 7.506,70 2.252,01 0,00 0,00 0,00 0,00 0,00 3.055,00 12.813,71 1.342,34 1.429,54 0,00 0,00 2.771,88 10.041,83 31/05/2023
333 112200 ARAQUEM AUGUSTO DE MATOS AGENTE DO MP BELO HORIZONTE - COMARCA; BH-23PJ CIVEL-SEC EXP CIVEIS 13.160,57 11.844,52 0,00 0,00 0,00 3.781,76 0,00 2.105,00 30.891,85 3.781,76 5.887,17 0,00 0,00 9.668,93 21.222,92 31/05/2023
334 280600 ARDUINO FRATTEZI ANALISTA DO MP BELO HORIZONTE - COMARCA; CENTRAL DE APOIO TECNICO-SETOR CONTABIL 23.070,31 6.921,09 0,00 0,00 0,00 0,00 549,84 8.103,28 38.644,52 4.579,57 6.103,29 0,00 0,00 10.682,86 27.961,66 31/05/2023
335 520201 ARIANE DE FATIMA CARVALHO ALMEIDA RODRIGUES ANALISTA DO MP VESPASIANO - COMARCA; VESPASIANO-PJ-SECRETARIA 11.577,56 1.157,76 0,00 0,00 0,00 0,00 0,00 3.530,00 16.265,32 1.818,60 1.960,73 0,00 0,00 3.779,33 12.485,99 31/05/2023
336 537600 ARIELA FREIRE MONTIJO ANALISTA DO MP ARCOS - COMARCA; ARCOS-PJ-01PJ 12.343,61 2.468,72 0,00 0,00 0,00 0,00 0,00 2.105,00 16.917,33 2.150,92 2.492,65 0,00 0,00 4.643,57 12.273,76 31/05/2023
337 182000 ARILSON ALEXANDRE MARTINS MAGALHAES OFICIAL DO MP JOÃO MONLEVADE - COMARCA; JOAO MONLEVADE-PJ-01PJ 20.533,67 10.266,84 0,00 0,00 0,00 0,00 564,68 12.065,10 43.430,29 4.709,03 6.029,51 0,00 0,00 10.738,54 32.691,75 31/05/2023
338 511000 ARISLANE CAROLINA DA SILVA ANALISTA DO MP MONTE CARMELO - COMARCA; MONTE CARMELO-PJ-02PJ 12.343,61 2.468,72 0,00 0,00 0,00 0,00 54,31 3.647,49 18.514,13 2.150,92 2.596,93 0,00 0,00 4.747,85 13.766,28 31/05/2023
339 170000 ARLEY BRITES DA SILVA ASSESSOR ADMINISTRATIVO II BELO HORIZONTE - COMARCA; BH-14PJ DEFESA CONSUMIDOR-SECRETARIA 0,00 3.002,68 7.506,70 0,00 0,00 0,00 0,00 2.105,00 12.614,38 876,95 1.470,87 0,00 0,00 2.347,82 10.266,56 31/05/2023
340 120400 ARLINDO CASSIO DA CRUZ OFICIAL DO MP SÃO GONÇALO DO SAPUCAÍ - COMARCA; SAO GONCALO DO SAPUCAI-PJ-01PJ 23.070,31 20.763,28 0,00 0,00 0,00 5.795,34 477,24 7.311,23 57.417,40 5.795,34 9.348,00 6.243,63 0,00 21.386,97 36.030,43 31/05/2023
341 243700 ARLINDO MARCIO LACERDA OFICIAL DO MP CONTAGEM - COMARCA; CONTAGEM-PJ-SECRETARIA 17.559,01 8.779,51 0,00 0,00 0,00 0,00 1.771,66 2.105,00 30.215,18 3.995,11 5.746,68 0,00 0,00 9.741,79 20.473,39 31/05/2023
342 392100 ARNALDO DE ANDRADE OFICIAL DO MP DIVINÓPOLIS - COMARCA; DIVINOPOLIS-PJ-02PJ 12.343,61 3.703,08 0,00 0,00 0,00 0,00 1.771,66 2.105,00 19.923,35 2.348,42 3.317,13 0,00 0,00 5.665,55 14.257,80 31/05/2023
343 642400 ARTANE INARDE DE SIQUEIRA DAMASCENO ANALISTA DO MP BELO HORIZONTE - COMARCA; SECRETARIA DE ASSUNTOS INTERNACIONAIS 10.015,59 1.001,56 0,00 0,00 0,00 0,00 0,00 2.105,00 13.122,15 982,16 1.802,28 0,00 0,00 2.784,44 10.337,71 31/05/2023
344 733000 ARTHUR BRANDAO ALBUQUERQUE ASSESSOR ADMINISTRATIVO II BELO HORIZONTE - COMARCA; DIRETORIA DE PAGAMENTO DE PESSOAL-DPAG 0,00 0,00 7.506,70 0,00 0,00 0,00 0,00 2.105,00 9.611,70 876,95 1.350,72 0,00 0,00 2.227,67 7.384,03 31/05/2023
345 712100 ARTUR FONTE BOA TEOFILO ASSESSOR ADMINISTRATIVO I BELO HORIZONTE - COMARCA; DIRET DE ESTAGIOS E CONVENIOS ACADEMICOS 0,00 0,00 4.872,71 0,00 0,00 0,00 0,00 2.105,00 6.977,71 718,08 670,06 0,00 0,00 1.388,14 5.589,57 31/05/2023
346 302100 AUGUSTO ROUSSEAU DE CASTRO ANALISTA DO MP CATAGUASES - COMARCA; CATAGUASES-PJ-02PJ 23.070,31 6.921,09 0,00 0,00 0,00 0,00 549,84 8.103,28 38.644,52 4.579,57 6.103,29 0,00 0,00 10.682,86 27.961,66 31/05/2023
347 540200 AUREA AVELAR BITTENCOURT OFICIAL DO MP BELO HORIZONTE - COMARCA; GRUPO ESP PROM JUST DEF PROB ADM PAT PUB 7.506,70 1.501,34 0,00 0,00 0,00 0,00 0,00 2.105,00 11.113,04 982,16 1.239,07 0,00 0,00 2.221,23 8.891,81 31/05/2023
348 633501 AUREA GONTIJO BIRCHAL ASSESSOR DE GABINETE I BELO HORIZONTE - COMARCA; PROCURADOR-GERAL DE JUSTIÇA 0,00 0,00 18.130,77 0,00 0,00 0,00 531,84 7.906,85 26.569,46 876,95 4.272,34 0,00 0,00 5.149,29 21.420,17 31/05/2023
349 183200 AURELIANO MAGELA DE REZENDE OFICIAL DO MP BELO HORIZONTE - COMARCA; COORD DE GABINETE DO PGJ 20.533,67 8.213,47 6.160,10 0,00 0,00 0,00 511,97 7.690,16 43.109,37 4.380,49 7.509,90 0,00 0,00 11.890,39 31.218,98 31/05/2023
350 629400 AYESKA DA COSTA VAL MOURA DABIEN OFICIAL DO MP BELO HORIZONTE - COMARCA; BH-09PJ AUDITORIA MILITAR-SECRETARIA 6.818,83 681,88 0,00 0,00 0,00 0,00 0,00 2.105,00 9.605,71 981,10 907,93 0,00 0,00 1.889,03 7.716,68 31/05/2023
351 707400 AYMEE JOHANSSENN TYNEE CORREIA ALVES ASSESSOR PROMOTOR JUSTICA NOVA LIMA - COMARCA; NOVA LIMA-PJ-01PJ 0,00 0,00 8.810,89 0,00 0,00 0,00 0,00 2.105,00 10.915,89 876,95 1.709,37 0,00 0,00 2.586,32 8.329,57 31/05/2023
352 701600 BARBARA CHAVES OLIVEIRA ASSESSOR PROCURADOR JUSTICA BELO HORIZONTE - COMARCA; PROC. JUSTICA DIR. DIFUSOS E COLETIVOS-SEC 0,00 0,00 8.810,89 0,00 0,00 0,00 0,00 2.105,00 10.915,89 876,95 1.709,37 0,00 0,00 2.586,32 8.329,57 31/05/2023
353 691900 BARBARA COUTINHO REIS ASSESSOR PROCURADOR JUSTICA BELO HORIZONTE - COMARCA; GABINETE DE PROCURADOR DE JUSTIÇA - SALA 910 0,00 0,00 8.810,89 0,00 0,00 0,00 0,00 2.105,00 10.915,89 876,95 1.709,37 0,00 0,00 2.586,32 8.329,57 31/05/2023
354 692200 BARBARA CRISTINA MENDES BANDEIRA DE MELO DUTRA ASSESSOR PROCURADOR JUSTICA BELO HORIZONTE - COMARCA; GABINETE DE PROCURADOR DE JUSTIÇA - SALA 1009 0,00 0,00 8.810,89 0,00 0,00 0,00 0,00 2.105,00 10.915,89 876,95 1.709,37 0,00 0,00 2.586,32 8.329,57 31/05/2023
355 723400 BARBARA CRISTINA TAVARES CARNEIRO ASSESSOR PROCURADOR JUSTICA BELO HORIZONTE - COMARCA; GABINETE DE PROCURADOR DE JUSTIÇA - SALA 502 0,00 0,00 8.810,89 0,00 2.936,96 0,00 0,00 2.105,00 13.852,85 876,95 2.517,04 0,00 0,00 3.393,99 10.458,86 31/05/2023
356 652800 BARBARA JULIANNE MOREIRA CASTRO ASSESSOR PROCURADOR JUSTICA BELO HORIZONTE - COMARCA; ASSESS TECNICO-JUR JUNTO AS PROC. DE JUST 0,00 0,00 8.810,89 0,00 0,00 0,00 0,00 2.105,00 10.915,89 876,95 1.709,37 0,00 0,00 2.586,32 8.329,57 31/05/2023
357 707700 BARBARA LOUISE PUFF DE OLIVEIRA ASSESSOR PROMOTOR JUSTICA RIBEIRÃO DAS NEVES - COMARCA; RIBEIRAO DAS NEVES-PJ-02PJ 0,00 0,00 8.810,89 0,00 0,00 0,00 0,00 2.105,00 10.915,89 876,95 1.709,37 0,00 0,00 2.586,32 8.329,57 31/05/2023
358 663600 BARBARA REGINA PEREIRA DE PINHO MAGALHAES ASSESSOR PROMOTOR JUSTICA BELO HORIZONTE - COMARCA; CAO-DH CONT EXT ATIV POLIC E AP COMUNIT 0,00 0,00 8.810,89 0,00 0,00 0,00 0,00 2.105,00 10.915,89 876,95 1.709,37 0,00 0,00 2.586,32 8.329,57 31/05/2023
359 546500 BARBARA ZACARONI GOULART OFICIAL DO MP BETIM - COMARCA; BETIM-PJ-08PJ 7.506,70 1.501,34 0,00 0,00 0,00 0,00 750,67 2.105,00 11.863,71 1.342,34 1.429,54 0,00 0,00 2.771,88 9.091,83 31/05/2023
360 316500 BEATRIZ ABILVIA DA SILVA ANALISTA DO MP GOVERNADOR VALADARES - COMARCA; GOVERNADOR VALADARES-PJ-07PJ 22.191,68 6.657,50 0,00 0,00 0,00 4.396,82 487,61 7.424,36 41.157,97 4.396,82 7.048,56 0,00 0,00 11.445,38 29.712,59 31/05/2023
361 311800 BEATRIZ APARECIDA SOARES GANEM OFICIAL DO MP ITAMBACURI - COMARCA; ITAMBACURI-PJ-02PJ 13.588,97 5.435,59 0,00 0,00 0,00 0,00 0,00 2.105,00 21.129,56 2.824,88 3.413,54 0,00 0,00 6.238,42 14.891,14 31/05/2023
362 266800 BEATRIZ AUGUSTA VILACA GOMES DE HUBER OFICIAL DO MP BELO HORIZONTE - COMARCA; BH-05PJ-JUÍZO SUCESSÕES-SEC 12.343,61 3.703,08 0,00 0,00 0,00 0,00 0,00 2.105,00 18.151,69 2.348,42 2.882,06 0,00 0,00 5.230,48 12.921,21 31/05/2023
363 235200 BEATRIZ BOTELHO BATISTA OFICIAL DO MP MATEUS LEME - COMARCA; MATEUS LEME-PJ-02PJ 12.343,61 4.937,44 0,00 0,00 0,00 0,00 0,00 2.105,00 19.386,05 2.545,92 3.167,20 0,00 0,00 5.713,12 13.672,93 31/05/2023
364 182300 BEATRIZ PAULA SOUSA RAMOS OFICIAL DO MP MARIANA - COMARCA; MARIANA-PJ-01PJ 20.533,67 10.266,84 0,00 0,00 0,00 0,00 564,68 8.265,10 39.630,29 4.709,03 6.290,20 0,00 0,00 10.999,23 28.631,06 31/05/2023
365 507000 BELCHIOR FRANKLIN AMARAL LEITE ANALISTA DO MP BELO HORIZONTE - COMARCA; CAO ORGAOS MPMG DESIG FUNC ELEITORAIS-SEC 13.588,97 2.717,79 0,00 0,00 0,00 0,00 0,00 2.105,00 18.411,76 2.390,03 2.785,73 0,00 0,00 5.175,76 13.236,00 31/05/2023
366 345100 BENITO ELIAS RODRIGUES ANALISTA DO MP BARBACENA - COMARCA; BARBACENA - SECRETARIA DAS PJS CRIMINAIS 21.346,53 6.403,96 0,00 0,00 0,00 0,00 203,50 5.275,04 33.229,03 4.221,03 5.533,50 0,00 0,00 9.754,53 23.474,50 31/05/2023
367 207300 BENITO VIEIRA DOS SANTOS ANALISTA DO MP BELO HORIZONTE - COMARCA; PROC JUST ESP ACOES COMP ORIG CRIMINAL-ASSESS 23.070,31 11.535,16 0,00 0,00 0,00 5.317,82 439,16 6.895,80 47.258,25 5.317,82 7.092,97 0,00 0,00 12.410,79 34.847,46 31/05/2023
368 480200 BERNADETE NUNES DOS SANTOS ANALISTA DO MP GUANHÃES - COMARCA; GUANHAES-PJ-02PJ 12.343,61 4.937,44 0,00 0,00 0,00 0,00 0,00 2.105,00 19.386,05 2.545,92 3.167,20 0,00 0,00 5.713,12 13.672,93 31/05/2023
369 378400 BETANIA FARNESI DE SOUZA E SILVA OFICIAL DO MP CURVELO - COMARCA; CURVELO-PJ-01PJ 12.343,61 4.937,44 0,00 0,00 0,00 0,00 0,00 2.105,00 19.386,05 2.545,92 3.115,06 0,00 0,00 5.660,98 13.725,07 31/05/2023
370 387400 BETANIA MENDONCA DE ASSIS CARVALHO ANALISTA DO MP JUIZ DE FORA - COMARCA; JUIZ DE FORA-PJ-03PJ 18.720,84 5.616,25 0,00 0,00 0,00 0,00 0,00 3.055,00 27.392,09 3.674,88 4.745,01 0,00 0,00 8.419,89 18.972,20 31/05/2023
371 714400 BIANCA DE CASTRO RAMOS ASSESSOR PROMOTOR JUSTICA BETIM - COMARCA; BETIM-PJ-13PJ 0,00 0,00 8.810,89 0,00 0,00 0,00 0,00 2.105,00 10.915,89 876,95 1.709,37 0,00 0,00 2.586,32 8.329,57 31/05/2023
372 450300 BIANCA OLIVEIRA DE ALBUQUERQUE ANALISTA DO MP BELO HORIZONTE - COMARCA; BH-10PJ EXECUÇÃO PENAL-SECRETARIA 12.343,61 2.468,72 0,00 0,00 0,00 0,00 0,00 3.055,00 17.867,33 2.150,92 2.596,93 0,00 0,00 4.747,85 13.119,48 31/05/2023
373 535400 BIANCA SALOTO ROSSI ANALISTA DO MP SANTOS DUMONT - COMARCA; SANTOS DUMONT-PJ-01PJ 12.343,61 2.468,72 0,00 0,00 0,00 0,00 0,00 3.055,00 17.867,33 2.150,92 2.596,93 0,00 0,00 4.747,85 13.119,48 31/05/2023
374 120800 BRAS MARQUES DE SOUZA ANALISTA DO MP BELO HORIZONTE - COMARCA; SUPERINTENDENCIA DE GESTAO ADMINISTRATIVA 29.122,38 26.210,14 0,00 0,00 0,00 5.795,34 477,24 7.311,23 68.916,33 5.795,34 9.348,00 17.742,56 0,00 32.885,90 36.030,43 31/05/2023
375 724400 BRENDA PIMENTEL DE SOUZA VIANA ASSESSOR PROMOTOR JUSTICA MANHUMIRIM - COMARCA; MANHUMIRIM-PJ-01PJ 0,00 0,00 8.810,89 0,00 0,00 0,00 0,00 2.105,00 10.915,89 876,95 1.709,37 0,00 0,00 2.586,32 8.329,57 31/05/2023
376 710500 BRENNO VINICIUS MAGESTE ROSA ASSESSOR PROMOTOR JUSTICA MANHUAÇU - COMARCA; MANHUACU-PJ-02PJ 0,00 0,00 8.810,89 0,00 0,00 0,00 0,00 2.105,00 10.915,89 876,95 1.709,37 0,00 0,00 2.586,32 8.329,57 31/05/2023
377 460900 BRENO CRISTIANO DE SOUZA REZENDE ANALISTA DO MP ITAÚNA - COMARCA; ITAUNA-PJ-02PJ 12.343,61 2.468,72 0,00 0,00 0,00 0,00 0,00 2.105,00 16.917,33 2.150,92 2.596,93 0,00 0,00 4.747,85 12.169,48 31/05/2023
378 239000 BRENO VENANCIO ROMANINI OFICIAL DO MP BELO HORIZONTE - COMARCA; BH-20PJ ORD ECON TRIBUTARIA-SECRETARIA 12.343,61 4.937,44 0,00 0,00 0,00 0,00 0,00 2.105,00 19.386,05 2.545,92 3.167,20 0,00 0,00 5.713,12 13.672,93 31/05/2023
379 722700 BRUNA DE SA FERREIRA LIMA ASSESSOR PROMOTOR JUSTICA MANGA - COMARCA; MANGA-PJ-01PJ 0,00 0,00 8.810,89 0,00 0,00 0,00 0,00 2.105,00 10.915,89 876,95 1.709,37 0,00 0,00 2.586,32 8.329,57 31/05/2023
380 722100 BRUNA HENRIQUE DE SOUZA ASSESSOR PROMOTOR JUSTICA PIRAPETINGA - COMARCA; PIRAPETINGA-PJ-UNPJ 0,00 0,00 8.810,89 0,00 0,00 0,00 0,00 2.105,00 10.915,89 876,95 1.709,37 0,00 0,00 2.586,32 8.329,57 31/05/2023
381 642300 BRUNA IZABELITA DE FATIMA OLIVEIRA COSTA OFICIAL DO MP BELO HORIZONTE - COMARCA; BH-02PJ FAMILIA-SECRETARIA 7.270,07 727,01 0,00 0,00 0,00 0,00 0,00 2.105,00 10.102,08 1.060,48 1.022,61 0,00 0,00 2.083,09 8.018,99 31/05/2023
382 513600 BRUNA KARLA MARTINS CARVALHO ANALISTA DO MP GOVERNADOR VALADARES - COMARCA; GOVERNADOR VALADARES-PJ-14PJ 12.343,61 2.468,72 0,00 0,00 0,00 0,00 0,00 2.105,00 16.917,33 982,16 2.767,68 0,00 0,00 3.749,84 13.167,49 31/05/2023
383 415100 BRUNA MARIA SOARES OLIVEIRA COSTA RAMOS ANALISTA DO MP UBÁ - COMARCA; COORD REG BACIA DO RIO PARAIBA DO SUL 18.130,77 3.626,15 0,00 0,00 0,00 0,00 0,00 2.105,00 23.861,92 982,16 4.534,20 0,00 0,00 5.516,36 18.345,56 31/05/2023
384 692900 BRUNA MENDES COELHO ASSESSOR PROCURADOR JUSTICA BELO HORIZONTE - COMARCA; GABINETE DE PROCURADOR DE JUSTIÇA - SALA 801 0,00 0,00 8.810,89 0,00 0,00 0,00 0,00 2.105,00 10.915,89 876,95 1.709,37 0,00 0,00 2.586,32 8.329,57 31/05/2023
385 470000 BRUNA MORAES ANALISTA DO MP TOMBOS - COMARCA; TOMBOS-PJ-UNPJ 15.949,86 3.189,97 0,00 0,00 0,00 0,00 0,00 2.105,00 21.244,83 2.843,32 3.440,17 0,00 0,00 6.283,49 14.961,34 31/05/2023
386 614700 BRUNA NATTANY DE LIMA OFICIAL DO MP MANTENA - COMARCA; MANTENA-PJ-01PJ 7.506,70 750,67 0,00 0,00 0,00 0,00 0,00 3.055,00 11.312,37 1.102,13 1.082,73 0,00 0,00 2.184,86 9.127,51 31/05/2023
387 729800 BRUNA PAULA AMARAL CEOLIN ASSESSOR PROMOTOR JUSTICA COMARCA - JUATUBA; JUATUBA-PJ-UNPJ 0,00 0,00 8.810,89 0,00 0,00 0,00 0,00 2.105,00 10.915,89 876,95 1.709,37 0,00 0,00 2.586,32 8.329,57 31/05/2023
388 631800 BRUNA RAPOSO JORGE OFICIAL DO MP JUIZ DE FORA - COMARCA; JUIZ DE FORA-PJ-06PJ 7.506,70 750,67 0,00 0,00 0,00 0,00 0,00 2.105,00 10.362,37 1.102,13 1.082,73 0,00 0,00 2.184,86 8.177,51 31/05/2023
389 707800 BRUNA ROMIE WERDINE ASSESSOR PROMOTOR JUSTICA IBIRITÉ - COMARCA; IBIRITE-PJ-06PJ 0,00 0,00 8.810,89 0,00 0,00 0,00 0,00 2.105,00 10.915,89 876,95 1.709,37 0,00 0,00 2.586,32 8.329,57 31/05/2023
390 697400 BRUNA SILVA SANTOS ASSESSOR PROMOTOR JUSTICA TIMÓTEO - COMARCA; TIMOTEO-PJ-04PJ 0,00 0,00 8.810,89 0,00 0,00 0,00 0,00 2.105,00 10.915,89 876,95 1.709,37 0,00 0,00 2.586,32 8.329,57 31/05/2023
391 699300 BRUNA URSINE TIMO ASSESSOR PROCURADOR JUSTICA BELO HORIZONTE - COMARCA; PROC JUST ESP ACOES COMP ORIG CRIMINAL-ASSESS 0,00 0,00 8.810,89 0,00 0,00 0,00 0,00 2.105,00 10.915,89 876,95 1.709,37 0,00 0,00 2.586,32 8.329,57 31/05/2023
392 463800 BRUNO ALVES TEIXEIRA ANALISTA DO MP UBERLÂNDIA - COMARCA; UBERLANDIA-PJ-04PJ 12.343,61 2.468,72 0,00 0,00 0,00 0,00 0,00 2.105,00 16.917,33 2.150,92 2.596,93 0,00 0,00 4.747,85 12.169,48 31/05/2023
393 538500 BRUNO AUGUSTO DA SILVA OFICIAL DO MP SANTA LUZIA - COMARCA; SANTA LUZIA-PJ-03PJ 7.506,70 1.501,34 0,00 0,00 0,00 0,00 0,00 2.105,00 11.113,04 1.222,23 1.256,14 0,00 0,00 2.478,37 8.634,67 31/05/2023
394 318200 BRUNO BARROS DE SOUZA OFICIAL DO MP BELO HORIZONTE - COMARCA; DIRETORIA GESTAO CONTRATOS CONVENIOS 12.343,61 3.703,08 0,00 0,00 0,00 0,00 0,00 2.105,00 18.151,69 982,16 2.635,76 0,00 0,00 3.617,92 14.533,77 31/05/2023
395 427400 BRUNO CESAR RIBEIRO DE PAIVA ANALISTA DO MP BELO HORIZONTE - COMARCA; DIRETORIA DO COLEGIO E DA CAMARA DE PJ 18.130,77 3.626,15 0,00 0,00 0,00 0,00 0,00 2.105,00 23.861,92 3.262,06 4.201,13 0,00 0,00 7.463,19 16.398,73 31/05/2023
396 380900 BRUNO CIRILO ANTUNES OFICIAL DO MP VARGINHA - COMARCA; VARGINHA-PJ-05PJ 11.954,43 3.586,33 0,00 0,00 0,00 0,00 0,00 2.105,00 17.645,76 2.267,47 2.765,19 0,00 0,00 5.032,66 12.613,10 31/05/2023
397 329000 BRUNO DE MELO REIS ANALISTA DO MP PATROCÍNIO - COMARCA; PATROCINIO-PJ-02PJ 22.191,68 8.876,67 0,00 0,00 0,00 0,00 569,59 10.218,67 41.856,61 4.751,88 6.247,79 0,00 0,00 10.999,67 30.856,94 31/05/2023
398 697800 BRUNO GAZZOLA BEZERRA FALCAO ASSESSOR PROCURADOR JUSTICA BELO HORIZONTE - COMARCA; PROCURADOR-GERAL ADJUNTO JURIDICO- GABINETE 0,00 0,00 8.810,89 0,00 0,00 0,00 0,00 2.105,00 10.915,89 876,95 1.709,37 0,00 0,00 2.586,32 8.329,57 31/05/2023
399 378300 BRUNO HERDY LOPES DE OLIVEIRA ANALISTA DO MP GOVERNADOR VALADARES - COMARCA; GOVERNADOR VALADARES-PJ-03PJ 18.720,84 5.616,25 0,00 0,00 0,00 0,00 0,00 2.105,00 26.442,09 3.674,88 4.797,15 0,00 0,00 8.472,03 17.970,06 31/05/2023
400 529700 BRUNO JOSE BUENO DIAS OFICIAL DO MP SÃO SEBASTIÃO DO PARAÍSO - COMARCA; SAO SEBASTIAO DO PARAISO-PJ-02PJ 7.506,70 1.501,34 0,00 0,00 0,00 0,00 0,00 2.105,00 11.113,04 1.222,23 1.204,00 0,00 0,00 2.426,23 8.686,81 31/05/2023
401 691600 BRUNO JOSE RIBEIRO ASSESSOR PROMOTOR JUSTICA CLÁUDIO - COMARCA; CLAUDIO-PJ-UNPJ 0,00 0,00 8.810,89 0,00 0,00 0,00 0,00 2.105,00 10.915,89 876,95 1.709,37 0,00 0,00 2.586,32 8.329,57 31/05/2023
402 350100 BRUNO LAUD SERRANO DOS REIS OFICIAL DO MP UBÁ - COMARCA; UBA-PJ-02PJ 12.343,61 4.937,44 0,00 0,00 0,00 0,00 0,00 2.105,00 19.386,05 2.545,92 3.115,06 0,00 0,00 5.660,98 13.725,07 31/05/2023
403 728900 BRUNO LIMA PITANGA ASSESSOR PROMOTOR JUSTICA BELO HORIZONTE - COMARCA; NUCLEO DA EXECUCAO PENAL 0,00 0,00 8.810,89 0,00 0,00 0,00 0,00 2.105,00 10.915,89 876,95 1.709,37 0,00 0,00 2.586,32 8.329,57 31/05/2023
404 373800 BRUNO MARTINO DE ALBUQUERQUE ANALISTA DO MP PONTE NOVA - COMARCA; PONTE NOVA-PJ-03PJ 18.720,84 5.616,25 0,00 0,00 0,00 0,00 0,00 2.105,00 26.442,09 3.674,88 4.692,87 0,00 0,00 8.367,75 18.074,34 31/05/2023
405 732900 BRUNO NOGUEIRA GUIMARAES ASSESSOR ADMINISTRATIVO I BELO HORIZONTE - COMARCA; COORD DE INCLUSAO E MOBILIZACAO SOCIAIS 0,00 0,00 4.872,71 0,00 0,00 0,00 0,00 2.105,00 6.977,71 718,08 670,06 0,00 0,00 1.388,14 5.589,57 31/05/2023
406 470400 BRUNO NOVAIS CABRAL ANALISTA DO MP MUTUM - COMARCA; MUTUM-PJ-UNPJ 12.343,61 2.468,72 0,00 0,00 0,00 0,00 0,00 2.105,00 16.917,33 2.150,92 2.596,93 0,00 0,00 4.747,85 12.169,48 31/05/2023
407 648600 BRUNO RIBEIRO E MELO COORDENADOR I BELO HORIZONTE - COMARCA; DIR RELACOES INSTITUCIONAIS 0,00 0,00 16.469,17 0,00 0,00 0,00 677,42 2.105,00 19.251,59 876,95 4.001,69 0,00 0,00 4.878,64 14.372,95 31/05/2023
408 369200 BRUNO ROBERTO DIAS DE OLIVEIRA OFICIAL DO MP BELO HORIZONTE - COMARCA; BH-22PJ PES COM DEF E IDOSOS-SECRETARIA 12.343,61 3.703,08 0,00 0,00 0,00 0,00 0,00 2.105,00 18.151,69 982,16 3.081,66 0,00 0,00 4.063,82 14.087,87 31/05/2023
409 547700 BRUNO ROBERTO SOUZA GONCALVES ANALISTA DO MP PARACATU - COMARCA; PARACATU-PJ-03PJ 12.343,61 2.468,72 0,00 0,00 0,00 0,00 1.234,36 3.055,00 19.101,69 2.348,42 2.882,06 0,00 0,00 5.230,48 13.871,21 31/05/2023
410 546100 BRUNO SA VIEIRA ANALISTA DO MP BARBACENA - COMARCA; BARBACENA-PJ-SECRETARIA 12.343,61 2.468,72 0,00 0,00 0,00 0,00 0,00 3.055,00 17.867,33 2.150,92 2.492,65 0,00 0,00 4.643,57 13.223,76 31/05/2023
411 438200 BRUNO SALES PEREIRA ANALISTA DO MP BELO HORIZONTE - COMARCA; CENTRAL DE APOIO TECNICO-SETOR CONTABIL 15.949,86 3.189,97 0,00 0,00 0,00 0,00 0,00 2.105,00 21.244,83 2.843,32 3.544,44 0,00 0,00 6.387,76 14.857,07 31/05/2023
412 537400 BRUNO SANT'ANA CESAR ANALISTA DO MP BELO HORIZONTE - COMARCA; BH-12PJ JUIZO CRIMINAL-GAB 105PJ 12.343,61 2.468,72 0,00 0,00 0,00 0,00 0,00 2.105,00 16.917,33 2.150,92 2.596,93 0,00 0,00 4.747,85 12.169,48 31/05/2023
413 727700 BYANKA DA SILVA MORAIS ASSESSOR PROCURADOR JUSTICA BELO HORIZONTE - COMARCA; GABINETE DE PROCURADOR DE JUSTIÇA - SALA 805 0,00 0,00 8.810,89 0,00 0,00 0,00 0,00 2.105,00 10.915,89 876,95 1.709,37 0,00 0,00 2.586,32 8.329,57 31/05/2023
414 405800 CAIO FERNANDO RODRIGUES DE OLIVEIRA ANALISTA DO MP BELO HORIZONTE - COMARCA; ASSESSORIA JURIDICO-ADMINISTRATIVA 18.130,77 3.626,15 0,00 0,00 0,00 0,00 0,00 2.105,00 23.861,92 982,16 4.690,95 0,00 0,00 5.673,11 18.188,81 31/05/2023
415 530000 CAIO GUEDES DE OLIVEIRA ANALISTA DO MP DIAMANTINA - COMARCA; DIAMANTINA-PJ-02PJ 12.343,61 2.468,72 0,00 0,00 0,00 0,00 0,00 2.105,00 16.917,33 2.150,92 2.544,79 0,00 0,00 4.695,71 12.221,62 31/05/2023
416 491400 CAIO MIRANDA JUNQUEIRA ANALISTA DO MP BUENO BRANDAO - COMARCA; BUENO BRANDAO-PJ-UNPJ 12.343,61 2.468,72 0,00 0,00 0,00 0,00 0,00 2.105,00 16.917,33 2.150,92 2.492,65 0,00 0,00 4.643,57 12.273,76 31/05/2023
417 415800 CAMILA ALVES DA SILVA ANALISTA DO MP CAETÉ - COMARCA; CAETE-PJ-01PJ 18.130,77 3.626,15 0,00 0,00 0,00 0,00 0,00 2.105,00 23.861,92 3.262,06 4.201,13 0,00 0,00 7.463,19 16.398,73 31/05/2023
418 555800 CAMILA CAROLINE ROCHA CHAVES OFICIAL DO MP SALINAS - COMARCA; SALINAS-PJ-01PJ 7.506,70 750,67 0,00 0,00 0,00 0,00 0,00 2.105,00 10.362,37 1.102,13 1.082,73 0,00 0,00 2.184,86 8.177,51 31/05/2023
419 445200 CAMILA CONDE ROCHA ANALISTA DO MP CONTAGEM - COMARCA; CONTAGEM-PJ-21PJ 13.588,97 2.717,79 0,00 0,00 0,00 0,00 0,00 2.105,00 18.411,76 2.390,03 2.942,14 0,00 0,00 5.332,17 13.079,59 31/05/2023
420 419900 CAMILA CUNNINGHAM PIMENTA DE PADUA ANALISTA DO MP BELO HORIZONTE - COMARCA; ASSESSORIA PSICOSSOCIAL 18.130,77 3.626,15 0,00 0,00 0,00 0,00 0,00 2.105,00 23.861,92 3.262,06 4.201,13 0,00 0,00 7.463,19 16.398,73 31/05/2023
421 714200 CAMILA DE SOUSA CUNHA ASSESSOR PROMOTOR JUSTICA PRADOS - COMARCA; PRADOS-PJ-UNPJ 0,00 0,00 8.810,89 0,00 2.936,96 0,00 549,21 8.096,41 20.393,47 876,95 2.517,04 0,00 0,00 3.393,99 16.999,48 31/05/2023
422 507700 CAMILA ELIZABETH RODRIGUES ANALISTA DO MP BELO HORIZONTE - COMARCA; BH-02PJ FAMILIA-SECRETARIA 14.960,00 2.992,00 0,00 0,00 0,00 0,00 0,00 2.105,00 20.057,00 2.653,27 3.322,19 0,00 0,00 5.975,46 14.081,54 31/05/2023
423 372700 CAMILA FONSECA LIMONGE ANALISTA DO MP BETIM - COMARCA; BETIM-PJ-01PJ 18.720,84 5.616,25 0,00 0,00 0,00 0,00 0,00 2.105,00 26.442,09 3.674,88 4.797,15 0,00 0,00 8.472,03 17.970,06 31/05/2023
424 621300 CAMILA GOLFETO DE SOUSA VALENTE OFICIAL DO MP CARANGOLA - COMARCA; CARANGOLA-PJ-SECRETARIA 7.506,70 750,67 0,00 0,00 0,00 0,00 0,00 3.530,00 11.787,37 1.102,13 978,46 0,00 0,00 2.080,59 9.706,78 31/05/2023
425 409800 CAMILA GONCALVES COSTA RIBEIRO ANALISTA DO MP IPATINGA - COMARCA; GAECO REGIONAL DE IPATINGA 12.343,61 2.468,72 0,00 0,00 0,00 0,00 0,00 3.055,00 17.867,33 2.150,92 2.492,65 0,00 0,00 4.643,57 13.223,76 31/05/2023
426 335000 CAMILA GONTIJO DE PAIVA ANALISTA DO MP BELO HORIZONTE - COMARCA; COORD DE CONTROLE CONSTITUCIONALIDADE 23.070,31 6.921,09 0,00 0,00 0,00 0,00 549,84 8.103,28 38.644,52 4.579,57 6.051,16 0,00 0,00 10.630,73 28.013,79 31/05/2023
427 693400 CAMILA HECKSHER MONTEIRO ASSESSOR PROCURADOR JUSTICA BELO HORIZONTE - COMARCA; GABINETE DE PROCURADOR DE JUSTIÇA - SALA 613 0,00 0,00 8.810,89 0,00 0,00 0,00 0,00 2.105,00 10.915,89 876,95 1.709,37 0,00 0,00 2.586,32 8.329,57 31/05/2023
428 696000 CAMILA IMACULADA OLIVEIRA ASSESSOR PROCURADOR JUSTICA BELO HORIZONTE - COMARCA; GABINETE DE PROCURADOR DE JUSTIÇA - SALA 816 0,00 0,00 8.810,89 0,00 0,00 0,00 0,00 2.105,00 10.915,89 876,95 1.709,37 0,00 0,00 2.586,32 8.329,57 31/05/2023
429 547800 CAMILA MATTARELLI DE ABREU E SILVA ANALISTA DO MP BELO HORIZONTE - COMARCA; CAO-VIOLENCIA DOMESTICA E FAMILIAR 12.343,61 2.468,72 0,00 0,00 0,00 0,00 1.234,36 2.105,00 18.151,69 2.348,42 2.882,06 0,00 0,00 5.230,48 12.921,21 31/05/2023
430 735800 CAMILA REGINA DE OLIVEIRA ASSESSOR ADMINISTRATIVO II BELO HORIZONTE - COMARCA; CENTRO AUTOCOMPOSICAO DE CONFLITOS 0,00 0,00 7.506,70 0,00 0,00 0,00 1.000,89 2.955,73 11.463,32 876,95 1.700,97 0,00 0,00 2.577,92 8.885,40 31/05/2023
431 430000 CANDIDA MARINA COSTA ANALISTA DO MP BELO HORIZONTE - COMARCA; DIRET DE INFORMACAO E CONHECIMENTO-DINC/CEAF 18.130,77 3.626,15 0,00 0,00 0,00 0,00 0,00 2.105,00 23.861,92 3.262,06 4.201,13 0,00 0,00 7.463,19 16.398,73 31/05/2023
432 614300 CARINA CORTIELHA OFICIAL DO MP BELO HORIZONTE - COMARCA; BH-23PJ CIVEL-FISC AC POL PUB I 6.818,83 681,88 0,00 0,00 0,00 0,00 0,00 2.105,00 9.605,71 981,10 907,93 0,00 0,00 1.889,03 7.716,68 31/05/2023
433 380400 CARINA DIAS FACANHA DE SOUZA ANALISTA DO MP SANTA RITA DO SAPUCAÍ - COMARCA; SANTA RITA DO SAPUCAI-PJ-01PJ 18.720,84 5.616,25 0,00 0,00 0,00 0,00 0,00 3.055,00 27.392,09 3.674,88 4.797,15 0,00 0,00 8.472,03 18.920,06 31/05/2023
434 255000 CARLA ADRIANA DE MENEZES OFICIAL DO MP BELO HORIZONTE - COMARCA; CENT DE APOIO TEC-SETOR DEF,IDOSO E INFANC 12.343,61 4.937,44 0,00 0,00 0,00 0,00 0,00 2.105,00 19.386,05 2.545,92 3.167,20 0,00 0,00 5.713,12 13.672,93 31/05/2023
435 425100 CARLA ADRIANA DINIZ AMARAL OFICIAL DO MP CONTAGEM - COMARCA; CONTAGEM-PJ-SECRETARIA 11.212,54 2.242,51 2.918,39 0,00 0,00 0,00 0,00 2.105,00 18.478,44 1.933,76 3.085,95 0,00 0,00 5.019,71 13.458,73 31/05/2023
436 508100 CARLA ALESSANDRA FONSECA ANALISTA DO MP BELO HORIZONTE - COMARCA; CAO-ORDEM ECONOMICA E TRIBUTARIA-SECRETARIA 12.343,61 2.468,72 0,00 0,00 0,00 0,00 0,00 2.105,00 16.917,33 2.150,92 2.596,93 0,00 0,00 4.747,85 12.169,48 31/05/2023
437 607100 CARLA ANGELICA DIAS MIRANDA OFICIAL DO MP SANTA LUZIA - COMARCA; SANTA LUZIA-PJ-SECRETARIA 7.506,70 750,67 0,00 0,00 0,00 0,00 0,00 2.105,00 10.362,37 1.102,13 926,32 0,00 0,00 2.028,45 8.333,92 31/05/2023
438 351500 CARLA APARECIDA MENDES RAMIRIO OFICIAL DO MP PASSOS - COMARCA; PASSOS-PJ-01PJ 12.343,61 3.703,08 0,00 0,00 0,00 0,00 0,00 2.105,00 18.151,69 2.348,42 2.829,93 0,00 0,00 5.178,35 12.973,34 31/05/2023
439 713100 CARLA DOS SANTOS SOUZA ASSESSOR PROMOTOR JUSTICA ESPERA FELIZ - COMARCA; ESPERA FELIZ-PJ-UNPJ 0,00 0,00 8.810,89 0,00 0,00 0,00 0,00 2.105,00 10.915,89 876,95 1.709,37 0,00 0,00 2.586,32 8.329,57 31/05/2023
440 442800 CARLA GONCALVES COSTA SOALHEIRO ANALISTA DO MP GOVERNADOR VALADARES - COMARCA; GOVERNADOR VALADARES-PJ-11PJ 11.991,16 2.632,11 0,00 0,00 0,00 0,00 0,00 3.055,00 17.678,27 2.307,78 2.449,66 0,00 0,00 4.757,44 12.920,83 31/05/2023
441 321500 CARLA GONCALVES MASSOTE OFICIAL DO MP CAMPO BELO - COMARCA; CAMPO BELO-PJ-02PJ 12.343,61 3.703,08 0,00 0,00 0,00 0,00 0,00 2.105,00 18.151,69 2.348,42 2.882,06 0,00 0,00 5.230,48 12.921,21 31/05/2023
442 429200 CARLA HAUTEQUESTT BECHARA ANALISTA DO MP BELO HORIZONTE - COMARCA; DIRET DE INFORMACAO E CONHECIMENTO-DINC/CEAF 18.130,77 3.626,15 0,00 0,00 0,00 0,00 558,43 8.196,94 30.512,29 3.262,06 4.201,13 0,00 0,00 7.463,19 23.049,10 31/05/2023
443 247500 CARLA MATILDE GUIMARAES DE OLIVEIRA OFICIAL DO MP ITAJUBA - COMARCA; ITAJUBA-PJ-SECRETARIA 12.343,61 4.937,44 0,00 0,00 0,00 0,00 0,00 2.105,00 19.386,05 2.545,92 3.115,06 0,00 0,00 5.660,98 13.725,07 31/05/2023
444 226100 CARLA MERLI DA CONCEICAO ANALISTA DO MP BELO HORIZONTE - COMARCA; CENTRAL DE APOIO TECNICO-SETOR CONTABIL 23.070,31 9.228,12 0,00 0,00 0,00 0,00 473,71 7.272,75 40.044,89 4.948,70 6.584,08 0,00 0,00 11.532,78 28.512,11 31/05/2023
445 181401 CARLO MICHEL GAUDENSI COELHO ANALISTA DO MP BELO HORIZONTE - COMARCA; BH-08PJ JUIZADO ESPECIAL-SECRETARIA 17.559,01 7.023,60 0,00 0,00 0,00 0,00 90,14 3.088,30 27.761,05 3.714,17 4.853,86 0,00 0,00 8.568,03 19.193,02 31/05/2023
446 634000 CARLOS ALBERTO AMORMINO TRIGUEIRO ANALISTA DO MP BELO HORIZONTE - COMARCA; DIRET DE APOIO AS PROCURADORIAS DE JUSTICA 11.212,54 1.121,25 0,00 0,00 0,00 0,00 0,00 3.055,00 15.388,79 982,16 2.085,06 0,00 0,00 3.067,22 12.321,57 31/05/2023
447 637900 CARLOS ALBERTO DE MOURA OFICIAL DO MP SETE LAGOAS - COMARCA; SETE LAGOAS-PJ-07PJ 7.270,07 727,01 0,00 0,00 0,00 0,00 0,00 2.105,00 10.102,08 982,16 992,01 0,00 0,00 1.974,17 8.127,91 31/05/2023
448 638700 CARLOS ALBERTO FERREIRA BRAGA ANALISTA DO MP VESPASIANO - COMARCA; VESPASIANO-PJ-06PJ 11.212,54 1.121,25 0,00 0,00 0,00 0,00 0,00 2.105,00 14.438,79 982,16 2.132,46 0,00 0,00 3.114,62 11.324,17 31/05/2023
449 375801 CARLOS ALBERTO ROCHA ANALISTA DO MP VARGINHA - COMARCA; GAECO REGIONAL DE VARGINHA 12.343,61 2.468,72 0,00 0,00 0,00 0,00 0,00 3.055,00 17.867,33 2.150,92 2.544,79 0,00 0,00 4.695,71 13.171,62 31/05/2023
450 462800 CARLOS ANDREI SOARES FAGUNDES ANALISTA DO MP MONTES CLAROS - COMARCA; MONTES CLAROS-PJ-09PJ 12.343,61 2.468,72 0,00 0,00 0,00 0,00 0,00 2.105,00 16.917,33 2.150,92 2.544,79 0,00 0,00 4.695,71 12.221,62 31/05/2023
451 370300 CARLOS AUGUSTO BUENO DIAS ASSESSOR ADMINISTRATIVO IV BELO HORIZONTE - COMARCA; SUPERINTENDÊNCIA DE ENGENHARIA E ARQUITETURA 0,00 0,00 14.488,22 0,00 0,00 0,00 0,00 2.105,00 16.593,22 876,95 2.383,51 0,00 0,00 3.260,46 13.332,76 31/05/2023
452 505100 CARLOS CEZAR CARVALHO ANALISTA DO MP CONTAGEM - COMARCA; CONTAGEM-PJ-02PJ 12.343,61 6.171,81 0,00 0,00 0,00 0,00 0,00 2.105,00 20.620,42 2.743,42 3.348,07 0,00 0,00 6.091,49 14.528,93 31/05/2023
453 196800 CARLOS EDUARDO DE OLIVEIRA MARINHO OFICIAL DO MP ALPINÓPOLIS - COMARCA; ALPINOPOLIS-PJ-UNPJ 21.346,53 14.942,57 0,00 0,00 0,00 0,00 532,24 7.911,26 44.732,60 5.587,20 7.505,93 0,00 0,00 13.093,13 31.639,47 31/05/2023
454 650800 CARLOS EDUARDO NIZA DA SILVA OFICIAL DO MP IGARAPÉ - COMARCA; IGARAPE-PJ-01PJ 6.603,76 660,38 0,00 0,00 0,00 0,00 0,00 3.055,00 10.319,14 944,43 748,69 0,00 0,00 1.693,12 8.626,02 31/05/2023
455 491800 CARLOS EDUARDO ROMAN OFICIAL DO MP BARBACENA - COMARCA; BARBACENA-PJ-09PJ 10.516,49 3.154,95 0,00 0,00 0,00 0,00 0,00 2.105,00 15.776,44 1.968,38 2.333,38 0,00 0,00 4.301,76 11.474,68 31/05/2023
456 299300 CARLOS HENRIQUE BICALHO ANALISTA DO MP BELO HORIZONTE - COMARCA; BH-17PJ PATRIMONIO PUBLICO-SECRETARIA 23.070,31 11.535,16 0,00 0,00 0,00 0,00 507,55 8.591,88 43.704,90 5.317,82 7.169,14 0,00 0,00 12.486,96 31.217,94 31/05/2023
457 205100 CARLOS HENRIQUE ESTEVES OFICIAL DO MP ITAMBACURI - COMARCA; ITAMBACURI-PJ-01PJ 21.346,53 8.538,61 0,00 0,00 0,00 0,00 0,00 2.105,00 31.990,14 4.562,57 6.026,61 0,00 0,00 10.589,18 21.400,96 31/05/2023
458 351600 CARLOS HENRIQUE FELICIO DA FONSECA OFICIAL DO MP JUIZ DE FORA - COMARCA; JUIZ DE FORA-PJ-21PJ 12.343,61 4.937,44 0,00 0,00 0,00 0,00 0,00 2.105,00 19.386,05 2.545,92 3.115,06 0,00 0,00 5.660,98 13.725,07 31/05/2023
459 729100 CARLOS HENRIQUE TEIXEIRA BRAGA ASSESSOR ADMINISTRATIVO II BELO HORIZONTE - COMARCA; DIRETORIA DE SUPORTE E MANUTENCAO 0,00 0,00 7.506,70 0,00 0,00 0,00 0,00 2.105,00 9.611,70 876,95 1.350,72 0,00 0,00 2.227,67 7.384,03 31/05/2023
460 85400 CARLOS JOSE VIEIRA OFICIAL DO MP BELO HORIZONTE - COMARCA; DIRETORIA DO COLEGIO E DA CAMARA DE PJ 29.122,38 23.297,91 0,00 0,00 0,00 5.795,34 477,24 7.311,23 66.004,10 5.795,34 9.452,28 14.830,33 0,00 30.077,95 35.926,15 31/05/2023
461 229100 CARLOS MERCES DE OLIVEIRA ANALISTA DO MP BELO HORIZONTE - COMARCA; CENTRAL DE APOIO TECN-SETOR DE MEIO AMBIENTE 23.070,31 9.228,12 0,00 0,00 0,00 0,00 0,00 2.105,00 34.403,43 4.948,70 5.246,34 0,00 0,00 10.195,04 24.208,39 31/05/2023
462 538300 CARLOS RANGEL SILVA DE MELO ANALISTA DO MP BELO HORIZONTE - COMARCA; DIVISAO DE CONTROLE IMOBILIARIO 12.343,61 4.937,44 0,00 0,00 0,00 0,00 0,00 4.005,00 21.286,05 2.545,92 3.167,20 0,00 0,00 5.713,12 15.572,93 31/05/2023
463 265100 CARLOS REIFF MIRANDA ANALISTA DO MP BELO HORIZONTE - COMARCA; BH-19PJ SAUDE-SECRETARIA 150PJ 23.070,31 6.921,09 0,00 0,00 0,00 0,00 0,00 2.105,00 32.096,40 4.579,57 6.103,29 0,00 0,00 10.682,86 21.413,54 31/05/2023
464 305400 CARLOS ROCHA DE SOUZA OFICIAL DO MP MONTALVÂNIA - COMARCA; MONTALVANIA-PJ-SECRETARIA 7.506,70 2.252,01 0,00 0,00 0,00 0,00 0,00 3.631,57 13.390,28 1.342,34 1.220,99 0,00 0,00 2.563,33 10.826,95 31/05/2023
465 399900 CARMELITA EVANGELISTA DE SOUZA OFICIAL DO MP JOÃO PINHEIRO - COMARCA; JOAO PINHEIRO-PJ-01PJ 10.858,90 2.171,78 0,00 0,00 0,00 0,00 0,00 2.105,00 15.135,68 1.865,86 2.185,37 0,00 0,00 4.051,23 11.084,45 31/05/2023
466 202000 CARMEN LUCIA MARIZ DE MACEDO OFICIAL DO MP BELO HORIZONTE - COMARCA; DIRETORIA GESTAO COMPRAS LICITACOES 20.533,67 14.373,58 5.434,83 0,00 0,00 0,00 551,32 8.119,39 49.012,79 5.366,11 7.872,32 2.752,12 0,00 15.990,55 33.022,24 31/05/2023
467 701900 CAROLINA CARVALHO COSTA ASSESSOR PROCURADOR JUSTICA BELO HORIZONTE - COMARCA; GABINETE DE PROCURADOR DE JUSTIÇA - SALA 811 0,00 0,00 8.810,89 0,00 0,00 0,00 0,00 2.105,00 10.915,89 876,95 1.709,37 0,00 0,00 2.586,32 8.329,57 31/05/2023
468 228500 CAROLINA CHIARELLA DOS SANTOS RIBEIRO COORDENADOR I BELO HORIZONTE - COMARCA; DIVISAO TRANSPORTES 16.469,17 6.587,67 0,00 0,00 0,00 0,00 948,38 2.105,00 26.110,22 2.545,92 4.912,07 0,00 0,00 7.457,99 18.652,23 31/05/2023
469 446500 CAROLINA COSTA VAL RODRIGUES ANALISTA DO MP BELO HORIZONTE - COMARCA; DIVISAO DE MATERIAIS 17.559,01 5.267,70 4.940,75 0,00 0,00 0,00 203,63 4.326,40 32.297,49 3.433,22 5.806,96 0,00 0,00 9.240,18 23.057,31 31/05/2023
470 603501 CAROLINA DOMINGOS BRANDAO RABELLO ANALISTA DO MP BARROSO - COMARCA; BARROSO-PJ-01PJ 12.343,61 1.234,36 0,00 0,00 0,00 0,00 547,65 9.979,31 24.104,93 1.953,42 2.311,79 0,00 0,00 4.265,21 19.839,72 31/05/2023
471 404300 CAROLINA DOS SANTOS VIEIRA ANALISTA DO MP BELO HORIZONTE - COMARCA; BH-08PJ JUIZADO ESPECIAL-SECRETARIA 18.720,84 3.744,17 0,00 0,00 0,00 0,00 0,00 2.105,00 24.570,01 3.375,35 4.260,42 0,00 0,00 7.635,77 16.934,24 31/05/2023
472 551200 CAROLINA LOPES ARANTES MASCARENHAS ANALISTA DO MP BELO HORIZONTE - COMARCA; CAO-VIOLENCIA DOMESTICA E FAMILIAR 12.343,61 2.468,72 0,00 0,00 411,45 0,00 1.293,20 2.746,86 19.263,84 2.348,42 2.890,94 0,00 0,00 5.239,36 14.024,48 31/05/2023
473 622600 CAROLINA LOREDO LOPES CATIZANI OFICIAL DO MP RIBEIRÃO DAS NEVES - COMARCA; RIBEIRAO DAS NEVES-PJ-12PJ 6.818,83 681,88 0,00 0,00 0,00 0,00 0,00 2.105,00 9.605,71 981,10 907,93 0,00 0,00 1.889,03 7.716,68 31/05/2023
474 382200 CAROLINA MENDES CHAVES LIN ANALISTA DO MP BELO HORIZONTE - COMARCA; BH-12PJ JUIZO CRIMINAL-GAB 088PJ 12.343,61 3.703,08 0,00 0,00 0,00 0,00 0,00 3.055,00 19.101,69 2.348,42 2.829,93 0,00 0,00 5.178,35 13.923,34 31/05/2023
475 461900 CAROLINA MURTA TEIXEIRA DIAS ANALISTA DO MP BELO HORIZONTE - COMARCA; CENTRO AUTOCOMPOSICAO DE CONFLITOS 12.343,61 2.468,72 0,00 0,00 0,00 0,00 0,00 2.105,00 16.917,33 2.150,92 2.596,93 0,00 0,00 4.747,85 12.169,48 31/05/2023
476 509600 CAROLINA PINTO DE OLIVEIRA SOUZA ANALISTA DO MP MURIAÉ - COMARCA; MURIAE-PJ-01PJ 12.343,61 2.468,72 0,00 0,00 0,00 0,00 0,00 3.055,00 17.867,33 2.150,92 2.492,65 0,00 0,00 4.643,57 13.223,76 31/05/2023
477 629100 CAROLINA RODRIGUES AMARAL ANALISTA DO MP BELO HORIZONTE - COMARCA; PROC. JUSTICA DIR. DIFUSOS E COLETIVOS-SEC 11.577,56 1.157,76 0,00 0,00 0,00 0,00 0,00 2.105,00 14.840,32 1.818,60 2.117,14 0,00 0,00 3.935,74 10.904,58 31/05/2023
478 502600 CAROLINA RODRIGUES RUBEN ANALISTA DO MP BELO HORIZONTE - COMARCA; BH-18PJ VIOLENCIA DOMESTICA-GAB 007PJ 12.343,61 2.468,72 0,00 0,00 0,00 0,00 0,00 4.005,00 18.817,33 2.150,92 2.492,65 0,00 0,00 4.643,57 14.173,76 31/05/2023
479 529600 CAROLINA VAZ DE MELO MAMBRINI ANALISTA DO MP BELO HORIZONTE - COMARCA; BH-14PJ DEFESA CONSUMIDOR-GAB 005PJ 12.343,61 2.468,72 0,00 0,00 0,00 0,00 0,00 2.105,00 16.917,33 2.150,92 2.596,93 0,00 0,00 4.747,85 12.169,48 31/05/2023
480 619100 CAROLINA ZAKHIA NARDELLI RODRIGUES ANALISTA DO MP NEPOMUCENO - COMARCA; NEPOMUCENO-PJ-UNPJ 11.577,56 1.157,76 0,00 0,00 0,00 0,00 0,00 3.055,00 15.790,32 1.818,60 2.065,00 0,00 0,00 3.883,60 11.906,72 31/05/2023
481 517600 CAROLINE ALVES DE OLIVEIRA MULLER ANALISTA DO MP VISCONDE DO RIO BRANCO - COMARCA; VISCONDE DO RIO BRANCO-PJ-01PJ 12.343,61 2.468,72 0,00 0,00 0,00 0,00 0,00 2.105,00 16.917,33 2.150,92 2.544,79 0,00 0,00 4.695,71 12.221,62 31/05/2023
482 373200 CAROLINE ANTUNES RIBEIRO OFICIAL DO MP JACUI - COMARCA; JACUI-PJ-UNPJ 12.343,61 3.703,08 0,00 0,00 0,00 0,00 0,00 2.105,00 18.151,69 2.348,42 2.829,93 0,00 0,00 5.178,35 12.973,34 31/05/2023
483 723500 CAROLINE CORDEIRO FERNANDES MACHADO ASSESSOR PROMOTOR JUSTICA BELO HORIZONTE - COMARCA; COORD DE INCLUSAO E MOBILIZACAO SOCIAIS 0,00 0,00 8.810,89 0,00 2.936,96 0,00 0,00 2.105,00 13.852,85 876,95 2.517,04 0,00 0,00 3.393,99 10.458,86 31/05/2023
484 556800 CAROLINE DE SOUZA CARDOSO DOMINGUES OFICIAL DO MP BRASÍLIA DE MINAS - COMARCA; BRASILIA DE MINAS-PJ-02PJ 7.506,70 750,67 0,00 0,00 0,00 0,00 0,00 2.105,00 10.362,37 1.102,13 1.082,73 0,00 0,00 2.184,86 8.177,51 31/05/2023
485 499400 CAROLINE MARQUES DE LOURDES MARZULLO OFICIAL DO MP JUIZ DE FORA - COMARCA; JUIZ DE FORA-PJ-08PJ 10.516,49 2.103,30 0,00 0,00 0,00 0,00 0,00 3.530,00 16.149,79 982,16 2.209,95 0,00 0,00 3.192,11 12.957,68 31/05/2023
486 616800 CAROLINE MONTEIRO DE BARROS ANALISTA DO MP CONTAGEM - COMARCA; CONTAGEM-PJ-11PJ 11.577,56 1.157,76 0,00 0,00 0,00 0,00 0,00 3.055,00 15.790,32 982,16 2.239,33 0,00 0,00 3.221,49 12.568,83 31/05/2023
487 618100 CAROLINE VASCONCELOS COSTA LANZA ANALISTA DO MP PARAOPEBA - COMARCA; PARAOPEBA-PJ-UNPJ 11.577,56 1.157,76 0,00 0,00 0,00 0,00 0,00 4.005,00 16.740,32 1.818,60 2.117,14 0,00 0,00 3.935,74 12.804,58 31/05/2023
488 699000 CAROLLINA RODRIGUES SOUTO AMARAL ASSESSOR PROCURADOR JUSTICA BELO HORIZONTE - COMARCA; GABINETE DE PROCURADOR DE JUSTIÇA - SALA 405 0,00 0,00 8.810,89 0,00 0,00 0,00 0,00 2.105,00 10.915,89 876,95 1.709,37 0,00 0,00 2.586,32 8.329,57 31/05/2023
489 604000 CASSIA APARECIDA DA SILVA OFICIAL DO MP PARACATU - COMARCA; PARACATU-PJ-01PJ 7.506,70 750,67 0,00 0,00 0,00 0,00 0,00 2.105,00 10.362,37 1.102,13 1.082,73 0,00 0,00 2.184,86 8.177,51 31/05/2023
490 268800 CASSIA BEATRIZ TEIXEIRA OFICIAL DO MP BELO HORIZONTE - COMARCA; PROC. JUSTICA DE HABEAS CORPUS 17.559,01 5.267,70 4.346,47 0,00 0,00 0,00 199,27 4.278,85 31.651,30 3.433,22 5.643,53 0,00 0,00 9.076,75 22.574,55 31/05/2023
491 500000 CASSIA DE OLIVEIRA COSTA VIANA ANALISTA DO MP SETE LAGOAS - COMARCA; SETE LAGOAS-PJ-09PJ 12.343,61 8.640,53 0,00 0,00 0,00 0,00 0,00 2.105,00 23.089,14 3.138,41 4.022,62 0,00 0,00 7.161,03 15.928,11 31/05/2023
492 368800 CASSIA LUISA BATISTA MENDONCA WEBER COORDENADOR II BELO HORIZONTE - COMARCA; DIVISÃO DE EDUCAÇÃO PARA O CONSUMO 20.533,67 6.160,10 0,00 0,00 0,00 0,00 195,75 4.240,50 31.130,02 1.932,03 5.924,52 0,00 0,00 7.856,55 23.273,47 31/05/2023
493 622200 CASSIA VAZ DE AZEVEDO LISBOA MARZANO ASSESSOR ADMINISTRATIVO III BELO HORIZONTE - COMARCA; CGMP-DIR ESTAGIO PROBATORIO E ORIENT 0,00 0,00 10.858,90 0,00 0,00 0,00 0,00 2.105,00 12.963,90 876,95 2.116,16 0,00 0,00 2.993,11 9.970,79 31/05/2023
494 121000 CASSIO HENRIQUE AFONSO DA SILVA OFICIAL DO MP BELO HORIZONTE - COMARCA; CGMP-ASSESSORIA TECNICA 23.070,31 18.456,25 0,00 0,00 0,00 0,00 551,32 8.119,39 50.197,27 5.795,34 7.754,29 3.936,60 0,00 17.486,23 32.711,04 31/05/2023
495 512001 CATARINA NATALINO CALIXTO COORDENADOR II BELO HORIZONTE - COMARCA; DIRETORIA GESTAO TRANSPORTES 20.533,67 2.053,37 0,00 0,00 0,00 0,00 3.291,08 3.055,00 28.933,12 1.818,60 5.731,41 0,00 0,00 7.550,01 21.383,11 31/05/2023
496 606200 CATARINE DE SIQUEIRA DE QUADROS ANALISTA DO MP CONTAGEM - COMARCA; CONTAGEM-PJ-08PJ 12.343,61 1.234,36 0,00 0,00 0,00 0,00 0,00 3.055,00 16.632,97 1.953,42 2.207,52 0,00 0,00 4.160,94 12.472,03 31/05/2023
497 622300 CECILIA APARECIDA PEREIRA ASSUNCAO OFICIAL DO MP TRÊS PONTAS - COMARCA; TRES PONTAS-PJ-SECRETARIA 8.003,54 800,35 0,00 0,00 0,00 0,00 0,00 3.055,00 11.858,89 1.189,57 1.156,84 0,00 0,00 2.346,41 9.512,48 31/05/2023
498 538000 CECILIA FONTES DE MATOS PIMENTEL ANALISTA DO MP PALMA - COMARCA; PALMA-PJ-UNPJ 12.343,61 2.468,72 0,00 0,00 0,00 0,00 0,00 3.055,00 17.867,33 2.150,92 2.596,93 0,00 0,00 4.747,85 13.119,48 31/05/2023
499 261300 CECILIO ANTONIO CAMPOS DOS REIS ANALISTA DO MP BELO HORIZONTE - COMARCA; AUDITORIA INTERNA 23.070,31 9.228,12 0,00 0,00 0,00 0,00 0,00 2.105,00 34.403,43 4.948,70 6.636,22 0,00 0,00 11.584,92 22.818,51 31/05/2023
500 386400 CEFAS AMORELI DE FIGUEIREDO OFICIAL DO MP CABO VERDE - COMARCA; CABO VERDE-PJ-SECRETARIA 7.506,70 2.252,01 0,00 0,00 0,00 0,00 0,00 2.105,00 11.863,71 1.342,34 1.429,54 0,00 0,00 2.771,88 9.091,83 31/05/2023
501 421000 CELINA BENEDITA DE SOUZA ALMEIDA OFICIAL DO MP CAMBUÍ - COMARCA; CAMBUI-PJ-01PJ 11.212,54 7.848,77 0,00 0,00 0,00 0,00 0,00 2.105,00 21.166,31 2.830,76 3.526,30 0,00 0,00 6.357,06 14.809,25 31/05/2023
502 252900 CELIO DE MELO CASTOR ANALISTA DO MP BELO HORIZONTE - COMARCA; DIVISAO FROTA 23.070,31 9.228,12 0,00 0,00 0,00 0,00 0,00 2.105,00 34.403,43 4.948,70 6.636,22 0,00 0,00 11.584,92 22.818,51 31/05/2023
503 395700 CELIO FERREIRA LIMA OFICIAL DO MP CONTAGEM - COMARCA; CONTAGEM-PJ-SECRETARIA 11.954,43 3.586,33 0,00 0,00 0,00 0,00 0,00 2.105,00 17.645,76 2.267,47 2.713,06 0,00 0,00 4.980,53 12.665,23 31/05/2023
504 281300 CELMA REGINA PEREIRA SANTOS ANALISTA DO MP BELO HORIZONTE - COMARCA; PROMOT ESTADUAL DE DEF PATRI CULT E TUR DE MG 23.070,31 6.921,09 0,00 0,00 0,00 0,00 0,00 2.105,00 32.096,40 4.579,57 6.103,29 0,00 0,00 10.682,86 21.413,54 31/05/2023
505 535600 CELSO MEDEIROS DE PAIVA OFICIAL DO MP RIO PRETO - COMARCA; RIO PRETO-PJ-SECRETARIA 7.506,70 1.501,34 0,00 0,00 0,00 0,00 0,00 2.105,00 11.113,04 1.222,23 1.204,00 0,00 0,00 2.426,23 8.686,81 31/05/2023
506 367000 CESAR NARVAES DE AVELAR OFICIAL DO MP BELO HORIZONTE - COMARCA; DIRET DE INFORMACAO E CONHECIMENTO-DINC/CEAF 12.343,61 3.703,08 0,00 0,00 0,00 0,00 0,00 2.105,00 18.151,69 2.348,42 2.882,06 0,00 0,00 5.230,48 12.921,21 31/05/2023
507 226500 CESAR SILVEIRA BARROUIN OFICIAL DO MP BELO HORIZONTE - COMARCA; DIRETORIA DE ADMINISTRACAO FINANCEIRA 17.559,01 8.779,51 0,00 0,00 0,00 0,00 193,15 4.212,08 30.743,75 3.995,11 5.259,48 0,00 0,00 9.254,59 21.489,16 31/05/2023
508 121400 CEZAR MORENO CONCEICAO TAVARES OFICIAL DO MP BELO HORIZONTE - COMARCA; COORD DE INCLUSAO E MOBILIZACAO SOCIAIS 22.191,68 17.753,35 0,00 0,00 0,00 5.795,34 477,24 8.261,23 54.478,84 5.795,34 9.348,00 2.355,07 0,00 17.498,41 36.980,43 31/05/2023
509 243800 CHARLES MARTINS MUNIZ OFICIAL DO MP BELO HORIZONTE - COMARCA; LAB TECNOLOGIA CONTRA LAVAGEM DINHEIRO 17.559,01 7.023,60 0,00 0,00 0,00 0,00 0,00 1.500,00 26.082,61 3.714,17 4.853,86 0,00 0,00 8.568,03 17.514,58 31/05/2023
510 193500 CHARLIN CESAR KOURLY OFICIAL DO MP ARAGUARI - COMARCA; ARAGUARI-PJ-07PJ 21.346,53 8.538,61 0,00 0,00 0,00 0,00 547,89 8.082,03 38.515,06 4.562,57 6.078,75 0,00 0,00 10.641,32 27.873,74 31/05/2023
511 385500 CHILLEN PEIXOTO DE MOURA OFICIAL DO MP BELO HORIZONTE - COMARCA; DIVISAO DE MATERIAIS 11.954,43 3.586,33 0,00 0,00 0,00 0,00 0,00 4.448,33 19.989,09 2.267,47 2.765,19 0,00 0,00 5.032,66 14.956,43 31/05/2023
512 534500 CHRISTIAN DOUGLAS BRITO RUAS OFICIAL DO MP SÃO JOÃO DA PONTE - COMARCA; SAO JOAO DA PONTE-PJ-SECRETARIA 7.506,70 1.501,34 0,00 0,00 0,00 0,00 0,00 2.105,00 11.113,04 1.222,23 1.256,14 0,00 0,00 2.478,37 8.634,67 31/05/2023
513 370600 CHRISTIAN KARINE FELIX PRATES ASSESSOR ADMINISTRATIVO IV BELO HORIZONTE - COMARCA; SUPRIN DE PLANEJAMENTO E COORDENACAO 0,00 0,00 14.488,22 0,00 0,00 0,00 265,62 5.002,64 19.756,48 876,95 3.270,64 0,00 0,00 4.147,59 15.608,89 31/05/2023
514 435800 CHRISTIANA BAHIA ANDRADE PINA ANALISTA DO MP BELO HORIZONTE - COMARCA; LABORATORIO TECNOLOGIA INTELIGENCIA 18.130,77 3.626,15 0,00 0,00 0,00 0,00 398,88 6.456,38 28.612,18 3.262,06 4.201,13 0,00 0,00 7.463,19 21.148,99 31/05/2023
515 516800 CHRISTIANE FERREIRA DO NASCIMENTO ANALISTA DO MP POUSO ALEGRE - COMARCA; POUSO ALEGRE-PJ-08PJ 12.343,61 2.468,72 0,00 0,00 0,00 0,00 0,00 2.105,00 16.917,33 2.150,92 2.596,93 0,00 0,00 4.747,85 12.169,48 31/05/2023
516 176000 CHRISTIANE JUNQUEIRA PULITI ANDRADE DE BARROS ASSESSOR ADM. ESPECIAL BELO HORIZONTE - COMARCA; PROCURADORIA-GERAL ADJUNTA INSTITUCIONAL 0,00 22.410,72 28.013,39 0,00 0,00 5.795,34 477,23 7.311,23 64.007,91 5.795,34 9.452,28 12.834,15 0,00 28.081,77 35.926,14 31/05/2023
517 319200 CHRISTIANE MARIA DE ASSIS RUSSO OFICIAL DO MP BELO HORIZONTE - COMARCA; CAO-ORDEM ECONOMICA E TRIBUTARIA-SECRETARIA 15.447,01 4.634,10 0,00 0,00 0,00 0,00 0,00 3.055,00 23.136,11 2.993,93 3.761,88 0,00 0,00 6.755,81 16.380,30 31/05/2023
518 510300 CHRISTIANE MARY DE CARVALHO FERREIRA ANALISTA DO MP BELO HORIZONTE - COMARCA; DIRETORIA DE SISTEMAS DE INFORMACAO 12.343,61 2.468,72 0,00 0,00 0,00 0,00 0,00 2.105,00 16.917,33 2.150,92 2.544,79 0,00 0,00 4.695,71 12.221,62 31/05/2023
519 424900 CHRISTIANE PEREIRA TURNER DE ARAUJO OFICIAL DO MP BELO HORIZONTE - COMARCA; CAO-PATRIMONIO PUBLICO 11.212,54 2.242,51 0,00 0,00 0,00 0,00 0,00 3.055,00 16.510,05 1.933,76 2.179,12 0,00 0,00 4.112,88 12.397,17 31/05/2023
520 731000 CHRISTIANE TEIXEIRA ANTUNA ASSESSOR ADMINISTRATIVO III BELO HORIZONTE - COMARCA; DIR CONTEUDO JORNALISTICO 0,00 0,00 10.858,90 0,00 0,00 0,00 0,00 2.105,00 12.963,90 876,95 2.272,58 0,00 0,00 3.149,53 9.814,37 31/05/2023
521 513700 CHRISTIANE VIEIRA SOARES PEDERSOLI COORDENADOR II BELO HORIZONTE - COMARCA; ASSESSORIA JURIDICA DO PROCON-MG 20.533,67 4.106,73 0,00 0,00 0,00 0,00 90,35 4.040,62 28.771,37 2.150,92 5.299,65 0,00 0,00 7.450,57 21.320,80 31/05/2023
522 412300 CHRYSTIAN MACHADO RIBEIRO ANALISTA DO MP VARGINHA - COMARCA; VARGINHA-PJ-04PJ 18.130,77 3.626,15 0,00 0,00 0,00 0,00 398,88 6.456,38 28.612,18 3.262,06 4.201,13 0,00 0,00 7.463,19 21.148,99 31/05/2023
523 513800 CHRYSTIANE DO NASCIMENTO DE MAGALHAES OFICIAL DO MP UBERLÂNDIA - COMARCA; UBERLANDIA-PJ-10PJ 9.699,77 1.939,95 0,00 0,00 0,00 0,00 0,00 2.105,00 13.744,72 1.643,30 1.759,78 0,00 0,00 3.403,08 10.341,64 31/05/2023
524 497900 CIBELE DE FREITAS SANCHES DIAS ANALISTA DO MP SABARÁ - COMARCA; SABARA-PJ-03PJ 12.343,61 2.468,72 0,00 0,00 0,00 0,00 0,00 2.105,00 16.917,33 982,16 2.715,54 0,00 0,00 3.697,70 13.219,63 31/05/2023
525 500900 CIBELLE SILVA PRADO ALVARENGA ANALISTA DO MP ITANHANDU - COMARCA; ITANHANDU-PJ-UNPJ 12.343,61 2.468,72 0,00 0,00 0,00 0,00 0,00 3.055,00 17.867,33 2.150,92 2.596,93 0,00 0,00 4.747,85 13.119,48 31/05/2023
526 296400 CINTIA APARECIDA MOREIRA NAVES E RODRIGUES ANALISTA DO MP CAMPO BELO - COMARCA; CAMPO BELO-PJ-01PJ 23.070,31 6.921,09 0,00 0,00 0,00 0,00 549,84 8.103,28 38.644,52 4.579,57 6.103,29 0,00 0,00 10.682,86 27.961,66 31/05/2023
527 407900 CINTIA NETO COMELLI ANALISTA DO MP BELO HORIZONTE - COMARCA; CENTRAL DE APOIO TECNICO-SETOR CONTABIL 18.130,77 3.626,15 0,00 0,00 0,00 0,00 0,00 2.105,00 23.861,92 3.262,06 4.148,99 0,00 0,00 7.411,05 16.450,87 31/05/2023
528 304700 CINTIA QUEIROZ OFICIAL DO MP BELO HORIZONTE - COMARCA; OUVIDORIA DO MPMG 12.343,61 3.703,08 0,00 0,00 0,00 0,00 0,00 2.105,00 18.151,69 2.348,42 2.882,06 0,00 0,00 5.230,48 12.921,21 31/05/2023
529 286100 CIRO CANGUSSU CORDEIRO OFICIAL DO MP IPATINGA - COMARCA; IPATINGA-PJ-09PJ 10.516,49 3.154,95 0,00 0,00 0,00 0,00 0,00 3.055,00 16.726,44 1.968,38 2.229,11 0,00 0,00 4.197,49 12.528,95 31/05/2023
530 689900 CISSA NOGUEIRA COLEN ASSESSOR PROCURADOR JUSTICA BELO HORIZONTE - COMARCA; GABINETE DE PROCURADOR DE JUSTIÇA - SALA 608 0,00 0,00 8.810,89 0,00 0,00 0,00 0,00 2.105,00 10.915,89 876,95 1.709,37 0,00 0,00 2.586,32 8.329,57 31/05/2023
531 681700 CLARA FERREIRA ALKIMIM ASSESSOR PROMOTOR JUSTICA PEDRA AZUL - COMARCA; PEDRA AZUL-PJ-02PJ 0,00 0,00 8.810,89 0,00 0,00 0,00 0,00 2.105,00 10.915,89 876,95 1.709,37 0,00 0,00 2.586,32 8.329,57 31/05/2023
532 715500 CLARA ISABELLE SOUSA FARIA ASSESSOR PROCURADOR JUSTICA BELO HORIZONTE - COMARCA; GABINETE DE PROCURADOR DE JUSTIÇA - SALA 712 0,00 0,00 8.810,89 0,00 0,00 0,00 0,00 2.105,00 10.915,89 876,95 1.709,37 0,00 0,00 2.586,32 8.329,57 31/05/2023
533 723100 CLARA PRADO CAMPOS ASSESSOR PROCURADOR JUSTICA BELO HORIZONTE - COMARCA; GABINETE DE PROCURADOR DE JUSTIÇA - SALA 1006 0,00 0,00 8.810,89 0,00 2.936,96 0,00 0,00 2.105,00 13.852,85 876,95 2.517,04 0,00 0,00 3.393,99 10.458,86 31/05/2023
534 695500 CLARA RODRIGUES BLACH ASSESSOR PROCURADOR JUSTICA BELO HORIZONTE - COMARCA; GABINETE DE PROCURADOR DE JUSTIÇA - SALA 1003 0,00 0,00 8.810,89 0,00 0,00 0,00 0,00 2.105,00 10.915,89 876,95 1.709,37 0,00 0,00 2.586,32 8.329,57 31/05/2023
535 412500 CLARICE GOMES MAROTTA ANALISTA DO MP BELO HORIZONTE - COMARCA; COORD ESTADUAL DE DEFESA DOS ANIMAIS 18.130,77 7.252,31 0,00 0,00 0,00 0,00 558,43 8.196,94 34.138,45 3.842,24 5.038,77 0,00 0,00 8.881,01 25.257,44 31/05/2023
536 605300 CLARISSA AZEVEDO ROCHA OFICIAL DO MP BELO HORIZONTE - COMARCA; BH-17PJ PATRIMONIO PUBLICO-SECRETARIA 7.506,70 750,67 0,00 0,00 0,00 0,00 0,00 2.105,00 10.362,37 1.102,13 1.082,73 0,00 0,00 2.184,86 8.177,51 31/05/2023
537 308100 CLARISSA DUARTE BELLONI DIRETOR-GERAL BELO HORIZONTE - COMARCA; DIRETORIA-GERAL 34.667,33 10.400,20 0,00 0,00 0,00 0,00 551,32 10.969,39 56.588,24 4.579,57 8.088,62 7.477,57 0,00 20.145,76 36.442,48 31/05/2023
538 730500 CLARISSA FERNANDES ABREU ASSESSOR PROMOTOR JUSTICA SANTOS DUMONT - COMARCA; SANTOS DUMONT-PJ-02PJ 0,00 0,00 8.810,89 0,00 0,00 0,00 0,00 2.105,00 10.915,89 876,95 1.709,37 0,00 0,00 2.586,32 8.329,57 31/05/2023
539 497100 CLARISSA ROCHA GUIDI ANALISTA DO MP BELO HORIZONTE - COMARCA; BH-02PJ FAMILIA-SECRETARIA 14.960,00 2.992,00 0,00 0,00 0,00 0,00 460,77 9.031,56 27.444,33 2.653,27 3.270,05 0,00 0,00 5.923,32 21.521,01 31/05/2023
540 641800 CLARISSE TAVARES GONCALVES OFICIAL DO MP BELO HORIZONTE - COMARCA; BH-07PJ 01 TRIBUNAL JURI-SECRETARIA 7.270,07 727,01 0,00 0,00 0,00 0,00 0,00 2.105,00 10.102,08 982,16 1.044,14 0,00 0,00 2.026,30 8.075,78 31/05/2023
541 463700 CLAUDIA ADRIANA FERRAO DIAS ANALISTA DO MP SETE LAGOAS - COMARCA; SETE LAGOAS-PJ-06PJ 12.343,61 2.468,72 0,00 0,00 0,00 0,00 543,12 8.029,93 23.385,38 2.150,92 2.596,93 0,00 0,00 4.747,85 18.637,53 31/05/2023
542 415400 CLAUDIA ALMEIDA DE VASCONCELLOS BARROS OFICIAL DO MP BELO HORIZONTE - COMARCA; DIVISAO DE SERVICOS 10.858,90 2.171,78 4.020,58 0,00 0,00 0,00 0,00 2.105,00 19.156,26 1.865,86 3.291,03 0,00 0,00 5.156,89 13.999,37 31/05/2023
543 207000 CLAUDIA APARECIDA VILELA MACHADO ANALISTA DO MP BELO HORIZONTE - COMARCA; CENTRAL DE APOIO TECNICO-SETOR CONTABIL 23.070,31 11.535,16 0,00 0,00 0,00 0,00 507,55 7.641,88 42.754,90 5.317,82 7.012,73 0,00 0,00 12.330,55 30.424,35 31/05/2023
544 365700 CLAUDIA BREGUEZ CUNHA ANALISTA DO MP VARGINHA - COMARCA; VARGINHA-PJ-07PJ 20.533,67 6.160,10 0,00 0,00 0,00 0,00 0,00 3.055,00 29.748,77 4.051,95 5.341,54 0,00 0,00 9.393,49 20.355,28 31/05/2023
545 430500 CLAUDIA CECILIA SANTANA VENCESLAU OFICIAL DO MP BELO HORIZONTE - COMARCA; LAB TECNOLOGIA CONTRA LAVAGEM DINHEIRO 11.212,54 2.242,51 0,00 0,00 0,00 0,00 0,00 2.105,00 15.560,05 1.933,76 2.231,26 0,00 0,00 4.165,02 11.395,03 31/05/2023
546 213601 CLAUDIA GONCALVES CALIXTO ASSESSOR PROCURADOR JUSTICA BELO HORIZONTE - COMARCA; PROC. JUSTICA DIR. DIFUSOS E COLETIVOS-SEC 0,00 0,00 8.810,89 0,00 0,00 0,00 0,00 2.105,00 10.915,89 876,95 1.709,37 0,00 0,00 2.586,32 8.329,57 31/05/2023
547 480400 CLAUDIA GOULART DE SOUZA OFICIAL DO MP PASSOS - COMARCA; PASSOS-PJ-06PJ 10.516,49 3.154,95 0,00 0,00 0,00 0,00 0,00 2.105,00 15.776,44 1.968,38 2.333,38 0,00 0,00 4.301,76 11.474,68 31/05/2023
548 519800 CLAUDIA HELENA CORREA DE ALMEIDA ANALISTA DO MP BELO HORIZONTE - COMARCA; BH-12PJ JUIZO CRIMINAL-GAB 096PJ 12.343,61 2.468,72 0,00 0,00 0,00 0,00 0,00 2.105,00 16.917,33 2.150,92 2.596,93 0,00 0,00 4.747,85 12.169,48 31/05/2023
549 422100 CLAUDIA IACOMINI CABRAL ANALISTA DO MP BELO HORIZONTE - COMARCA; CENT DE APOIO TEC-SETOR DEF,IDOSO E INFANC 18.130,77 12.691,55 0,00 0,00 0,00 0,00 113,01 3.337,89 34.273,22 4.712,52 6.295,24 0,00 0,00 11.007,76 23.265,46 31/05/2023
550 258200 CLAUDIA LAGE MICHALAROS ANALISTA DO MP BELO HORIZONTE - COMARCA; CENTRAL DE APOIO TECN-SETOR DE MEIO AMBIENTE 23.070,31 18.456,25 0,00 0,00 0,00 5.795,34 0,00 2.105,00 49.426,90 5.795,34 9.452,28 3.936,60 0,00 19.184,22 30.242,68 31/05/2023
551 284600 CLAUDIA LENI DE FREITAS OFICIAL DO MP CONTAGEM - COMARCA; CONTAGEM-PJ-SECRETARIA 7.506,70 3.753,35 0,00 0,00 0,00 1.582,56 0,00 2.105,00 14.947,61 1.582,56 2.211,55 0,00 0,00 3.794,11 11.153,50 31/05/2023
552 433600 CLAUDIA LUIZA SANTIAGO FELICIO ANALISTA DO MP BELO HORIZONTE - COMARCA; CENT DE APOIO TEC-SETOR DEF,IDOSO E INFANC 18.130,77 3.626,15 0,00 0,00 0,00 0,00 0,00 2.105,00 23.861,92 3.262,06 4.096,85 0,00 0,00 7.358,91 16.503,01 31/05/2023
553 317000 CLAUDIA MACHADO ALVES OFICIAL DO MP BELO HORIZONTE - COMARCA; DIR GOVERNANCA TECNOLOGIA INFORMACAO 12.343,61 3.703,08 4.020,58 0,00 0,00 0,00 0,00 2.105,00 22.172,27 2.348,42 3.987,72 0,00 0,00 6.336,14 15.836,13 31/05/2023
554 155300 CLAUDIA MACIEL MIRANDA OFICIAL DO MP CONGONHAS - COMARCA; CONGONHAS-PJ-02PJ 22.191,68 15.534,18 0,00 0,00 0,00 0,00 0,00 2.105,00 39.830,86 5.795,34 7.754,29 135,90 0,00 13.685,53 26.145,33 31/05/2023
555 242200 CLAUDIA MICHELLE DIAS MUNIZ BALEEIRO OFICIAL DO MP MONTE AZUL - COMARCA; MONTE AZUL-PJ-SECRETARIA 17.559,01 8.779,51 0,00 0,00 0,00 0,00 193,15 4.212,08 30.743,75 3.995,11 5.207,34 0,00 0,00 9.202,45 21.541,30 31/05/2023
556 623000 CLAUDIA PATRICIA SILVA RODRIGUES RAPOSEIRAS OFICIAL DO MP BELO HORIZONTE - COMARCA; DIVISÃO DE EDUCAÇÃO PARA O CONSUMO 7.506,70 750,67 0,00 0,00 0,00 0,00 0,00 2.105,00 10.362,37 1.102,13 1.030,59 0,00 0,00 2.132,72 8.229,65 31/05/2023
557 418400 CLAUDIA REGINA MARTINS BONIFACIO OFICIAL DO MP ITUIUTABA - COMARCA; ITUIUTABA-PJ-06PJ 11.212,54 2.242,51 0,00 0,00 0,00 0,00 0,00 2.105,00 15.560,05 1.933,76 2.179,12 0,00 0,00 4.112,88 11.447,17 31/05/2023
558 498300 CLAUDIA SOUTO FARIAS BRAUN OFICIAL DO MP TEÓFILO OTONI - COMARCA; TEOFILO OTONI-PJ-SECRETARIA 7.506,70 1.501,34 0,00 0,00 0,00 0,00 0,00 2.105,00 11.113,04 1.222,23 1.151,86 0,00 0,00 2.374,09 8.738,95 31/05/2023
559 206500 CLAUDIA VALERIA FONSECA ANDRADE ANALISTA DO MP BELO HORIZONTE - COMARCA; BH-23PJ INF-FISC MED SOC FEC 23.070,31 16.149,22 0,00 0,00 0,00 5.795,34 477,23 7.311,23 52.803,33 5.795,34 9.452,28 1.629,57 0,00 16.877,19 35.926,14 31/05/2023
560 277500 CLAUDIO ANTONIO BORGES BRUNSWICK ALVARES OFICIAL DO MP BELO HORIZONTE - COMARCA; BH-15PJ M AMB PAT HIST CULT-GAB 116PJ 12.343,61 3.703,08 0,00 0,00 0,00 0,00 0,00 2.105,00 18.151,69 2.348,42 2.882,06 0,00 0,00 5.230,48 12.921,21 31/05/2023
561 444800 CLAUDIO ARESIO DO CARMO ANALISTA DO MP SETE LAGOAS - COMARCA; SETE LAGOAS-PJ-01PJ 14.960,00 5.984,00 0,00 0,00 0,00 0,00 0,00 2.105,00 23.049,00 3.131,99 3.961,21 0,00 0,00 7.093,20 15.955,80 31/05/2023
562 545100 CLAUDIO HENRIQUE MACEDO DE SOUZA FRANSOZO ANALISTA DO MP OURO PRETO - COMARCA; OURO PRETO-PJ-03PJ 12.343,61 2.468,72 0,00 0,00 0,00 0,00 0,00 3.055,00 17.867,33 982,16 2.767,68 0,00 0,00 3.749,84 14.117,49 31/05/2023
563 353500 CLAUDIO HENRIQUE PEDRO DA ROCHA OFICIAL DO MP BELO HORIZONTE - COMARCA; DIVISAO TRANSPORTES 12.343,61 3.703,08 0,00 0,00 0,00 0,00 0,00 2.105,00 18.151,69 2.348,42 2.777,79 0,00 0,00 5.126,21 13.025,48 31/05/2023
564 265800 CLAUDIO KUPIDLOWSKY FERNANDES OFICIAL DO MP BELO HORIZONTE - COMARCA; SECRETARIA DO PROCON-MG 12.343,61 4.937,44 0,00 0,00 0,00 0,00 0,00 2.105,00 19.386,05 2.545,92 2.156,41 0,00 0,00 4.702,33 14.683,72 31/05/2023
565 193600 CLAUDIO LEITE FONTES OFICIAL DO MP ITUIUTABA - COMARCA; ITUIUTABA-PJ-02PJ 12.343,61 6.171,81 0,00 0,00 0,00 0,00 0,00 2.105,00 20.620,42 2.743,42 3.089,34 0,00 0,00 5.832,76 14.787,66 31/05/2023
566 329400 CLAUDIO MARCIO BERNARDES OFICIAL DO MP ITAÚNA - COMARCA; ITAUNA-PJ-03PJ 12.343,61 9.874,89 0,00 0,00 0,00 0,00 0,00 3.055,00 25.273,50 3.335,91 4.255,62 0,00 0,00 7.591,53 17.681,97 31/05/2023
567 270200 CLAUDIO RABELO ALVES OFICIAL DO MP FORMIGA - COMARCA; FORMIGA-PJ-03PJ 14.960,00 5.984,00 0,00 0,00 0,00 0,00 0,00 2.105,00 23.049,00 3.131,99 3.856,93 0,00 0,00 6.988,92 16.060,08 31/05/2023
568 264700 CLAUDIO ROBERTO KFURI DE ARAUJO ANALISTA DO MP BELO HORIZONTE - COMARCA; CENTRAL DE APOIO TECNICO-SETOR DE INFORMATICA 23.070,31 6.921,09 0,00 0,00 0,00 0,00 0,00 2.105,00 32.096,40 4.579,57 5.999,02 0,00 0,00 10.578,59 21.517,81 31/05/2023
569 543300 CLAUDIO SILVA DE CARVALHO ANALISTA DO MP CAMPO BELO - COMARCA; CAMPO BELO-PJ-03PJ 11.577,56 1.157,76 0,00 0,00 0,00 0,00 0,00 2.105,00 14.840,32 1.818,60 2.065,00 0,00 0,00 3.883,60 10.956,72 31/05/2023
570 160700 CLAUDIO VICENTE HESS ASSESSOR DE GABINETE I BELO HORIZONTE - COMARCA; CENTRAL DE APOIO TECNICO-SETOR DE INFORMATICA 0,00 9.065,39 18.130,77 0,00 0,00 0,00 498,60 7.544,23 35.238,99 876,95 6.661,05 0,00 0,00 7.538,00 27.700,99 31/05/2023
571 312900 CLAUDIO VIEIRA FIRPE OFICIAL DO MP BELO HORIZONTE - COMARCA; DIR RELACOES INSTITUCIONAIS 12.343,61 3.703,08 0,00 0,00 0,00 0,00 0,00 2.105,00 18.151,69 2.348,42 2.882,06 0,00 0,00 5.230,48 12.921,21 31/05/2023
572 634100 CLEA CRISTINA GUERRA DE FREITAS COSTA OFICIAL DO MP BELO HORIZONTE - COMARCA; BH-18PJ VIOLENCIA DOMESTICA-SECRETARIA 7.270,07 727,01 0,00 0,00 0,00 0,00 0,00 2.105,00 10.102,08 1.060,48 970,47 0,00 0,00 2.030,95 8.071,13 31/05/2023
573 459200 CLEIA ZILLE PEREIRA ANALISTA DO MP BELO HORIZONTE - COMARCA; BH-07PJ 01 TRIBUNAL DO JURI-GAB 059PJ 12.343,61 2.468,72 0,00 0,00 0,00 0,00 0,00 3.530,00 18.342,33 2.150,92 2.596,93 0,00 0,00 4.747,85 13.594,48 31/05/2023
574 481800 CLEIDE CARDOSO DA SILVA ANALISTA DO MP MANHUAÇU - COMARCA; MANHUACU-PJ-04PJ 12.343,61 2.468,72 0,00 0,00 0,00 0,00 0,00 2.105,00 16.917,33 2.150,92 2.492,65 0,00 0,00 4.643,57 12.273,76 31/05/2023
575 347600 CLEIDIMAR DE OLIVEIRA SILVA OFICIAL DO MP PATOS DE MINAS - COMARCA; PATOS DE MINAS-PJ-03PJ 12.343,61 4.937,44 0,00 0,00 0,00 0,00 0,00 2.105,00 19.386,05 2.545,92 2.958,65 0,00 0,00 5.504,57 13.881,48 31/05/2023
576 396500 CLEIDISON BATISTA DE ANDRADE OFICIAL DO MP RESPLENDOR - COMARCA; RESPLENDOR-PJ-UNPJ 11.212,54 3.363,76 0,00 0,00 0,00 0,00 0,00 2.105,00 16.681,30 2.113,16 2.438,13 0,00 0,00 4.551,29 12.130,01 31/05/2023
577 535100 CLEISON ALVES DA SILVA ANALISTA DO MP BOA ESPERANÇA - COMARCA; BOA ESPERANCA-PJ-01PJ 12.343,61 2.468,72 0,00 0,00 0,00 0,00 217,25 4.474,97 19.504,55 2.150,92 2.492,65 0,00 0,00 4.643,57 14.860,98 31/05/2023
578 298100 CLEONICE AUGUSTA BARROS DE OLIVEIRA ANALISTA DO MP JUIZ DE FORA - COMARCA; JUIZ DE FORA-PJ-08PJ 23.070,31 6.921,09 0,00 0,00 0,00 0,00 0,00 2.105,00 32.096,40 4.579,57 6.103,29 0,00 0,00 10.682,86 21.413,54 31/05/2023
579 114301 CLERES PEREIRA DA SILVA JUNIOR ASSESSOR ADMINISTRATIVO I BELO HORIZONTE - COMARCA; GAECO - SECRETARIA 0,00 2.436,35 4.872,71 0,00 0,00 0,00 4.304,21 2.105,00 13.718,27 876,95 2.480,03 0,00 0,00 3.356,98 10.361,29 31/05/2023
580 264100 CLETO HENRIQUE ANDRADE SILVA ANALISTA DO MP BELO HORIZONTE - COMARCA; DIRETORIA DE SISTEMAS DE INFORMACAO 23.070,31 6.921,09 0,00 0,00 0,00 0,00 0,00 2.105,00 32.096,40 4.579,57 5.999,02 0,00 0,00 10.578,59 21.517,81 31/05/2023
581 334400 CLEUBA DE OLIVEIRA BARCELOS GONCALVES OFICIAL DO MP DIVINÓPOLIS - COMARCA; COORD REG SAUDE MACRORREGIAO SANITARIA OESTE 12.343,61 3.703,08 0,00 0,00 0,00 0,00 3.689,20 2.105,00 21.840,89 2.348,42 3.844,46 0,00 0,00 6.192,88 15.648,01 31/05/2023
582 347500 CLEUSA CORDEIRO DA MATA PIMENTA OFICIAL DO MP CAMPO BELO - COMARCA; CAMPO BELO-PJ-01PJ 12.343,61 11.109,25 0,00 0,00 0,00 3.533,41 0,00 2.105,00 29.091,27 3.533,41 5.512,44 0,00 0,00 9.045,85 20.045,42 31/05/2023
583 510200 CLEZIO SALES SILVA OFICIAL DO MP BRASÓPOLIS - COMARCA; BRASOPOLIS-PJ-UNPJ 7.506,70 1.501,34 0,00 0,00 0,00 0,00 0,00 3.421,36 12.429,40 1.222,23 1.256,14 0,00 0,00 2.478,37 9.951,03 31/05/2023
584 323000 CLOTILDE DE PADUA VIEIRA OFICIAL DO MP BELO HORIZONTE - COMARCA; BH-19PJ SAUDE-SECRETARIA 129PJ 12.343,61 3.703,08 0,00 0,00 0,00 0,00 0,00 2.105,00 18.151,69 2.348,42 2.882,06 0,00 0,00 5.230,48 12.921,21 31/05/2023
585 285200 CLOVIS ANDRE LUDTKE OFICIAL DO MP BELO HORIZONTE - COMARCA; DIVISAO DE MANUTENCAO PREDIAL 13.160,57 3.948,17 0,00 0,00 0,00 0,00 0,00 2.105,00 19.213,74 2.518,35 3.127,40 0,00 0,00 5.645,75 13.567,99 31/05/2023
586 381100 CONCEICAO APARECIDA TEIXEIRA ARANTES ANALISTA DO MP BELO HORIZONTE - COMARCA; BH-23PJ INFRACIONAL-ASS JURIDICA 18.999,41 5.699,82 0,00 0,00 0,00 0,00 4.354,12 8.982,82 38.036,17 4.342,54 5.708,95 0,00 0,00 10.051,49 27.984,68 31/05/2023
587 249900 CONSTANTINO CEZAR GOMES MOTA OFICIAL DO MP MONTES CLAROS - COMARCA; COORD REG BACIA RIOS VERDE GRANDE E PARDO 12.343,61 4.937,44 0,00 0,00 0,00 0,00 570,27 10.226,18 28.077,50 2.545,92 3.062,93 0,00 0,00 5.608,85 22.468,65 31/05/2023
588 481000 CRISHMA ANALIA LOMBELLO ANALISTA DO MP JUIZ DE FORA - COMARCA; JUIZ DE FORA-PJ-13PJ 12.343,61 2.468,72 0,00 0,00 0,00 0,00 0,00 2.105,00 16.917,33 2.150,92 2.544,79 0,00 0,00 4.695,71 12.221,62 31/05/2023
589 523900 CRISTHYANE BAZOLI COSTA GUEDES COUTO OFICIAL DO MP BELO HORIZONTE - COMARCA; BH-04PJ JUIZO REG PÚBLICOS-SECRETARIA 9.699,77 1.939,95 0,00 0,00 0,00 0,00 0,00 2.105,00 13.744,72 1.643,30 1.864,06 0,00 0,00 3.507,36 10.237,36 31/05/2023
590 187000 CRISTIAN DAYVSON EVANGELISTA OFICIAL DO MP JUIZ DE FORA - COMARCA; JUIZ DE FORA-PJ-13PJ 20.533,67 8.213,47 0,00 0,00 0,00 0,00 0,00 2.105,00 30.852,14 4.380,49 5.763,73 0,00 0,00 10.144,22 20.707,92 31/05/2023
591 682100 CRISTIAN TRISTAO DE ANDRADE ASSESSOR PROMOTOR JUSTICA TRÊS CORACOES - COMARCA; TRES CORACOES-PJ-04PJ 0,00 0,00 8.810,89 0,00 0,00 0,00 0,00 2.105,00 10.915,89 876,95 1.709,37 0,00 0,00 2.586,32 8.329,57 31/05/2023
592 319800 CRISTIANA GONCALVES DOS SANTOS GUSMAO OFICIAL DO MP PARAOPEBA - COMARCA; PARAOPEBA-PJ-UNPJ 12.343,61 3.703,08 0,00 0,00 0,00 0,00 0,00 2.105,00 18.151,69 2.348,42 2.882,06 0,00 0,00 5.230,48 12.921,21 31/05/2023
593 520600 CRISTIANA JANAINA BARBOZA JUVENCIO DOS SANTOS ANALISTA DO MP BELO HORIZONTE - COMARCA; BH-02PJ FAMILIA-SECRETARIA 12.343,61 2.468,72 0,00 0,00 0,00 0,00 0,00 2.105,00 16.917,33 2.150,92 2.596,93 0,00 0,00 4.747,85 12.169,48 31/05/2023
594 195600 CRISTIANA SOARES HALABI OFICIAL DO MP UBERABA - COMARCA; UBERABA-PJ-01PJ 20.533,67 8.213,47 0,00 0,00 0,00 0,00 527,03 7.854,43 37.128,60 4.380,49 5.815,87 0,00 0,00 10.196,36 26.932,24 31/05/2023
595 218900 CRISTIANE ALVES BELLES OFICIAL DO MP JUIZ DE FORA - COMARCA; JUIZ DE FORA-PJ-10PJ 7.506,70 3.002,68 0,00 0,00 0,00 0,00 0,00 3.530,00 14.039,38 1.462,45 1.498,67 0,00 0,00 2.961,12 11.078,26 31/05/2023
596 263600 CRISTIANE CARVALHO COUTINHO OFICIAL DO MP BELO HORIZONTE - COMARCA; BH-23PJ INFRACIONAL-SEC EXP 13.588,97 5.435,59 0,00 0,00 0,00 0,00 0,00 2.105,00 21.129,56 2.824,88 3.517,81 0,00 0,00 6.342,69 14.786,87 31/05/2023
597 541000 CRISTIANE COELHO ALVES OFICIAL DO MP ITABIRA - COMARCA; ITABIRA-PJ-03PJ 7.506,70 1.501,34 0,00 0,00 0,00 0,00 0,00 2.105,00 11.113,04 1.222,23 1.204,00 0,00 0,00 2.426,23 8.686,81 31/05/2023
598 441700 CRISTIANE CORRADO DE ANDRADE ANALISTA DO MP BELO HORIZONTE - COMARCA; DIRETORIA DE SISTEMAS DE INFORMACAO 18.130,77 3.626,15 4.020,58 0,00 0,00 0,00 0,00 2.105,00 27.882,50 3.262,06 5.306,79 0,00 0,00 8.568,85 19.313,65 31/05/2023
599 375100 CRISTIANE DAS DORES ERCIO DE LIMA OFICIAL DO MP GOVERNADOR VALADARES - COMARCA; GOVERNADOR VALADARES-PJ-12PJ 11.577,56 3.473,27 0,00 0,00 0,00 0,00 0,00 2.105,00 17.155,83 2.189,08 2.652,02 0,00 0,00 4.841,10 12.314,73 31/05/2023
600 178800 CRISTIANE DE LIMA HOSKEN OFICIAL DO MP BELO HORIZONTE - COMARCA; BH-14PJ DEFESA CONSUMIDOR-GAB 110PJ 21.346,53 8.538,61 0,00 0,00 0,00 0,00 547,89 8.082,03 38.515,06 4.562,57 6.026,61 0,00 0,00 10.589,18 27.925,88 31/05/2023
601 494000 CRISTIANE DE MELO MARQUEZ OLIVEIRA ANALISTA DO MP UBERLÂNDIA - COMARCA; UBERLANDIA-PJ-06PJ 15.447,01 3.089,40 0,00 0,00 0,00 0,00 0,00 3.055,00 21.591,41 2.746,77 3.457,19 0,00 0,00 6.203,96 15.387,45 31/05/2023
602 266100 CRISTIANE DE OLIVEIRA CASTRO OFICIAL DO MP BELO HORIZONTE - COMARCA; BH-14PJ DEFESA CONSUMIDOR-SECRETARIA 17.559,01 7.023,60 0,00 0,00 0,00 0,00 1.771,66 2.105,00 28.459,27 3.714,17 5.236,79 0,00 0,00 8.950,96 19.508,31 31/05/2023
603 329500 CRISTIANE DOS REIS SILVA OFICIAL DO MP ARAXÁ - COMARCA; ARAXA-PJ-04PJ 12.343,61 3.703,08 0,00 0,00 0,00 0,00 0,00 2.105,00 18.151,69 2.348,42 2.777,79 0,00 0,00 5.126,21 13.025,48 31/05/2023
604 301600 CRISTIANE GODINHO PIRES ANALISTA DO MP BETIM - COMARCA; BETIM-PJ-06PJ 23.070,31 6.921,09 0,00 0,00 0,00 0,00 549,84 8.103,28 38.644,52 4.579,57 6.103,29 0,00 0,00 10.682,86 27.961,66 31/05/2023
605 406100 CRISTIANE GONCALVES CHAVES ANALISTA DO MP BELO HORIZONTE - COMARCA; BH-06PJ JUIZO CIVEL-SECRETARIA 18.720,84 7.488,34 0,00 0,00 0,00 0,00 0,00 2.105,00 28.314,18 3.974,42 5.229,60 0,00 0,00 9.204,02 19.110,16 31/05/2023
606 487600 CRISTIANE LOPES DE OLIVEIRA OFICIAL DO MP DIVINÓPOLIS - COMARCA; DIVINOPOLIS-PJ-03PJ 8.810,89 1.762,18 0,00 0,00 0,00 0,00 0,00 2.105,00 12.678,07 1.472,64 1.617,66 0,00 0,00 3.090,30 9.587,77 31/05/2023
607 502500 CRISTIANE MACIEL DE OLIVEIRA GOMES ANALISTA DO MP JUIZ DE FORA - COMARCA; JUIZ DE FORA-PJ-02PJ 12.343,61 2.468,72 0,00 0,00 0,00 0,00 0,00 3.055,00 17.867,33 2.150,92 2.596,93 0,00 0,00 4.747,85 13.119,48 31/05/2023
608 285500 CRISTIANE MAGALHAES LOURENCO ANALISTA DO MP BELO HORIZONTE - COMARCA; CENTRAL DE APOIO TECNICO-SETOR CONTABIL 23.070,31 6.921,09 0,00 0,00 0,00 0,00 549,84 8.103,28 38.644,52 4.579,57 6.051,16 0,00 0,00 10.630,73 28.013,79 31/05/2023
609 536500 CRISTIANE MICHELE DE SOUZA ANALISTA DO MP BARÃO DE COCAIS - COMARCA; BARAO DE COCAIS-PJ-UNPJ 12.343,61 2.468,72 0,00 0,00 0,00 0,00 0,00 2.105,00 16.917,33 2.150,92 2.492,65 0,00 0,00 4.643,57 12.273,76 31/05/2023
610 346600 CRISTIANE NOGUEIRA ANDRADE ANALISTA DO MP BELO HORIZONTE - COMARCA; CENTRAL DE APOIO TECNICO-SETOR CONTABIL 21.346,53 6.403,96 0,00 0,00 0,00 0,00 0,00 2.105,00 29.855,49 4.221,03 5.585,64 0,00 0,00 9.806,67 20.048,82 31/05/2023
611 234000 CRISTIANE OLIVEIRA TOSTES OFICIAL DO MP JUIZ DE FORA - COMARCA; JUIZ DE FORA-PJ-08PJ 18.720,84 7.488,34 0,00 0,00 0,00 0,00 0,00 2.548,33 28.757,51 3.974,42 5.229,60 0,00 0,00 9.204,02 19.553,49 31/05/2023
612 445800 CRISTIANE ORZIL COSTA OFICIAL DO MP SANTA LUZIA - COMARCA; SANTA LUZIA-PJ-05PJ 9.097,81 1.819,56 0,00 0,00 0,00 0,00 0,00 3.055,00 13.972,37 1.527,73 1.697,19 0,00 0,00 3.224,92 10.747,45 31/05/2023
613 616100 CRISTIANE PAES RODRIGUES MARCICANO ANALISTA DO MP CATAGUASES - COMARCA; CATAGUASES-PJ-05PJ 10.516,49 1.051,65 0,00 0,00 0,00 0,00 0,00 3.055,00 14.623,14 1.631,85 1.847,52 0,00 0,00 3.479,37 11.143,77 31/05/2023
614 612300 CRISTIANE RIBEIRO DOS REIS ARCANJO OFICIAL DO MP BELO HORIZONTE - COMARCA; DIRETORIA DE PAGAMENTO DE PESSOAL-DPAG 7.506,70 750,67 0,00 0,00 0,00 0,00 0,00 0,00 8.257,37 1.717,06 809,35 0,00 0,00 2.526,41 5.730,96 31/05/2023
615 257700 CRISTIANE RODRIGUES PAES NUNES ANALISTA DO MP BELO HORIZONTE - COMARCA; BH-22PJ PES COM DEF E IDOSOS-ORIENTACAO PSIC 23.070,31 9.228,12 0,00 0,00 0,00 0,00 473,71 8.222,75 40.994,89 4.948,70 6.584,08 0,00 0,00 11.532,78 29.462,11 31/05/2023
616 510800 CRISTIANE SANTOS FERNANDES ORNELES ANALISTA DO MP BELO HORIZONTE - COMARCA; BH-03PJ EMPRESARIAL-SECRETARIA 12.343,61 2.468,72 0,00 0,00 0,00 0,00 0,00 2.105,00 16.917,33 2.150,92 2.596,93 0,00 0,00 4.747,85 12.169,48 31/05/2023
617 535701 CRISTIANE SANTOS MIRANDA ANALISTA DO MP CONTAGEM - COMARCA; CONTAGEM-PJ-03PJ 10.341,72 1.034,17 0,00 0,00 0,00 0,00 542,25 8.020,46 19.938,60 1.601,09 1.803,11 0,00 0,00 3.404,20 16.534,40 31/05/2023
618 536200 CRISTIANO DE OLIVEIRA ANALISTA DO MP CONCEIÇÃO DO MATO DENTRO - COMARCA; CONCEICAO DO MATO DENTRO-PJ-UNPJ 12.343,61 2.468,72 0,00 0,00 0,00 0,00 0,00 4.005,00 18.817,33 2.150,92 2.492,65 0,00 0,00 4.643,57 14.173,76 31/05/2023
619 477400 CRISTIANO SOARES ELEUTERIO ANALISTA DO MP BELO HORIZONTE - COMARCA; GABINETE DE PROCURADOR DE JUSTIÇA - SALA 812 15.447,01 3.089,40 0,00 0,00 0,00 0,00 0,00 2.105,00 20.641,41 2.746,77 3.457,19 0,00 0,00 6.203,96 14.437,45 31/05/2023
620 449400 CRISTIANO TEIXEIRA RODRIGUES LANA ANALISTA DO MP BELO HORIZONTE - COMARCA; BH-18PJ VIOLENCIA DOMESTICA-SECRETARIA 13.588,97 2.717,79 0,00 0,00 0,00 0,00 0,00 2.105,00 18.411,76 2.390,03 2.942,14 0,00 0,00 5.332,17 13.079,59 31/05/2023
621 239400 CRISTINA DE FATIMA CRUZ E SILVA OFICIAL DO MP MONTE SANTO DE MINAS - COMARCA; MONTE SANTO DE MINAS-PJ-SECRETARIA 17.559,01 7.023,60 0,00 0,00 0,00 0,00 0,00 2.105,00 26.687,61 3.714,17 4.853,86 0,00 0,00 8.568,03 18.119,58 31/05/2023
622 544000 CRISTINA DE OLIVEIRA TERRA ANALISTA DO MP BELO HORIZONTE - COMARCA; BH-18PJ VIOLENCIA DOMESTICA-SECRETARIA 12.343,61 2.468,72 0,00 0,00 0,00 0,00 0,00 2.105,00 16.917,33 2.150,92 2.596,93 0,00 0,00 4.747,85 12.169,48 31/05/2023
623 356800 CRISTINA DE PINHO BARROSO OFICIAL DO MP SABINÓPOLIS - COMARCA; SABINOPOLIS-PJ-UNPJ 10.516,49 4.206,60 0,00 0,00 0,00 0,00 0,00 3.055,00 17.778,09 2.136,64 2.472,04 0,00 0,00 4.608,68 13.169,41 31/05/2023
624 649500 CRISTINA DO DIVINO ESPIRITO SANTOS OFICIAL DO MP DIVINÓPOLIS - COMARCA; DIVINOPOLIS-PJ-12PJ 6.603,76 660,38 0,00 0,00 0,00 0,00 0,00 2.105,00 9.369,14 944,43 852,96 0,00 0,00 1.797,39 7.571,75 31/05/2023
625 727100 CRISTINA DORNELLES CLARET ASSESSOR ADMINISTRATIVO III BELO HORIZONTE - COMARCA; CAO-MEIO AMBIENTE 0,00 0,00 10.858,90 0,00 0,00 0,00 0,00 2.105,00 12.963,90 876,95 2.272,58 0,00 0,00 3.149,53 9.814,37 31/05/2023
626 348201 CRISTINA MARIA DA SILVA ANALISTA DO MP BELO HORIZONTE - COMARCA; CENT ESTAD COOPERACAO TECNICO-JURIDICA 12.343,61 2.468,72 0,00 0,00 0,00 0,00 0,00 3.530,00 18.342,33 2.150,92 2.596,93 0,00 0,00 4.747,85 13.594,48 31/05/2023
627 434900 CRISTINA MELO DE MADUREIRA ANALISTA DO MP BELO HORIZONTE - COMARCA; BH-07PJ 01 TRIBUNAL JURI-SECRETARIA 18.130,77 3.626,15 0,00 0,00 0,00 0,00 0,00 2.105,00 23.861,92 3.262,06 4.201,13 0,00 0,00 7.463,19 16.398,73 31/05/2023
628 307700 CRISTINA TEIXEIRA MARQUES OFICIAL DO MP BELO HORIZONTE - COMARCA; CENTRAL DE APOIO TECNICO-SETOR CONTABIL 12.343,61 3.703,08 0,00 0,00 0,00 0,00 0,00 2.105,00 18.151,69 2.348,42 2.882,06 0,00 0,00 5.230,48 12.921,21 31/05/2023
629 265300 CRISTOVAO SANCHES DE MEDEIROS ANALISTA DO MP BELO HORIZONTE - COMARCA; DIRETORIA DE CONTABILIDADE 22.191,68 6.657,50 0,00 0,00 0,00 0,00 0,00 2.105,00 30.954,18 4.396,82 5.839,44 0,00 0,00 10.236,26 20.717,92 31/05/2023
630 349800 CROZEIR LUIZ DA SILVA OFICIAL DO MP UNAÍ - COMARCA; UNAI-PJ-SECRETARIA 12.343,61 3.703,08 0,00 0,00 0,00 0,00 0,00 3.894,20 19.940,89 2.348,42 2.829,93 0,00 0,00 5.178,35 14.762,54 31/05/2023
631 490500 CYNTHIA CRISTINA DE SOUZA OLIVEIRA VALENTE ANALISTA DO MP BELO HORIZONTE - COMARCA; BH-09PJ AUDITORIA MILITAR-SECRETARIA 12.343,61 2.468,72 0,00 0,00 0,00 0,00 0,00 2.105,00 16.917,33 2.150,92 2.596,93 0,00 0,00 4.747,85 12.169,48 31/05/2023
632 389800 CYNTHIA GARIGLIO DOS SANTOS OFICIAL DO MP PERDIZES - COMARCA; PERDIZES-PJ-SECRETARIA 10.858,90 3.257,67 0,00 0,00 0,00 0,00 0,00 2.105,00 16.221,57 2.039,60 2.279,80 0,00 0,00 4.319,40 11.902,17 31/05/2023
633 335101 CYNTHIA GONTIJO D ASSUNCAO ANALISTA DO MP BELO HORIZONTE - COMARCA; FEPDC-SECRETARIA EXECUTIVA 12.343,61 2.468,72 4.020,58 0,00 0,00 0,00 0,00 3.055,00 21.887,91 2.150,92 3.702,59 0,00 0,00 5.853,51 16.034,40 31/05/2023
634 269700 CYNTIA ROCHA CAVALCANTI OFICIAL DO MP UBERLÂNDIA - COMARCA; UBERLANDIA-PJ-06PJ 17.559,01 5.267,70 0,00 0,00 0,00 0,00 0,00 3.055,00 25.881,71 3.433,22 4.448,25 0,00 0,00 7.881,47 18.000,24 31/05/2023
635 278000 DAIRTON LOPES MARTINS FILHO COORDENADOR II BELO HORIZONTE - COMARCA; DIRETORIA DE SISTEMAS DE INFORMACAO 20.533,67 6.160,10 0,00 0,00 0,00 0,00 195,75 4.240,50 31.130,02 2.348,42 5.810,01 0,00 0,00 8.158,43 22.971,59 31/05/2023
636 392700 DALIANA CHAVES IBRAIM MARINHO OFICIAL DO MP ITAÚNA - COMARCA; ITAUNA-PJ-04PJ 9.393,95 1.878,79 0,00 0,00 0,00 0,00 0,00 2.105,00 13.377,74 1.584,59 1.779,28 0,00 0,00 3.363,87 10.013,87 31/05/2023
637 558101 DALLEY TASSIA SILVA ANALISTA DO MP MORADA NOVA DE MINAS - COMARCA; MORADA NOVA DE MINAS-PJ-UNPJ 11.577,56 1.157,76 0,00 0,00 0,00 0,00 0,00 3.055,00 15.790,32 1.818,60 2.012,86 0,00 0,00 3.831,46 11.958,86 31/05/2023
638 476700 DALTON DAUD ANALISTA DO MP ARAGUARI - COMARCA; ARAGUARI-PJ-05PJ 12.343,61 2.468,72 0,00 0,00 0,00 0,00 0,00 2.105,00 16.917,33 2.150,92 2.492,65 0,00 0,00 4.643,57 12.273,76 31/05/2023
639 426900 DANIEL ALVES DA SILVA OFICIAL DO MP BELO HORIZONTE - COMARCA; DIVISÃO DE FISCALIZAÇÃO DAS RELAÇÕES DE CONSU 7.506,70 1.501,34 0,00 0,00 0,00 0,00 0,00 2.105,00 11.113,04 1.222,23 1.151,86 0,00 0,00 2.374,09 8.738,95 31/05/2023
640 714000 DANIEL FERREIRA CAMARA ASSESSOR PROMOTOR JUSTICA RIBEIRÃO DAS NEVES - COMARCA; RIBEIRAO DAS NEVES-PJ-12PJ 0,00 0,00 8.810,89 0,00 0,00 0,00 0,00 2.105,00 10.915,89 876,95 1.709,37 0,00 0,00 2.586,32 8.329,57 31/05/2023
641 411000 DANIEL FERREIRA DA SILVA ANALISTA DO MP GOVERNADOR VALADARES - COMARCA; GOVERNADOR VALADARES-PJ-15PJ 17.559,01 7.023,60 0,00 0,00 8.194,20 0,00 540,82 10.379,83 43.697,46 3.714,17 6.898,72 0,00 0,00 10.612,89 33.084,57 31/05/2023
642 703500 DANIEL FILIPE DE DEUS SOARES ASSESSOR PROMOTOR JUSTICA ITABIRITO - COMARCA; ITABIRITO-PJ-02PJ 0,00 0,00 8.810,89 0,00 0,00 0,00 0,00 2.105,00 10.915,89 876,95 1.709,37 0,00 0,00 2.586,32 8.329,57 31/05/2023
643 309000 DANIEL GOMES DOS SANTOS ANALISTA DO MP POÇOS DE CALDAS - COMARCA; POCOS DE CALDAS-PJ-05PJ 23.070,31 6.921,09 0,00 0,00 0,00 0,00 549,84 8.103,28 38.644,52 4.579,57 6.103,29 0,00 0,00 10.682,86 27.961,66 31/05/2023
644 554500 DANIEL GOMES PEREIRA OFICIAL DO MP NANUQUE - COMARCA; NANUQUE-PJ-02PJ 7.506,70 750,67 0,00 0,00 0,00 0,00 0,00 2.105,00 10.362,37 1.102,13 1.082,73 0,00 0,00 2.184,86 8.177,51 31/05/2023
645 453000 DANIEL GONCALVES PEREIRA ANALISTA DO MP UNAÍ - COMARCA; UNAI-PJ-02PJ 12.343,61 2.468,72 0,00 0,00 0,00 0,00 0,00 4.480,00 19.292,33 2.150,92 2.596,93 0,00 0,00 4.747,85 14.544,48 31/05/2023
646 495500 DANIEL GUIMARAES CABRAL OFICIAL DO MP BELO HORIZONTE - COMARCA; BH-17PJ PATRIMONIO PUBLICO-SECRETARIA 10.015,59 2.003,12 0,00 0,00 0,00 0,00 0,00 3.055,00 15.073,71 1.703,94 1.951,60 0,00 0,00 3.655,54 11.418,17 31/05/2023
647 442900 DANIEL GUIMARAES GONCALVES ANALISTA DO MP UBERLÂNDIA - COMARCA; UBERLANDIA-PJ-03PJ 17.559,01 3.511,80 0,00 0,00 0,00 0,00 0,00 2.105,00 23.175,81 982,16 4.359,68 0,00 0,00 5.341,84 17.833,97 31/05/2023
648 655900 DANIEL LUIZ DA SILVA ASSESSOR ADMINISTRATIVO II BELO HORIZONTE - COMARCA; DIV FISCAL ADM CONT TERCEIRIZACAO 0,00 0,00 7.506,70 0,00 0,00 0,00 0,00 2.105,00 9.611,70 876,95 1.350,72 0,00 0,00 2.227,67 7.384,03 31/05/2023
649 464600 DANIEL PIACENTINI STIVANIN ANALISTA DO MP ANDRADAS - COMARCA; ANDRADAS-PJ-02PJ 12.343,61 2.468,72 0,00 0,00 0,00 0,00 0,00 2.105,00 16.917,33 2.150,92 2.596,93 0,00 0,00 4.747,85 12.169,48 31/05/2023
650 417000 DANIEL QUEIROZ FERREIRA ANALISTA DO MP PASSOS - COMARCA; PASSOS-PJ-06PJ 17.559,01 3.511,80 0,00 0,00 0,00 0,00 0,00 3.055,00 24.125,81 982,16 4.359,68 0,00 0,00 5.341,84 18.783,97 31/05/2023
651 396700 DANIEL SILVA CARNEVALLI SUPERINTENDENTE BELO HORIZONTE - COMARCA; SUPERINTENDENCIA DE TECNOLOGIA DA INFORMACAO 28.013,39 8.404,02 0,00 0,00 0,00 0,00 3.427,90 9.890,27 49.735,58 4.123,10 8.766,34 0,00 0,00 12.889,44 36.846,14 31/05/2023
652 489300 DANIEL TABOZA ROCHA ANALISTA DO MP IPATINGA - COMARCA; IPATINGA-PJ-08PJ 12.343,61 2.468,72 0,00 0,00 0,00 0,00 0,00 3.055,00 17.867,33 982,16 2.767,68 0,00 0,00 3.749,84 14.117,49 31/05/2023
653 414100 DANIEL TARDELI VALADAO ANALISTA DO MP TRÊS CORACOES - COMARCA; TRES CORACOES-PJ-02PJ 17.559,01 3.511,80 0,00 0,00 0,00 0,00 0,00 2.105,00 23.175,81 982,16 4.151,13 0,00 0,00 5.133,29 18.042,52 31/05/2023
654 731800 DANIEL VASCONCELOS ARAUJO SILVA ASSESSOR ADMINISTRATIVO IV BELO HORIZONTE - COMARCA; DIRETORIA DE REDES E BANCOS DE DADOS 0,00 0,00 14.488,22 0,00 0,00 0,00 0,00 2.105,00 16.593,22 876,95 3.270,64 0,00 0,00 4.147,59 12.445,63 31/05/2023
655 446601 DANIEL VIEIRA BUENO ANALISTA DO MP SÃO DOMINGOS DO PRATA - COMARCA; SAO DOMINGOS DO PRATA-PJ-UNPJ 12.343,61 1.234,36 0,00 0,00 0,00 0,00 0,00 3.055,00 16.632,97 1.953,42 2.259,65 0,00 0,00 4.213,07 12.419,90 31/05/2023
656 253200 DANIELA BATISTA LIMA BARBOSA ASSESSOR ADMINISTRATIVO II BELO HORIZONTE - COMARCA; CENTRAL DE APOIO TECN-SETOR DE MEIO AMBIENTE 0,00 3.002,68 7.506,70 0,00 0,00 0,00 0,00 2.105,00 12.614,38 876,95 2.176,46 0,00 0,00 3.053,41 9.560,97 31/05/2023
657 505800 DANIELA BORGES DE MATTOS RESENDE ANALISTA DO MP JUIZ DE FORA - COMARCA; JUIZ DE FORA-PJ-20PJ 12.343,61 2.468,72 0,00 0,00 0,00 0,00 0,00 2.105,00 16.917,33 2.150,92 2.596,93 0,00 0,00 4.747,85 12.169,48 31/05/2023
658 478000 DANIELA CARVALHO SOARES ANALISTA DO MP SÃO JOÃO DEL REI - COMARCA; SAO JOAO DEL REI-PJ-01PJ 12.343,61 2.468,72 0,00 0,00 0,00 0,00 0,00 2.105,00 16.917,33 2.150,92 2.596,93 0,00 0,00 4.747,85 12.169,48 31/05/2023
659 275900 DANIELA CHAGAS SODRE ANALISTA DO MP BELO HORIZONTE - COMARCA; CENTRAL DE APOIO TECNICO-SETOR CONTABIL 23.070,31 6.921,09 0,00 0,00 0,00 0,00 0,00 2.105,00 32.096,40 4.579,57 6.051,16 0,00 0,00 10.630,73 21.465,67 31/05/2023
660 234301 DANIELA CRUZ SOARES ANALISTA DO MP BELO HORIZONTE - COMARCA; LABORATORIO TECNOLOGIA INTELIGENCIA 23.070,31 9.228,12 0,00 0,00 0,00 0,00 0,00 2.105,00 34.403,43 4.948,70 6.636,22 0,00 0,00 11.584,92 22.818,51 31/05/2023
661 638000 DANIELA DE ALMEIDA BATISTA ANALISTA DO MP ANDRELÂNDIA - COMARCA; ANDRELANDIA-PJ-UNPJ 11.212,54 1.121,25 0,00 0,00 0,00 0,00 0,00 3.055,00 15.388,79 982,16 2.236,74 0,00 0,00 3.218,90 12.169,89 31/05/2023
662 301000 DANIELA DE ALMEIDA E OLIVEIRA ANALISTA DO MP BELO HORIZONTE - COMARCA; DIRETORIA DE SISTEMAS DE INFORMACAO 23.070,31 6.921,09 0,00 0,00 0,00 0,00 0,00 2.105,00 32.096,40 4.579,57 6.103,29 0,00 0,00 10.682,86 21.413,54 31/05/2023
663 296000 DANIELA DE AZEVEDO SILVA ANALISTA DO MP BRASÓPOLIS - COMARCA; BRASOPOLIS-PJ-UNPJ 23.070,31 9.228,12 0,00 0,00 0,00 0,00 0,00 2.105,00 34.403,43 4.948,70 6.636,22 0,00 0,00 11.584,92 22.818,51 31/05/2023
664 453500 DANIELA DE CASTRO SOUSA BARBOSA ANALISTA DO MP BELO HORIZONTE - COMARCA; BH-08PJ JUIZADO ESPECIAL-SECRETARIA 13.588,97 2.717,79 0,00 0,00 0,00 0,00 0,00 2.105,00 18.411,76 2.390,03 2.942,14 0,00 0,00 5.332,17 13.079,59 31/05/2023
665 506000 DANIELA DE OLIVEIRA CAVALIERI ANALISTA DO MP BELO HORIZONTE - COMARCA; BH-14PJ DEFESA CONSUMIDOR-GAB 005PJ 12.343,61 2.468,72 0,00 0,00 0,00 0,00 108,62 3.289,99 18.210,94 2.150,92 2.596,93 0,00 0,00 4.747,85 13.463,09 31/05/2023
666 546200 DANIELA DE VILHENA LEMES GONCALVES OFICIAL DO MP TRÊS CORACOES - COMARCA; TRES CORACOES-PJ-05PJ 7.506,70 750,67 0,00 0,00 0,00 0,00 0,00 2.105,00 10.362,37 1.102,13 978,46 0,00 0,00 2.080,59 8.281,78 31/05/2023
667 356400 DANIELA LEAL FERRAZ ANALISTA DO MP MONTES CLAROS - COMARCA; COORD REG PJ DEF EDUC DIR CRIANCA ADOL NORTE 20.533,67 6.160,10 0,00 0,00 0,00 0,00 195,75 4.240,50 31.130,02 4.051,95 5.341,54 0,00 0,00 9.393,49 21.736,53 31/05/2023
668 501000 DANIELA LOURENCO SANTOS DA SILVA GUIMARAES ANALISTA DO MP BELO HORIZONTE - COMARCA; BH-12PJ JUIZO CRIMINAL-GAB 095PJ 12.343,61 2.468,72 0,00 0,00 0,00 0,00 0,00 2.105,00 16.917,33 2.150,92 2.544,79 0,00 0,00 4.695,71 12.221,62 31/05/2023
669 195801 DANIELA MARIA DE OLIVEIRA QUEIROZ ANALISTA DO MP ARAGUARI - COMARCA; ARAGUARI-PJ-06PJ 18.130,77 7.252,31 0,00 0,00 0,00 0,00 558,43 8.196,94 34.138,45 3.842,24 5.038,77 0,00 0,00 8.881,01 25.257,44 31/05/2023
670 511400 DANIELA MARIA LARA DE OLIVEIRA ANALISTA DO MP BOA ESPERANÇA - COMARCA; BOA ESPERANCA-PJ-02PJ 12.343,61 2.468,72 0,00 0,00 0,00 0,00 0,00 3.055,00 17.867,33 2.150,92 2.544,79 0,00 0,00 4.695,71 13.171,62 31/05/2023
671 252101 DANIELA PAULA ALVES PENA ANALISTA DO MP CONTAGEM - COMARCA; CONTAGEM-PJ-APO TECNICO 18.720,84 7.488,34 0,00 0,00 0,00 0,00 0,00 2.105,00 28.314,18 3.974,42 5.229,60 0,00 0,00 9.204,02 19.110,16 31/05/2023
672 604700 DANIELA PEIXOTO NOGUEIRA COORDENADOR II BELO HORIZONTE - COMARCA; DIRET DE FORMACAO, APERFEIC. E POS-GRADUACAO 20.533,67 2.053,37 0,00 0,00 0,00 0,00 0,00 3.055,00 25.642,04 1.102,13 5.023,39 0,00 0,00 6.125,52 19.516,52 31/05/2023
673 662000 DANIELA RIBAS DE AVILA ASSESSOR ADMINISTRATIVO III BELO HORIZONTE - COMARCA; CENTRO AUTOCOMPOSICAO DE CONFLITOS 0,00 0,00 10.858,90 0,00 0,00 0,00 0,00 2.105,00 12.963,90 876,95 2.272,58 0,00 0,00 3.149,53 9.814,37 31/05/2023
674 462000 DANIELA SOUSA GOMES DO AMARAL ANALISTA DO MP BETIM - COMARCA; BETIM-PJ-04PJ 14.960,00 2.992,00 0,00 0,00 0,00 0,00 0,00 2.105,00 20.057,00 2.653,27 3.322,19 0,00 0,00 5.975,46 14.081,54 31/05/2023
675 427000 DANIELA TEIXEIRA DINIZ ANDRADE ANALISTA DO MP BELO HORIZONTE - COMARCA; DIRETORIA DE PROJETOS DE EDIFICACOES 13.160,57 2.632,11 4.020,58 0,00 0,00 0,00 0,00 2.105,00 21.918,26 2.307,78 3.876,91 0,00 0,00 6.184,69 15.733,57 31/05/2023
676 337200 DANIELA TOLEDO SENIUK ANALISTA DO MP BELO HORIZONTE - COMARCA; GABINETE DE PROCURADOR DE JUSTIÇA - SALA 412 23.070,31 6.921,09 0,00 0,00 0,00 0,00 549,84 8.103,28 38.644,52 4.579,57 6.103,29 0,00 0,00 10.682,86 27.961,66 31/05/2023
677 605600 DANIELE ALZIRA SILVA CABRAL MOREIRA OFICIAL DO MP BELO HORIZONTE - COMARCA; BH-10PJ EXECUÇÃO PENAL-SECRETARIA 7.506,70 750,67 0,00 0,00 0,00 0,00 544,99 8.050,31 16.852,67 1.102,13 1.082,73 0,00 0,00 2.184,86 14.667,81 31/05/2023
678 195500 DANIELE CHAVES FONSECA OFICIAL DO MP BELO HORIZONTE - COMARCA; CGMP-DIR INSP CORR PROCED PROC DISC 20.533,67 8.213,47 0,00 0,00 0,00 0,00 527,03 7.854,43 37.128,60 4.380,49 5.815,87 0,00 0,00 10.196,36 26.932,24 31/05/2023
679 323400 DANIELE MEGALE SANTINI OFICIAL DO MP BELO HORIZONTE - COMARCA; CGMP-DIR INSP CORR PROCED PROC DISC 13.588,97 4.076,69 0,00 0,00 0,00 0,00 0,00 2.105,00 19.770,66 2.607,45 3.203,91 0,00 0,00 5.811,36 13.959,30 31/05/2023
680 357900 DANIELE REJANE PINTO VERSIEUX OFICIAL DO MP PEDRO LEOPOLDO - COMARCA; PEDRO LEOPOLDO-PJ-03PJ 12.343,61 3.703,08 0,00 0,00 0,00 0,00 0,00 2.105,00 18.151,69 2.348,42 2.882,06 0,00 0,00 5.230,48 12.921,21 31/05/2023
681 389500 DANIELE VASCONCELOS AMORIM OFICIAL DO MP SÃO SEBASTIÃO DO PARAÍSO - COMARCA; SAO SEBASTIAO DO PARAISO-PJ-04PJ 12.343,61 3.703,08 0,00 0,00 0,00 0,00 0,00 2.105,00 18.151,69 2.348,42 2.882,06 0,00 0,00 5.230,48 12.921,21 31/05/2023
682 629700 DANIELLA BASTOS MARTINS BICALHO OFICIAL DO MP GOVERNADOR VALADARES - COMARCA; GOVERNADOR VALADARES-PJ-16PJ 7.506,70 750,67 0,00 0,00 0,00 0,00 0,00 2.105,00 10.362,37 1.102,13 1.082,73 0,00 0,00 2.184,86 8.177,51 31/05/2023
683 725500 DANIELLE CAMILE OLIVEIRA FONSECA ASSESSOR PROCURADOR JUSTICA BELO HORIZONTE - COMARCA; GABINETE DE PROCURADOR DE JUSTIÇA - SALA 501 0,00 0,00 8.810,89 0,00 2.936,96 0,00 0,00 2.105,00 13.852,85 876,95 2.517,04 0,00 0,00 3.393,99 10.458,86 31/05/2023
684 265000 DANIELLE CASTANHEIRA SCALABRINI OFICIAL DO MP BELO HORIZONTE - COMARCA; JUNTA RECURSAL DO PROCON ESTADUAL 12.343,61 3.703,08 0,00 0,00 0,00 0,00 0,00 2.105,00 18.151,69 2.348,42 2.829,93 0,00 0,00 5.178,35 12.973,34 31/05/2023
685 490100 DANIELLE DE AVILA SILVA LOPES ANALISTA DO MP BELO HORIZONTE - COMARCA; PROC. JUSTICA DIR. DIFUSOS E COLETIVOS-SEC 12.343,61 3.703,08 0,00 0,00 0,00 0,00 0,00 2.105,00 18.151,69 2.348,42 2.882,06 0,00 0,00 5.230,48 12.921,21 31/05/2023
686 549600 DANIELLE GOMES LOPES RODRIGUES OFICIAL DO MP BELO HORIZONTE - COMARCA; COORD DE GABINETE DO PGJ 7.506,70 1.501,34 0,00 0,00 0,00 0,00 750,67 2.105,00 11.863,71 1.342,34 1.429,54 0,00 0,00 2.771,88 9.091,83 31/05/2023
687 613000 DANIELLE SILVA OLIVEIRA FRANKLIN COORDENADOR II BELO HORIZONTE - COMARCA; DIRETORIA DE ORCAMENTO-DIOR/SPC 20.332,15 2.033,22 0,00 0,00 0,00 0,00 0,00 3.055,00 25.420,37 1.154,10 4.938,39 0,00 35,47 6.127,96 19.292,41 31/05/2023
688 722800 DANIELLE VALENTIM SOUZA ASSESSOR PROCURADOR JUSTICA BELO HORIZONTE - COMARCA; GABINETE DE PROCURADOR DE JUSTIÇA - SALA 606 0,00 0,00 8.810,89 0,00 0,00 0,00 0,00 2.105,00 10.915,89 876,95 1.709,37 0,00 0,00 2.586,32 8.329,57 31/05/2023
689 736400 DANIELLY VITORIA MARIA RUELA ASSESSOR PROMOTOR JUSTICA BELO HORIZONTE - COMARCA; SUPER DE GESTAO DE PESSOAS-LOTACAO TEMPORARIA 0,00 0,00 6.461,32 0,00 0,00 0,00 0,00 1.695,91 8.157,23 876,95 950,74 0,00 0,00 1.827,69 6.329,54 31/05/2023
690 380800 DANILLO RIBEIRO ANTUNES ANALISTA DO MP MONTES CLAROS - COMARCA; MONTES CLAROS-PJ-SECRETARIA 18.720,84 5.616,25 0,00 0,00 0,00 0,00 1.771,66 2.105,00 28.213,75 3.674,88 5.232,22 0,00 0,00 8.907,10 19.306,65 31/05/2023
691 453700 DANILO BOTELHO DE CARVALHO SUPERINTENDENTE BELO HORIZONTE - COMARCA; SUPERINTENDENCIA DE FINANCAS 28.013,39 5.602,68 0,00 0,00 0,00 0,00 493,04 7.483,57 41.592,68 3.152,28 7.492,58 0,00 0,00 10.644,86 30.947,82 31/05/2023
692 391200 DANILO D'AVILA MENDES ANALISTA DO MP MONTES CLAROS - COMARCA; GAECO REGIONAL DE MONTES CLAROS 18.720,84 5.616,25 0,00 0,00 0,00 0,00 0,00 3.055,00 27.392,09 3.674,88 4.797,15 0,00 0,00 8.472,03 18.920,06 31/05/2023
693 710900 DANILO DE SOUZA RODRIGUES ASSESSOR PROMOTOR JUSTICA IPANEMA - COMARCA; IPANEMA-PJ-01PJ 0,00 0,00 8.810,89 0,00 0,00 0,00 0,00 2.105,00 10.915,89 876,95 1.709,37 0,00 0,00 2.586,32 8.329,57 31/05/2023
694 494900 DANILO GAVIAO AVELINO DE MELLO ANALISTA DO MP POUSO ALEGRE - COMARCA; GAECO REGIONAL DE POUSO ALEGRE 12.343,61 2.468,72 0,00 0,00 0,00 0,00 0,00 2.105,00 16.917,33 2.150,92 2.596,93 0,00 0,00 4.747,85 12.169,48 31/05/2023
695 604300 DANILO NASCIMENTO SALGADO ANALISTA DO MP JANAÚBA - COMARCA; JANAUBA-PJ-01PJ 12.343,61 1.234,36 0,00 0,00 0,00 0,00 0,00 2.105,00 15.682,97 1.953,42 2.311,79 0,00 0,00 4.265,21 11.417,76 31/05/2023
696 298300 DANUZA MONICA DE SOUZA DINIZ ANALISTA DO MP BELO HORIZONTE - COMARCA; CAO-FUNDACOES-ASSESSORIA JURIDICA 22.191,68 6.657,50 0,00 0,00 0,00 0,00 528,90 7.874,84 37.252,92 4.396,82 5.787,30 0,00 0,00 10.184,12 27.068,80 31/05/2023
697 398700 DARCY LUIZ MILEO GREGATTI OFICIAL DO MP LAMBARI - COMARCA; LAMBARI-PJ-SECRETARIA 11.954,43 3.586,33 0,00 0,00 0,00 0,00 1.261,19 2.822,26 19.624,21 2.458,74 3.041,34 0,00 0,00 5.500,08 14.124,13 31/05/2023
698 406200 DARIANA AUGUSTA DE TOLEDO PATROCINIO RUIZ COORDENADOR II BELO HORIZONTE - COMARCA; DIRETORIA GESTAO COMPRAS LICITACOES 20.533,67 4.106,73 0,00 0,00 0,00 0,00 90,35 4.040,62 28.771,37 2.150,92 5.299,65 0,00 0,00 7.450,57 21.320,80 31/05/2023
699 586901 DARIO VITORINO DE CARVALHO SILVA ASSESSOR ADM. ESPECIAL BELO HORIZONTE - COMARCA; DIRETORIA DE SEGURANCA 0,00 0,00 28.013,39 0,00 0,00 0,00 205,43 4.346,07 32.564,89 876,95 6.937,92 0,00 0,00 7.814,87 24.750,02 31/05/2023
700 305000 DARLI LEITE DE OLIVEIRA OFICIAL DO MP ARAÇUAÍ - COMARCA; ARACUAI-PJ-01PJ 7.506,70 2.252,01 0,00 0,00 0,00 0,00 0,00 2.105,00 11.863,71 1.342,34 1.273,13 0,00 0,00 2.615,47 9.248,24 31/05/2023
701 729400 DAVI PIMENTA ASSESSOR PROMOTOR JUSTICA CANDEIAS - COMARCA; CANDEIAS-PJ-UNPJ 0,00 0,00 8.810,89 0,00 0,00 0,00 0,00 2.105,00 10.915,89 876,95 1.709,37 0,00 0,00 2.586,32 8.329,57 31/05/2023
702 122200 DAVID RIBEIRO DOS SANTOS ANALISTA DO MP BORDA DA MATA - COMARCA; BORDA DA MATA-PJ-UNPJ 23.070,31 23.070,31 0,00 0,00 0,00 5.795,34 477,24 7.311,23 59.724,43 5.795,34 9.452,28 8.550,66 0,00 23.798,28 35.926,15 31/05/2023
703 389400 DAWSON CANEDO MARQUES OFICIAL DO MP POUSO ALEGRE - COMARCA; POUSO ALEGRE-PJ-SECRETARIA 12.343,61 3.703,08 0,00 0,00 0,00 0,00 0,00 3.055,00 19.101,69 2.348,42 2.010,86 0,00 0,00 4.359,28 14.742,41 31/05/2023
704 537200 DAYANE TEIXEIRA DE OLIVEIRA CASELLI ANALISTA DO MP BELO HORIZONTE - COMARCA; ASSESS TECNICO-JUR JUNTO AS PROC. DE JUST 10.341,72 1.034,17 0,00 0,00 0,00 0,00 0,00 2.105,00 13.480,89 1.601,09 1.803,11 0,00 0,00 3.404,20 10.076,69 31/05/2023
705 256100 DAYSE ROSALY PEREIRA BATISTA OFICIAL DO MP BELO HORIZONTE - COMARCA; BH-08PJ JUIZADO ESPECIAL-SECRETARIA 12.343,61 4.937,44 0,00 0,00 0,00 0,00 0,00 2.105,00 19.386,05 2.545,92 3.167,20 0,00 0,00 5.713,12 13.672,93 31/05/2023
706 311901 DEBORA APARECIDA DA SILVA ASSESSOR ADMINISTRATIVO I BELO HORIZONTE - COMARCA; BH-23PJ CIVEL-SETOR JURIDICO 0,00 0,00 4.872,71 0,00 0,00 0,00 0,00 2.105,00 6.977,71 718,08 670,06 0,00 0,00 1.388,14 5.589,57 31/05/2023
707 194301 DEBORA APARECIDA DOS SANTOS ANALISTA DO MP UBERLÂNDIA - COMARCA; UBERLANDIA-PJ-SEC FAMILIA 23.070,31 9.228,12 0,00 0,00 0,00 0,00 473,71 7.272,75 40.044,89 4.948,70 6.636,22 0,00 0,00 11.584,92 28.459,97 31/05/2023
708 518800 DEBORA CARVALHO FIORATTO COORDENADOR II BELO HORIZONTE - COMARCA; DIRETORIA MATERIAIS E SERVICOS 20.533,67 4.106,73 0,00 0,00 0,00 0,00 4.220,35 3.090,62 31.951,37 1.643,30 6.574,99 0,00 0,00 8.218,29 23.733,08 31/05/2023
709 444900 DEBORA CLAUDIA PEREIRA ALVES ANALISTA DO MP BELO HORIZONTE - COMARCA; BH-08PJ JUIZADO ESPECIAL-SECRETARIA 13.588,97 2.717,79 0,00 0,00 0,00 0,00 0,00 2.105,00 18.411,76 2.390,03 2.942,14 0,00 0,00 5.332,17 13.079,59 31/05/2023
710 617700 DEBORA COMANDUCI SCHREIDER ANALISTA DO MP BICAS - COMARCA; BICAS-PJ-UNPJ 11.577,56 1.157,76 0,00 0,00 0,00 0,00 0,00 2.105,00 14.840,32 1.818,60 2.065,00 0,00 0,00 3.883,60 10.956,72 31/05/2023
711 555700 DEBORA CRISTINA BUITRAGO PEREIRA ANALISTA DO MP BELO HORIZONTE - COMARCA; DIRETORIA GESTAO CONTRATOS CONVENIOS 12.343,61 1.234,36 4.020,58 0,00 0,00 0,00 0,00 3.055,00 20.653,55 1.953,42 3.417,45 0,00 0,00 5.370,87 15.282,68 31/05/2023
712 513100 DEBORA CRISTINA PEREIRA DE OLIVEIRA ANALISTA DO MP BELO HORIZONTE - COMARCA; BH-23PJ CIVEL-SETOR JURIDICO 13.588,97 2.717,79 0,00 0,00 0,00 0,00 0,00 3.530,00 19.836,76 2.390,03 2.942,14 0,00 0,00 5.332,17 14.504,59 31/05/2023
713 612100 DEBORA DUARTE SILVA DE SOUZA OFICIAL DO MP RIBEIRÃO DAS NEVES - COMARCA; RIBEIRAO DAS NEVES-PJ-06PJ 7.506,70 3.002,68 0,00 0,00 0,00 0,00 0,00 2.105,00 12.614,38 1.462,45 1.498,67 0,00 0,00 2.961,12 9.653,26 31/05/2023
714 717500 DEBORA ENDREFFY ORSI PARENZI ASSESSOR PROMOTOR JUSTICA MATEUS LEME - COMARCA; MATEUS LEME-PJ-01PJ 0,00 0,00 8.810,89 0,00 0,00 0,00 0,00 2.105,00 10.915,89 876,95 1.709,37 0,00 0,00 2.586,32 8.329,57 31/05/2023
715 539700 DEBORA SALES CARVALHO ANALISTA DO MP PATOS DE MINAS - COMARCA; COORD REG PJ DEF EDU DIR CRI ADO AL PAR NOROE 12.343,61 2.468,72 0,00 0,00 0,00 0,00 0,00 2.105,00 16.917,33 982,16 2.767,68 0,00 0,00 3.749,84 13.167,49 31/05/2023
716 424100 DEBORA SANTOS E ALVES ANALISTA DO MP JANUÁRIA - COMARCA; JANUARIA-PJ-01PJ 18.130,77 3.626,15 0,00 0,00 0,00 0,00 0,00 3.055,00 24.811,92 3.262,06 4.201,13 0,00 0,00 7.463,19 17.348,73 31/05/2023
717 426301 DEBORA SCUCATO MACHADO SOARES OFICIAL DO MP ITABIRA - COMARCA; ITABIRA-PJ-SECRETARIA 7.506,70 1.501,34 0,00 0,00 0,00 0,00 0,00 3.055,00 12.063,04 1.222,23 1.256,14 0,00 0,00 2.478,37 9.584,67 31/05/2023
718 678100 DEBORA SOUZA COSTA ASSESSOR PROMOTOR JUSTICA BOTELHOS - COMARCA; BOTELHOS-PJ-UNPJ 0,00 0,00 8.810,89 0,00 0,00 0,00 0,00 2.105,00 10.915,89 876,95 1.657,24 0,00 0,00 2.534,19 8.381,70 31/05/2023
719 550200 DEBORA TRINDADE LEITE ANALISTA DO MP MANHUAÇU - COMARCA; MANHUACU-PJ-05PJ 12.343,61 2.468,72 0,00 0,00 0,00 0,00 1.234,36 2.105,00 18.151,69 2.348,42 2.777,79 0,00 0,00 5.126,21 13.025,48 31/05/2023
720 438000 DEBORAH COSTA LAGE ANALISTA DO MP BELO HORIZONTE - COMARCA; PROC JUST ATUACAO TRIBUNAIS SUPERIORES-GAB006 18.130,77 3.626,15 0,00 0,00 0,00 0,00 0,00 2.105,00 23.861,92 3.262,06 4.201,13 0,00 0,00 7.463,19 16.398,73 31/05/2023
721 613700 DEISER MARIA FERREIRA ROSCOE OFICIAL DO MP BELO HORIZONTE - COMARCA; DIVISÃO DE EDUCAÇÃO PARA O CONSUMO 7.506,70 750,67 0,00 0,00 0,00 0,00 0,00 2.105,00 10.362,37 1.102,13 1.082,73 0,00 0,00 2.184,86 8.177,51 31/05/2023
722 551900 DEISY ROCHA DA SILVA ANALISTA DO MP CARMO DO PARANAÍBA - COMARCA; CARMO DO PARANAIBA-PJ-01PJ 12.343,61 1.234,36 0,00 0,00 0,00 0,00 0,00 2.105,00 15.682,97 1.953,42 2.259,65 0,00 0,00 4.213,07 11.469,90 31/05/2023
723 501900 DELI RAQUEL RODRIGUES ANALISTA DO MP ITUIUTABA - COMARCA; ITUIUTABA-PJ-04PJ 12.343,61 2.468,72 0,00 0,00 0,00 0,00 0,00 2.105,00 16.917,33 2.150,92 2.596,93 0,00 0,00 4.747,85 12.169,48 31/05/2023
724 378600 DELIANE LOPES VIEIRA BREIJAO ANALISTA DO MP JUIZ DE FORA - COMARCA; JUIZ DE FORA-PJ-14PJ 18.720,84 5.616,25 0,00 0,00 0,00 0,00 0,00 2.105,00 26.442,09 3.674,88 4.745,01 0,00 0,00 8.419,89 18.022,20 31/05/2023
725 730100 DELIENE FRACETE GUTIERREZ ASSESSOR ADMINISTRATIVO I TEÓFILO OTONI - COMARCA; COORD REG APOIO COM INC MOB SOC VALE MUCURI 0,00 0,00 4.872,71 0,00 0,00 0,00 0,00 2.105,00 6.977,71 718,08 670,06 0,00 0,00 1.388,14 5.589,57 31/05/2023
726 487700 DENIA FERREIRA MAIA SILVA OFICIAL DO MP TRÊS CORACOES - COMARCA; TRES CORACOES-PJ-04PJ 8.003,54 1.600,71 0,00 0,00 0,00 0,00 0,00 2.105,00 11.709,25 1.317,63 1.289,59 0,00 0,00 2.607,22 9.102,03 31/05/2023
727 726300 DENILZA RODRIGUES MORAES ASSESSOR ADMINISTRATIVO I BELO HORIZONTE - COMARCA; CENT DE ATENDIMENTO AS PROMOTORIAS DE JUSTICA 0,00 0,00 4.872,71 0,00 0,00 0,00 0,00 2.105,00 6.977,71 718,08 670,06 0,00 0,00 1.388,14 5.589,57 31/05/2023
728 424800 DENIS APARECIDO CAMPOS DELFINO ANALISTA DO MP LUZ - COMARCA; LUZ-PJ-UNPJ 17.559,01 3.511,80 0,00 0,00 0,00 0,00 0,00 2.105,00 23.175,81 3.152,28 3.834,09 0,00 0,00 6.986,37 16.189,44 31/05/2023
729 381400 DENISE ANGELICA MELLO DE PAULA OFICIAL DO MP BELO HORIZONTE - COMARCA; BH-18PJ DIREITOS HUMANOS-SECRETARIA 12.343,61 3.703,08 4.346,47 0,00 0,00 0,00 0,00 3.055,00 23.448,16 2.348,42 4.077,34 0,00 0,00 6.425,76 17.022,40 31/05/2023
730 702100 DENISE CANDIDO LIMA MACEDO KATOPODIS ASSESSOR PROCURADOR JUSTICA BELO HORIZONTE - COMARCA; GABINETE DE PROCURADOR DE JUSTIÇA - SALA 306 0,00 0,00 8.810,89 0,00 0,00 0,00 0,00 2.105,00 10.915,89 876,95 1.709,37 0,00 0,00 2.586,32 8.329,57 31/05/2023
731 196300 DENISE DE ALMEIDA VILELA FURTADO OFICIAL DO MP BELO HORIZONTE - COMARCA; CENTRAL DE APOIO TECNICO-SECRETARIA 20.533,67 8.213,47 0,00 0,00 0,00 0,00 527,03 9.279,43 38.553,60 4.380,49 5.815,87 0,00 0,00 10.196,36 28.357,24 31/05/2023
732 271100 DENISE ELOY PEIXOTO OFICIAL DO MP BELO HORIZONTE - COMARCA; DIRETORIA DE INTELIGENCIA 17.559,01 5.267,70 0,00 0,00 0,00 0,00 5.436,28 2.105,00 30.367,99 3.433,22 5.943,23 0,00 0,00 9.376,45 20.991,54 31/05/2023
733 385400 DENISE FREITAS DE ASSIS OFICIAL DO MP CARATINGA - COMARCA; CARATINGA-PJ-SECRETARIA 11.212,54 3.363,76 3.004,68 0,00 0,00 0,00 0,00 2.105,00 19.685,98 2.113,16 3.368,69 0,00 0,00 5.481,85 14.204,13 31/05/2023
734 437100 DENISE NOGUEIRA MAGRI MENDES ANALISTA DO MP BELO HORIZONTE - COMARCA; LAB TECNOLOGIA CONTRA LAVAGEM DINHEIRO 18.130,77 7.252,31 0,00 0,00 0,00 0,00 0,00 2.105,00 27.488,08 3.842,24 4.934,50 0,00 0,00 8.776,74 18.711,34 31/05/2023
735 524700 DENISE RAMOS GUIMARAES OFICIAL DO MP BELO HORIZONTE - COMARCA; BH-07PJ 01 TRIBUNAL JURI-SECRETARIA 7.506,70 1.501,34 0,00 0,00 0,00 0,00 0,00 2.105,00 11.113,04 1.222,23 1.256,14 0,00 0,00 2.478,37 8.634,67 31/05/2023
736 239100 DENISE RIBEIRO DOS SANTOS CAETANO OFICIAL DO MP ITANHANDU - COMARCA; ITANHANDU-PJ-SECRETARIA 17.559,01 7.023,60 0,00 0,00 0,00 0,00 0,00 2.105,00 26.687,61 3.714,17 4.801,72 0,00 0,00 8.515,89 18.171,72 31/05/2023
737 325500 DENISE ROSA TORRES OFICIAL DO MP BELO HORIZONTE - COMARCA; DIRETORIA DE PESSOAL ADMINISTRATIVO - DPAD 13.588,97 4.076,69 0,00 0,00 0,00 0,00 0,00 2.105,00 19.770,66 2.607,45 3.256,05 0,00 0,00 5.863,50 13.907,16 31/05/2023
738 437200 DENISE VIVIANE DOS SANTOS ANALISTA DO MP BELO HORIZONTE - COMARCA; CGMP-DIR ESTAGIO PROBATORIO E ORIENT 15.447,01 3.089,40 0,00 0,00 0,00 0,00 0,00 3.530,00 22.066,41 2.746,77 3.405,05 0,00 0,00 6.151,82 15.914,59 31/05/2023
739 267900 DENISIA ALMEIDA SALES OFICIAL DO MP BELO HORIZONTE - COMARCA; BH-18PJ DIREITOS HUMANOS-SECRETARIA 12.343,61 3.703,08 0,00 0,00 0,00 0,00 0,00 2.105,00 18.151,69 2.348,42 2.829,93 0,00 0,00 5.178,35 12.973,34 31/05/2023
740 480300 DESIREE ARANTES FERREIRA GOUVEA OFICIAL DO MP PRATÁPOLIS - COMARCA; PRATAPOLIS-PJ-UNPJ 7.506,70 1.501,34 0,00 0,00 3.410,09 1.222,23 562,66 8.243,17 22.446,19 1.222,23 2.530,03 0,00 0,00 3.752,26 18.693,93 31/05/2023
741 355300 DEYSE CRISTINA MORAIS OFICIAL DO MP PASSOS - COMARCA; PASSOS-PJ-02PJ 12.343,61 3.703,08 0,00 0,00 0,00 0,00 0,00 2.105,00 18.151,69 2.348,42 2.882,06 0,00 0,00 5.230,48 12.921,21 31/05/2023
742 523700 DIANA CAMPOS RESENDE OFICIAL DO MP SÃO JOÃO DEL REI - COMARCA; SAO JOAO DEL REI-PJ-04PJ 9.699,77 6.789,84 0,00 0,00 0,00 0,00 0,00 2.105,00 18.594,61 2.419,29 2.932,24 0,00 0,00 5.351,53 13.243,08 31/05/2023
743 241900 DIANA CARDOSO MARTINS OFICIAL DO MP BELO HORIZONTE - COMARCA; CAO-DH CONT EXT ATIV POLIC E AP COMUNIT 12.343,61 4.937,44 0,00 0,00 0,00 0,00 0,00 2.105,00 19.386,05 2.545,92 3.167,20 0,00 0,00 5.713,12 13.672,93 31/05/2023
744 410100 DIANA GORDILHO SILVEIRA SENA ANALISTA DO MP BELO HORIZONTE - COMARCA; BH-14PJ DEFESA CONSUMIDOR-GAB 112PJ 18.130,77 3.626,15 0,00 0,00 0,00 0,00 0,00 2.105,00 23.861,92 3.262,06 4.201,13 0,00 0,00 7.463,19 16.398,73 31/05/2023
745 553000 DIANA MARIA MARQUES ANALISTA DO MP BETIM - COMARCA; BETIM-PJ-07PJ 12.343,61 2.468,72 0,00 0,00 0,00 0,00 1.234,36 2.105,00 18.151,69 2.348,42 2.829,93 0,00 0,00 5.178,35 12.973,34 31/05/2023
746 520000 DIARLE TOSTE DOS SANTOS ANALISTA DO MP RIO POMBA - COMARCA; RIO POMBA-PJ-UNPJ 12.343,61 2.468,72 0,00 0,00 0,00 0,00 0,00 2.105,00 16.917,33 2.150,92 1.870,93 0,00 0,00 4.021,85 12.895,48 31/05/2023
747 539800 DIEGO CAMARGOS RODRIGUES OFICIAL DO MP CONTAGEM - COMARCA; CONTAGEM-PJ-05PJ 7.506,70 1.501,34 0,00 0,00 0,00 0,00 0,00 2.105,00 11.113,04 1.222,23 1.256,14 0,00 0,00 2.478,37 8.634,67 31/05/2023
748 607300 DIEGO CERVEIRA DE SOUZA ANALISTA DO MP PATOS DE MINAS - COMARCA; COORD REG BACIAS PARACATU,URUCUIA E ABAETE 12.343,61 1.234,36 0,00 0,00 0,00 0,00 0,00 2.105,00 15.682,97 982,16 2.453,68 0,00 0,00 3.435,84 12.247,13 31/05/2023
749 446900 DIEGO DE FREITAS OFICIAL DO MP UBERABA - COMARCA; UBERABA-PJ-06PJ 10.516,49 2.103,30 0,00 0,00 0,00 0,00 0,00 2.105,00 14.724,79 1.800,11 2.090,45 0,00 0,00 3.890,56 10.834,23 31/05/2023
750 288800 DILENE NEPOMUCENO ALVES OFICIAL DO MP BELO HORIZONTE - COMARCA; DIRETORIA DE PESSOAL ADMINISTRATIVO - DPAD 12.343,61 3.703,08 0,00 0,00 0,00 0,00 0,00 2.105,00 18.151,69 2.348,42 2.882,06 0,00 0,00 5.230,48 12.921,21 31/05/2023
751 681200 DILLIANY PAULA LOPES SERRANO ASSESSOR PROMOTOR JUSTICA RESPLENDOR - COMARCA; RESPLENDOR-PJ-UNPJ 0,00 0,00 8.810,89 0,00 0,00 0,00 0,00 3.055,00 11.865,89 876,95 1.709,37 0,00 0,00 2.586,32 9.279,57 31/05/2023
752 270101 DILSON DO AMARAL ANALISTA DO MP RIO CASCA - COMARCA; RIO CASCA-PJ-UNPJ 12.343,61 2.468,72 0,00 0,00 0,00 0,00 0,00 2.105,00 16.917,33 2.150,92 2.596,93 0,00 0,00 4.747,85 12.169,48 31/05/2023
753 466000 DIMITRI GUDE MARCIAL ANALISTA DO MP NANUQUE - COMARCA; NANUQUE-PJ-02PJ 12.343,61 2.468,72 0,00 0,00 0,00 0,00 0,00 4.005,00 18.817,33 2.150,92 2.440,52 0,00 0,00 4.591,44 14.225,89 31/05/2023
754 516300 DINORA APARECIDA MACEDO BRANDAO ANALISTA DO MP BELO HORIZONTE - COMARCA; BH-19PJ SAUDE-SECRETARIA 150PJ 12.343,61 2.468,72 0,00 0,00 0,00 0,00 0,00 2.105,00 16.917,33 2.150,92 2.596,93 0,00 0,00 4.747,85 12.169,48 31/05/2023
755 511700 DIOGENES HENRIQUES PEREIRA LOURENCO ANALISTA DO MP BELO HORIZONTE - COMARCA; BH-03PJ EMPRESARIAL-SECRETARIA 12.343,61 2.468,72 0,00 0,00 0,00 0,00 0,00 3.055,00 17.867,33 982,16 2.767,68 0,00 0,00 3.749,84 14.117,49 31/05/2023
756 604100 DIOGO CESAR DE OLIVEIRA HONORIO ASSESSOR ADMINISTRATIVO III PIUMHI - COMARCA; PIUMHI-PJ-02PJ 0,00 0,00 10.858,90 0,00 0,00 0,00 0,00 2.105,00 12.963,90 876,95 2.272,58 0,00 0,00 3.149,53 9.814,37 31/05/2023
757 259600 DIOGO MESQUITA MAIA ANALISTA DO MP BELO HORIZONTE - COMARCA; DIRET DE APOIO AS PROCURADORIAS DE JUSTICA 22.191,68 19.972,51 0,00 0,00 0,00 5.795,34 477,24 7.311,23 55.748,00 5.795,34 9.400,14 4.574,23 0,00 19.769,71 35.978,29 31/05/2023
758 386700 DIRCIMAR FERNANDES CARNEIRO OFICIAL DO MP VISCONDE DO RIO BRANCO - COMARCA; VISCONDE DO RIO BRANCO-PJ-03PJ 12.343,61 8.640,53 0,00 0,00 0,00 0,00 0,00 2.105,00 23.089,14 3.138,41 4.022,62 0,00 0,00 7.161,03 15.928,11 31/05/2023
759 216700 DOMICIO VALDETE PEREIRA OFICIAL DO MP TEÓFILO OTONI - COMARCA; COORD REG PJ DEF EDU DIR CRIAN ADOL JEQUI MUC 20.533,67 8.213,47 0,00 0,00 0,00 0,00 527,03 7.854,43 37.128,60 4.380,49 5.711,59 0,00 0,00 10.092,08 27.036,52 31/05/2023
760 192701 DONIZETTI APARECIDO AMORIM ANALISTA DO MP PRATÁPOLIS - COMARCA; PRATAPOLIS-PJ-UNPJ 12.211,94 4.937,44 0,00 0,00 0,00 0,00 570,27 8.326,18 26.045,83 2.545,92 3.078,85 0,00 0,00 5.624,77 20.421,06 31/05/2023
761 558700 DORCILIA FATIMA DE OLIVEIRA OFICIAL DO MP DIVINÓPOLIS - COMARCA; DIVINOPOLIS-PJ-02PJ 7.506,70 750,67 0,00 0,00 0,00 1.102,13 0,00 2.105,00 11.464,50 1.102,13 1.333,68 0,00 0,00 2.435,81 9.028,69 31/05/2023
762 555300 DOUGLAS CUNHA DE SOUZA ANALISTA DO MP VARZEA DA PALMA - COMARCA; VARZEA DA PALMA-PJ-01PJ 12.343,61 1.234,36 0,00 0,00 0,00 0,00 0,00 3.055,00 16.632,97 982,16 2.453,68 0,00 0,00 3.435,84 13.197,13 31/05/2023
763 265900 DOUGLAS GOMES MOREIRA ANALISTA DO MP BELO HORIZONTE - COMARCA; CENTRAL DE APOIO TECNICO-SETOR DE ENGENHARIA 23.070,31 6.921,09 0,00 0,00 0,00 0,00 0,00 2.105,00 32.096,40 4.579,57 6.103,29 0,00 0,00 10.682,86 21.413,54 31/05/2023
764 241000 DOUGLAS MEIRELLES DE CASTRO OFICIAL DO MP CONCEIÇÃO DO RIO VERDE - COMARCA; CONCEICAO DO RIO VERDE-PJ-UNPJ 17.559,01 7.023,60 0,00 0,00 0,00 0,00 0,00 2.105,00 26.687,61 3.714,17 4.801,72 0,00 0,00 8.515,89 18.171,72 31/05/2023
765 534900 DOUGLAS SILVA E SOUZA ANALISTA DO MP CAMPOS GERAIS - COMARCA; CAMPOS GERAIS-PJ-01PJ 12.343,61 2.468,72 0,00 0,00 0,00 0,00 0,00 2.105,00 16.917,33 982,16 2.715,54 0,00 0,00 3.697,70 13.219,63 31/05/2023
766 638900 DOUGLAS WALLAS CONCEICAO NEVES OFICIAL DO MP RIBEIRÃO DAS NEVES - COMARCA; RIBEIRAO DAS NEVES-PJ-SEC CIVEL 6.603,76 660,38 0,00 0,00 0,00 0,00 0,00 2.105,00 9.369,14 944,43 852,96 0,00 0,00 1.797,39 7.571,75 31/05/2023
767 146800 DUCINALVA AMARAL LOPES REIS OFICIAL DO MP PARAISÓPOLIS - COMARCA; PARAISOPOLIS-PJ-UNPJ 23.070,31 18.456,25 0,00 0,00 0,00 5.795,34 477,24 7.311,24 55.110,38 5.795,34 9.348,00 3.936,60 0,00 19.079,94 36.030,44 31/05/2023
768 122500 DUILIO CARLOS FERREIRA UTSCH OFICIAL DO MP CONCEIÇÃO DO MATO DENTRO - COMARCA; CONCEICAO DO MATO DENTRO-PJ-UNPJ 20.533,67 18.480,31 0,00 0,00 14.461,77 5.795,34 477,24 7.311,24 67.059,57 5.795,34 13.559,80 1.424,02 0,00 20.779,16 46.280,41 31/05/2023
769 201800 DULCINEIA ANDRE DE SOUZA OFICIAL DO MP JEQUITINHONHA - COMARCA; JEQUITINHONHA-PJ-SECRETARIA 20.533,67 8.213,47 0,00 0,00 0,00 0,00 0,00 2.105,00 30.852,14 4.380,49 5.659,46 0,00 0,00 10.039,95 20.812,19 31/05/2023
770 395800 DUVIDIER MEDIRCIO JUNIOR ANALISTA DO MP BELO HORIZONTE - COMARCA; CENTRAL DE APOIO TECNICO-SETOR DE ENGENHARIA 19.751,60 5.925,48 0,00 0,00 0,00 0,00 0,00 2.105,00 27.782,08 3.889,28 5.106,69 0,00 0,00 8.995,97 18.786,11 31/05/2023
771 604800 ECIA RAMILIS ISSA DE ABREU ANALISTA DO MP BRASÍLIA DE MINAS - COMARCA; BRASILIA DE MINAS-PJ-01PJ 12.343,61 1.234,36 0,00 0,00 0,00 0,00 0,00 3.055,00 16.632,97 1.953,42 2.311,79 0,00 0,00 4.265,21 12.367,76 31/05/2023
772 273000 EDELFINA APARECIDA GUIMARAES OFICIAL DO MP CACHOEIRA DE MINAS - COMARCA; CACHOEIRA DE MINAS-PJ-UNPJ 13.588,97 10.871,18 0,00 0,00 0,00 0,00 0,00 2.105,00 26.565,15 3.694,57 4.773,44 0,00 0,00 8.468,01 18.097,14 31/05/2023
773 523300 EDER DOS SANTOS PATRICIO ANALISTA DO MP NOVA SERRANA - COMARCA; NOVA SERRANA-PJ-03PJ 12.343,61 2.468,72 0,00 0,00 0,00 0,00 0,00 3.055,00 17.867,33 982,16 2.715,54 0,00 0,00 3.697,70 14.169,63 31/05/2023
774 356700 EDER JOSE PACHECO OFICIAL DO MP CAMPO BELO - COMARCA; CAMPO BELO-PJ-04PJ 12.343,61 3.703,08 0,00 0,00 0,00 0,00 1.771,66 2.105,00 19.923,35 2.348,42 3.317,13 0,00 0,00 5.665,55 14.257,80 31/05/2023
775 507900 EDERSON SILVA LOPES OFICIAL DO MP BELO HORIZONTE - COMARCA; LABORATORIO TECNOLOGIA INTELIGENCIA 9.097,81 1.819,56 0,00 0,00 0,00 0,00 0,00 2.105,00 13.022,37 1.527,73 1.592,92 0,00 0,00 3.120,65 9.901,72 31/05/2023
776 296200 EDGARD GOULART MATOSINHO DE LAET JR ANALISTA DO MP GOVERNADOR VALADARES - COMARCA; GOVERNADOR VALADARES-PJ-12PJ 22.191,68 6.657,50 0,00 0,00 0,00 0,00 528,90 7.874,84 37.252,92 4.396,82 5.735,16 0,00 0,00 10.131,98 27.120,94 31/05/2023
777 295000 EDILA MARIA DA SILVEIRA OFICIAL DO MP FORMIGA - COMARCA; FORMIGA-PJ-01PJ 12.343,61 3.703,08 0,00 0,00 0,00 0,00 0,00 2.105,00 18.151,69 2.348,42 2.882,06 0,00 0,00 5.230,48 12.921,21 31/05/2023
778 332300 EDILA MARILAC MIRANDA PRADO OFICIAL DO MP DIAMANTINA - COMARCA; DIAMANTINA-PJ-01PJ 12.343,61 6.171,81 0,00 0,00 0,00 0,00 0,00 2.105,00 20.620,42 2.743,42 3.348,07 0,00 0,00 6.091,49 14.528,93 31/05/2023
779 376600 EDILANE CONSOLACAO ROSA NAZARETH ANALISTA DO MP BETIM - COMARCA; BETIM-PJ-10PJ 18.720,84 5.616,25 0,00 0,00 0,00 0,00 0,00 2.105,00 26.442,09 982,16 5.190,54 0,00 0,00 6.172,70 20.269,39 31/05/2023
780 309800 EDILZA DOS REIS OFICIAL DO MP UBERLÂNDIA - COMARCA; UBERLANDIA-PJ-03PJ 12.343,61 3.703,08 0,00 0,00 0,00 0,00 0,00 2.105,00 18.151,69 2.348,42 2.829,93 0,00 0,00 5.178,35 12.973,34 31/05/2023
781 200500 EDINEIA MARIA DE OLIVEIRA ANTUNES OFICIAL DO MP MONTES CLAROS - COMARCA; MONTES CLAROS-PJ-10PJ 20.533,67 10.266,84 0,00 0,00 0,00 0,00 564,68 8.265,10 39.630,29 4.709,03 6.290,20 0,00 0,00 10.999,23 28.631,06 31/05/2023
782 427700 EDISANGELA SOARES LOPES OFICIAL DO MP PIRAPORA - COMARCA; PIRAPORA-PJ-02PJ 7.506,70 1.501,34 0,00 0,00 0,00 0,00 0,00 2.105,00 11.113,04 1.222,23 1.256,14 0,00 0,00 2.478,37 8.634,67 31/05/2023
783 555400 EDISON MONTEIRO SAMPAIO NETO ANALISTA DO MP BELO HORIZONTE - COMARCA; BH-12PJ JUIZO CRIMINAL-GAB 094PJ 12.343,61 1.234,36 0,00 0,00 0,00 0,00 0,00 2.105,00 15.682,97 1.953,42 2.311,79 0,00 0,00 4.265,21 11.417,76 31/05/2023
784 517700 EDMILSON TADEU FERNANDES OFICIAL DO MP POUSO ALEGRE - COMARCA; GAECO REGIONAL DE POUSO ALEGRE 9.393,95 1.878,79 0,00 0,00 0,00 0,00 0,00 2.105,00 13.377,74 1.584,59 1.779,28 0,00 0,00 3.363,87 10.013,87 31/05/2023
785 358400 EDNA APARECIDA SILVA FERREIRA OFICIAL DO MP CORONEL FABRICIANO - COMARCA; CORONEL FABRICIANO-PJ-02PJ 13.588,97 4.076,69 0,00 0,00 0,00 0,00 0,00 2.105,00 19.770,66 2.607,45 3.151,77 0,00 0,00 5.759,22 14.011,44 31/05/2023
786 331800 EDNA MARCIA CAMILO DA SILVA OFICIAL DO MP SETE LAGOAS - COMARCA; SETE LAGOAS-PJ-SEC CRIMINAIS 12.343,61 3.703,08 0,00 0,00 0,00 0,00 529,54 7.881,81 24.458,04 2.348,42 2.829,93 0,00 0,00 5.178,35 19.279,69 31/05/2023
787 327900 EDRIEL SANTANA PEREIRA OFICIAL DO MP TUPACIGUARA - COMARCA; TUPACIGUARA-PJ-01PJ 12.343,61 3.703,08 0,00 0,00 0,00 0,00 0,00 3.397,96 19.444,65 2.348,42 2.882,06 0,00 0,00 5.230,48 14.214,17 31/05/2023
788 482400 EDSON GARCIA OFICIAL DO MP MACHADO - COMARCA; MACHADO-PJ-02PJ 7.506,70 1.501,34 0,00 0,00 0,00 0,00 0,00 2.105,00 11.113,04 1.222,23 1.151,86 0,00 0,00 2.374,09 8.738,95 31/05/2023
789 225601 EDSON LABRE FILHO ANALISTA DO MP VARGINHA - COMARCA; VARGINHA-PJ-01PJ 22.191,68 8.876,67 0,00 0,00 0,00 0,00 569,59 8.318,67 39.956,61 4.751,88 6.299,93 0,00 0,00 11.051,81 28.904,80 31/05/2023
790 602700 EDSON NOGUEIRA BUENO OFICIAL DO MP PITANGUI - COMARCA; PITANGUI-PJ-02PJ 7.506,70 750,67 0,00 0,00 0,00 0,00 0,00 2.105,00 10.362,37 1.102,13 1.082,73 0,00 0,00 2.184,86 8.177,51 31/05/2023
791 716500 EDUARDA CORREA MOREIRA ASSESSOR ADMINISTRATIVO I BELO HORIZONTE - COMARCA; DIRET DE FORMACAO, APERFEIC. E POS-GRADUACAO 0,00 0,00 4.872,71 0,00 0,00 0,00 0,00 3.055,00 7.927,71 718,08 670,06 0,00 0,00 1.388,14 6.539,57 31/05/2023
792 414400 EDUARDO ABRANTES CAMPOS ANALISTA DO MP SÃO JOÃO DEL REI - COMARCA; SAO JOAO DEL REI-PJ-02PJ 18.130,77 3.626,15 0,00 0,00 0,00 0,00 0,00 2.105,00 23.861,92 3.262,06 4.201,13 0,00 0,00 7.463,19 16.398,73 31/05/2023
793 476800 EDUARDO ALVES DE MOURA ANALISTA DO MP UBERLÂNDIA - COMARCA; UBERLANDIA-PJ-02PJ 12.343,61 2.468,72 0,00 0,00 0,00 0,00 0,00 3.055,00 17.867,33 982,16 2.611,26 0,00 0,00 3.593,42 14.273,91 31/05/2023
794 390800 EDUARDO AMORIM PETTERSEN OFICIAL DO MP CARANGOLA - COMARCA; CARANGOLA-PJ-SECRETARIA 11.212,54 3.363,76 0,00 0,00 0,00 0,00 0,00 2.296,69 16.872,99 2.113,16 2.542,40 0,00 0,00 4.655,56 12.217,43 31/05/2023
795 461600 EDUARDO ANTONIO DE ASSIS FARIA ASSESSOR ADMINISTRATIVO III BELO HORIZONTE - COMARCA; ASSESS EXECUTIVA DO CONSELHO SUPERIOR DO MP 0,00 0,00 10.858,90 0,00 0,00 0,00 0,00 2.105,00 12.963,90 876,95 2.220,44 0,00 0,00 3.097,39 9.866,51 31/05/2023
796 248800 EDUARDO DE CASTRO AMORIM ANALISTA DO MP BELO HORIZONTE - COMARCA; SUPER DE GESTAO DE PESSOAS-LOTACAO TEMPORARIA 23.070,31 9.228,12 0,00 0,00 0,00 0,00 118,43 3.396,94 35.813,80 4.948,70 6.636,22 0,00 0,00 11.584,92 24.228,88 31/05/2023
797 209100 EDUARDO DE SOUZA MAIA ANALISTA DO MP BELO HORIZONTE - COMARCA; SUPER DE GESTAO DE PESSOAS-LOTACAO TEMPORARIA 23.070,31 9.228,12 0,00 0,00 0,00 0,00 0,00 2.105,00 34.403,43 4.948,70 6.531,94 0,00 0,00 11.480,64 22.922,79 31/05/2023
798 633900 EDUARDO GONCALVES PIRES OFICIAL DO MP BELO HORIZONTE - COMARCA; DIRETORIA DE PAGAMENTO DE PESSOAL-DPAG 8.264,07 3.305,63 0,00 0,00 0,00 0,00 551,49 8.121,24 20.242,43 1.632,10 1.847,88 0,00 0,00 3.479,98 16.762,45 31/05/2023
799 350500 EDUARDO GONCALVES RIBEIRO OFICIAL DO MP VESPASIANO - COMARCA; VESPASIANO-PJ-04PJ 11.577,56 3.473,27 0,00 0,00 0,00 0,00 0,00 2.105,00 17.155,83 2.189,08 2.652,02 0,00 0,00 4.841,10 12.314,73 31/05/2023
800 115800 EDUARDO HENRIQUE DE CAMPOS MAIA OFICIAL DO MP BELO HORIZONTE - COMARCA; DIV FISCAL ADM CONT TERCEIRIZACAO 22.191,68 15.534,18 0,00 0,00 0,00 0,00 551,32 8.119,40 46.396,58 5.795,34 7.702,15 135,90 0,00 13.633,39 32.763,19 31/05/2023
801 392600 EDUARDO HENRIQUE DOS SANTOS COSTA ELIAZAR OFICIAL DO MP MATOZINHOS - COMARCA; MATOZINHOS-PJ-01PJ 10.858,90 3.257,67 0,00 0,00 0,00 0,00 0,00 2.105,00 16.221,57 2.039,60 2.331,93 0,00 0,00 4.371,53 11.850,04 31/05/2023
802 99101 EDUARDO JOSE DE FREITAS NUNES ASSESSOR ADMINISTRATIVO II BELO HORIZONTE - COMARCA; PROC JUST ATUACAO TRIBUNAIS SUPERIORES-GAB007 0,00 3.753,35 7.506,70 0,00 0,00 0,00 0,00 2.105,00 13.365,05 876,95 2.382,89 0,00 0,00 3.259,84 10.105,21 31/05/2023
803 407500 EDUARDO MASCARENHAS CURI AZEVEDO ANALISTA DO MP BELO HORIZONTE - COMARCA; DIR CONTEUDO JORNALISTICO 12.343,61 2.468,72 0,00 0,00 0,00 0,00 0,00 3.055,00 17.867,33 2.150,92 2.596,93 0,00 0,00 4.747,85 13.119,48 31/05/2023
804 601300 EDUARDO TRAD VIEIRA OFICIAL DO MP BELO HORIZONTE - COMARCA; SUPER DE GESTAO DE PESSOAS-LOTACAO TEMPORARIA 7.506,70 750,67 0,00 0,00 0,00 0,00 0,00 2.105,00 10.362,37 1.102,13 1.082,73 0,00 0,00 2.184,86 8.177,51 31/05/2023
805 257600 EDUARDO VALADARES CABRAL ANALISTA DO MP BELO HORIZONTE - COMARCA; COORD DE INCLUSAO E MOBILIZACAO SOCIAIS 23.070,31 9.228,12 0,00 0,00 0,00 0,00 0,00 2.105,00 34.403,43 4.948,70 6.636,22 0,00 0,00 11.584,92 22.818,51 31/05/2023
806 545700 EDVAIR FERREIRA DE CARVALHO OFICIAL DO MP ARAGUARI - COMARCA; ARAGUARI-PJ-06PJ 7.506,70 1.501,34 0,00 0,00 0,00 0,00 0,00 2.105,00 11.113,04 1.222,23 1.204,00 0,00 0,00 2.426,23 8.686,81 31/05/2023
807 401700 EDWANIA AMORIM DO CARMO OFICIAL DO MP RIBEIRÃO DAS NEVES - COMARCA; RIBEIRAO DAS NEVES-PJ-03PJ 12.343,61 2.468,72 0,00 0,00 0,00 0,00 0,00 2.105,00 16.917,33 2.150,92 2.596,93 0,00 0,00 4.747,85 12.169,48 31/05/2023
808 303600 EFIGENIO SARAIVA LOPES ANALISTA DO MP BELO HORIZONTE - COMARCA; DIRETORIA DE PAGAMENTO DE PESSOAL-DPAG 23.070,31 6.921,09 5.538,92 0,00 0,00 0,00 521,11 7.789,85 43.841,28 4.579,57 7.574,36 0,00 0,00 12.153,93 31.687,35 31/05/2023
809 286000 ELAINE APARECIDA SILVA BERZOINI OFICIAL DO MP JUIZ DE FORA - COMARCA; JUIZ DE FORA-PJ-07PJ 12.343,61 3.703,08 0,00 0,00 0,00 0,00 0,00 2.105,00 18.151,69 2.348,42 2.882,06 0,00 0,00 5.230,48 12.921,21 31/05/2023
810 509000 ELAINE CANDIDA PONTES OFICIAL DO MP BELO HORIZONTE - COMARCA; BH-02PJ FAMILIA-SECRETARIA 10.341,72 2.068,34 0,00 0,00 0,00 0,00 0,00 2.105,00 14.515,06 1.766,56 2.042,00 0,00 0,00 3.808,56 10.706,50 31/05/2023
811 283601 ELAINE CRISTINA MEQUELINO DUARTE ANALISTA DO MP ALFENAS - COMARCA; ALFENAS-PJ-02PJ 18.720,84 5.616,25 0,00 0,00 0,00 0,00 0,00 2.105,00 26.442,09 3.674,88 4.692,87 0,00 0,00 8.367,75 18.074,34 31/05/2023
812 535500 ELAINE DE OLIVEIRA CAMPOS REIS OFICIAL DO MP RIBEIRÃO DAS NEVES - COMARCA; RIBEIRAO NEVES-SEC PJ EXECUCAO PENAL 7.506,70 1.501,34 0,00 0,00 0,00 0,00 0,00 2.105,00 11.113,04 1.222,23 1.256,14 0,00 0,00 2.478,37 8.634,67 31/05/2023
813 455700 ELAINE DE OLIVEIRA CASTRO ANALISTA DO MP POMPÉU - COMARCA; POMPEU-PJ-UNPJ 12.343,61 2.468,72 0,00 0,00 0,00 0,00 0,00 2.105,00 16.917,33 2.150,92 2.492,65 0,00 0,00 4.643,57 12.273,76 31/05/2023
814 367200 ELAINE MUNIZ BARBOSA ANALISTA DO MP BELO HORIZONTE - COMARCA; DIRETORIA DE SISTEMAS DE INFORMACAO 20.533,67 6.160,10 0,00 0,00 0,00 0,00 0,00 3.055,00 29.748,77 4.051,95 5.289,40 0,00 0,00 9.341,35 20.407,42 31/05/2023
815 679200 ELAINE RIBEIRO CHAVES ASSESSOR PROCURADOR JUSTICA BELO HORIZONTE - COMARCA; GABINETE DE PROCURADOR DE JUSTIÇA - SALA 614 0,00 0,00 8.810,89 0,00 0,00 0,00 0,00 2.105,00 10.915,89 876,95 1.657,24 0,00 0,00 2.534,19 8.381,70 31/05/2023
816 176900 ELAINE RIBEIRO TAVEIRA OFICIAL DO MP BELO HORIZONTE - COMARCA; DIVISAO FROTA 17.005,40 6.802,16 0,00 0,00 0,00 0,00 0,00 2.105,00 25.912,56 3.590,16 4.674,83 0,00 0,00 8.264,99 17.647,57 31/05/2023
817 496200 ELAINE SABRINA MOREIRA SCHUWARTEN ANALISTA DO MP CORONEL FABRICIANO - COMARCA; CORONEL FABRICIANO-PJ-SECRETARIA 13.588,97 2.717,79 0,00 0,00 0,00 0,00 0,00 2.105,00 18.411,76 2.390,03 2.942,14 0,00 0,00 5.332,17 13.079,59 31/05/2023
818 489200 ELAINE VICENTINO GARCIA ANALISTA DO MP BELO HORIZONTE - COMARCA; CENTRAL DE APOIO TECNICO-SETOR CONTABIL 12.343,61 4.937,44 0,00 0,00 0,00 0,00 0,00 2.105,00 19.386,05 2.545,92 3.062,93 0,00 0,00 5.608,85 13.777,20 31/05/2023
819 731400 ELBERT MENDES PINHEIRO ASSESSOR PROMOTOR JUSTICA BELO HORIZONTE - COMARCA; COORD ESTADUAL DAS PJS DE HAB. E URBANISMO 0,00 0,00 8.810,89 0,00 0,00 0,00 0,00 2.105,00 10.915,89 876,95 1.709,37 0,00 0,00 2.586,32 8.329,57 31/05/2023
820 244500 ELCI ALVES DE SOUZA ASSESSOR ADMINISTRATIVO II BELO HORIZONTE - COMARCA; CAO-CONFLITOS AGRARIOS-SECRETARIA 0,00 3.002,68 7.506,70 0,00 0,00 0,00 0,00 2.105,00 12.614,38 876,95 2.124,32 0,00 0,00 3.001,27 9.613,11 31/05/2023
821 472500 ELCI VAZ DE OLIVEIRA FILHO ANALISTA DO MP PIUMHI - COMARCA; PIUMHI-PJ-02PJ 12.343,61 6.171,81 0,00 0,00 0,00 0,00 0,00 2.105,00 20.620,42 2.743,42 3.452,34 0,00 0,00 6.195,76 14.424,66 31/05/2023
822 385200 ELCI VIANA REIS OFICIAL DO MP RIO PARDO DE MINAS - COMARCA; RIO PARDO DE MINAS-PJ-SECRETARIA 12.343,61 6.171,81 0,00 0,00 0,00 0,00 0,00 2.105,00 20.620,42 2.743,42 3.452,34 0,00 0,00 6.195,76 14.424,66 31/05/2023
823 289801 ELCIO JOSE DOS SANTOS ANALISTA DO MP BELO HORIZONTE - COMARCA; DIVISAO DE SERVICOS 12.343,61 2.468,72 5.538,92 0,00 0,00 0,00 0,00 2.105,00 22.456,25 2.150,92 4.120,13 0,00 0,00 6.271,05 16.185,20 31/05/2023
824 319600 ELEN TULER DE ALBERGARIA ANALISTA DO MP BELO HORIZONTE - COMARCA; BH-19PJ SAUDE-SECRETARIA 130PJ 23.070,31 9.228,12 0,00 0,00 0,00 0,00 0,00 2.105,00 34.403,43 4.948,70 6.636,22 0,00 0,00 11.584,92 22.818,51 31/05/2023
825 205500 ELIANA ALVES DE SOUSA OFICIAL DO MP GOVERNADOR VALADARES - COMARCA; GOVERNADOR VALADARES-PJ-07PJ 12.343,61 4.937,44 0,00 0,00 0,00 0,00 0,00 2.105,00 19.386,05 2.545,92 3.167,20 0,00 0,00 5.713,12 13.672,93 31/05/2023
826 628800 ELIANA APARECIDA PEREIRA ANALISTA DO MP CAMBUÍ - COMARCA; CAMBUI-PJ-02PJ 10.516,49 1.051,65 0,00 0,00 0,00 0,00 0,00 2.105,00 13.673,14 1.631,85 1.795,38 0,00 0,00 3.427,23 10.245,91 31/05/2023
827 301700 ELIANA DA SILVEIRA ANALISTA DO MP BELO HORIZONTE - COMARCA; BH-11PJ COMB CRIME ORGANIZ-GAB 081PJ 21.346,53 6.403,96 0,00 0,00 0,00 0,00 0,00 2.105,00 29.855,49 4.221,03 5.585,64 0,00 0,00 9.806,67 20.048,82 31/05/2023
828 251500 ELIANA DE LIMA MILAGRES FONSECA ANALISTA DO MP CONTAGEM - COMARCA; CONTAGEM-PJ-16PJ 23.070,31 9.228,12 0,00 0,00 0,00 0,00 473,71 7.272,75 40.044,89 4.948,70 6.584,08 0,00 0,00 11.532,78 28.512,11 31/05/2023
829 503900 ELIANA DIAS DUTRA FERREIRA OFICIAL DO MP BELO HORIZONTE - COMARCA; DIRETORIA GESTAO COMPRAS LICITACOES 10.516,49 2.103,30 0,00 0,00 0,00 0,00 0,00 4.124,17 16.743,96 1.800,11 2.038,31 0,00 0,00 3.838,42 12.905,54 31/05/2023
830 413900 ELIANA PINTO DE OLIVEIRA NEVES ANALISTA DO MP CAMPO BELO - COMARCA; CAMPO BELO-PJ-04PJ 17.559,01 3.511,80 0,00 0,00 0,00 0,00 0,00 2.105,00 23.175,81 3.152,28 4.042,64 0,00 0,00 7.194,92 15.980,89 31/05/2023
831 228200 ELIANA RODRIGUES DA CUNHA PINHEIRO OFICIAL DO MP BELO HORIZONTE - COMARCA; DIRETORIA DE PROJETOS DE EDIFICACOES 17.559,01 7.023,60 0,00 0,00 0,00 3.714,17 207,51 4.368,74 32.873,03 3.714,17 5.875,26 0,00 0,00 9.589,43 23.283,60 31/05/2023
832 386600 ELIANA SABINO CHAVES PESSOA ANALISTA DO MP CARATINGA - COMARCA; CARATINGA-PJ-06PJ 18.130,77 12.691,55 0,00 0,00 0,00 4.712,52 521,18 7.790,58 43.846,60 4.712,52 7.539,04 0,00 0,00 12.251,56 31.595,04 31/05/2023
833 677500 ELIANA SILVA ANDRADE ASSESSOR PROMOTOR JUSTICA TRÊS CORACOES - COMARCA; TRES CORACOES-PJ-06PJ 0,00 0,00 8.810,89 0,00 0,00 0,00 258,45 4.924,48 13.993,82 876,95 1.709,37 0,00 0,00 2.586,32 11.407,50 31/05/2023
834 297400 ELIANE AUGUSTA RIBEIRO COSTA ANALISTA DO MP CONSELHEIRO LAFAIETE - COMARCA; CONSELHEIRO LAFAIETE-PJ-05PJ 23.070,31 6.921,09 0,00 0,00 0,00 0,00 549,84 8.103,28 38.644,52 4.579,57 5.999,02 0,00 0,00 10.578,59 28.065,93 31/05/2023
835 510600 ELIANE CAROLINA MAIA ANALISTA DO MP IGARAPÉ - COMARCA; IGARAPE-PJ-03PJ 12.343,61 2.468,72 0,00 0,00 0,00 0,00 0,00 2.105,00 16.917,33 2.150,92 2.440,52 0,00 0,00 4.591,44 12.325,89 31/05/2023
836 262600 ELIANE FERREIRA SOARES ASSESSOR ADMINISTRATIVO II BELO HORIZONTE - COMARCA; BH-18PJ DIREITOS HUMANOS-SECRETARIA 0,00 3.002,68 7.506,70 0,00 0,00 0,00 0,00 2.105,00 12.614,38 876,95 2.176,46 0,00 0,00 3.053,41 9.560,97 31/05/2023
837 204400 ELIANE GLAUCE DE QUEIROS MAIA OFICIAL DO MP GUANHÃES - COMARCA; GUANHAES-PJ-02PJ 20.533,67 8.213,47 0,00 0,00 0,00 0,00 527,03 7.854,43 37.128,60 4.380,49 5.815,87 0,00 0,00 10.196,36 26.932,24 31/05/2023
838 91800 ELIANE KAPLER ALVES OFICIAL DO MP BELO HORIZONTE - COMARCA; DIVISAO DE CONTROLE IMOBILIARIO 23.070,31 16.149,22 0,00 0,00 0,00 5.795,34 477,23 7.311,23 52.803,33 5.795,34 9.348,00 1.629,57 0,00 16.772,91 36.030,42 31/05/2023
839 334200 ELIANE MARCIA DE OLIVEIRA BRITO OFICIAL DO MP BELO HORIZONTE - COMARCA; BH-08PJ JUIZADO ESPECIAL-SECRETARIA 7.506,70 2.252,01 0,00 0,00 0,00 0,00 0,00 2.105,00 11.863,71 1.342,34 1.429,54 0,00 0,00 2.771,88 9.091,83 31/05/2023
840 365900 ELIANE MARIA DE OLIVEIRA FERREIRA OFICIAL DO MP SETE LAGOAS - COMARCA; SETE LAGOAS-PJ-SEC CRIMINAIS 12.343,61 6.171,81 0,00 0,00 0,00 0,00 0,00 2.105,00 20.620,42 2.743,42 3.452,34 0,00 0,00 6.195,76 14.424,66 31/05/2023
841 320600 ELIANE STADLER DE SOUZA OFICIAL DO MP MONTES CLAROS - COMARCA; MONTES CLAROS-PJ-13PJ 11.577,56 3.473,27 0,00 0,00 0,00 0,00 0,00 2.105,00 17.155,83 2.189,08 2.599,88 0,00 0,00 4.788,96 12.366,87 31/05/2023
842 448900 ELIAS PEREIRA OTONI ASSESSOR ADMINISTRATIVO II BELO HORIZONTE - COMARCA; BH-18PJ DIREITOS HUMANOS-SECRETARIA 0,00 0,00 7.506,70 0,00 0,00 0,00 0,00 2.105,00 9.611,70 876,95 1.246,45 0,00 0,00 2.123,40 7.488,30 31/05/2023
843 495400 ELICA SOUZA GASPARONI MATTOS OFICIAL DO MP UBÁ - COMARCA; UBA-PJ-06PJ 10.516,49 2.103,30 0,00 0,00 0,00 0,00 0,00 2.105,00 14.724,79 1.800,11 2.090,45 0,00 0,00 3.890,56 10.834,23 31/05/2023
844 86600 ELIENE FERREIRA DA SILVA OFICIAL DO MP BELO HORIZONTE - COMARCA; BH-22PJ PES COM DEF E IDOSOS-SECRETARIA 25.920,35 20.736,29 0,00 0,00 0,00 5.795,34 477,24 7.311,24 60.240,46 5.795,34 9.295,87 9.066,68 0,00 24.157,89 36.082,57 31/05/2023
845 183800 ELIENE MARIA CUNHA OFICIAL DO MP BELO HORIZONTE - COMARCA; DIRETORIA DE PESSOAL ADMINISTRATIVO - DPAD 21.346,53 8.538,61 0,00 0,00 0,00 0,00 547,89 8.082,03 38.515,06 4.562,57 6.026,61 0,00 0,00 10.589,18 27.925,88 31/05/2023
846 172300 ELINA APARECIDA SILVA ASSESSOR ADMINISTRATIVO I BELO HORIZONTE - COMARCA; BH-19PJ SAUDE-SECRETARIA 130PJ 0,00 1.949,08 4.872,71 0,00 0,00 0,00 0,00 2.105,00 8.926,79 876,95 1.110,23 0,00 0,00 1.987,18 6.939,61 31/05/2023
847 492501 ELINE CAMPOS DA FONSECA CUNHA ANALISTA DO MP PONTE NOVA - COMARCA; PONTE NOVA-PJ-05PJ 12.343,61 2.468,72 0,00 0,00 0,00 0,00 0,00 2.105,00 16.917,33 2.150,92 2.596,93 0,00 0,00 4.747,85 12.169,48 31/05/2023
848 618900 ELISA MOURA VIEIRA MARCATTI OFICIAL DO MP BELO HORIZONTE - COMARCA; GRUPO ESP PROM JUST DEF PROB ADM PAT PUB 7.506,70 750,67 0,00 0,00 0,00 0,00 302,77 6.357,95 14.918,09 1.102,13 1.082,73 0,00 0,00 2.184,86 12.733,23 31/05/2023
849 256500 ELISABETE NOGUEIRA ANALISTA DO MP RIBEIRÃO DAS NEVES - COMARCA; RIBEIRAO NEVES-SEC PJ EXECUCAO PENAL 18.720,84 9.360,42 0,00 0,00 0,00 0,00 0,00 2.105,00 30.186,26 4.273,95 5.453,50 0,00 0,00 9.727,45 20.458,81 31/05/2023
850 355000 ELISANGELA DARLANTONI RIBEIRO OFICIAL DO MP ARAXÁ - COMARCA; ARAXA-PJ-05PJ 9.882,33 3.586,33 0,00 0,00 0,00 0,00 0,00 1.862,64 15.331,30 2.267,47 2.143,23 0,00 0,00 4.410,70 10.920,60 31/05/2023
851 604400 ELISANGELA DEMASI FERREIRA MOREIRA ANALISTA DO MP CABO VERDE - COMARCA; CABO VERDE-PJ-UNPJ 12.343,61 1.234,36 0,00 0,00 0,00 0,00 0,00 2.105,00 15.682,97 982,16 2.453,68 0,00 0,00 3.435,84 12.247,13 31/05/2023
852 323800 ELISANGELA GONCALVES DE JESUS OFICIAL DO MP BELO HORIZONTE - COMARCA; DIRETORIA DE PESSOAL ADMINISTRATIVO - DPAD 12.343,61 3.703,08 0,00 0,00 0,00 0,00 0,00 2.105,00 18.151,69 2.348,42 2.829,93 0,00 0,00 5.178,35 12.973,34 31/05/2023
853 507400 ELISANGELA MIGUEL DA ROCHA SILVA ASSESSOR ADMINISTRATIVO II BELO HORIZONTE - COMARCA; CGMP-DIR INSP CORR PROCED PROC DISC 0,00 0,00 7.506,70 0,00 0,00 0,00 0,00 2.105,00 9.611,70 876,95 1.298,58 0,00 0,00 2.175,53 7.436,17 31/05/2023
854 261400 ELISANGELA REZENDE MENDES OFICIAL DO MP POUSO ALEGRE - COMARCA; POUSO ALEGRE-PJ-05PJ 12.343,61 4.937,44 0,00 0,00 0,00 0,00 1.234,36 2.105,00 20.620,41 2.743,41 3.452,34 0,00 0,00 6.195,75 14.424,66 31/05/2023
855 534100 ELISANGELA ROSINE SILVA OFICIAL DO MP UBERABA - COMARCA; UBERABA-PJ-06PJ 7.506,70 1.501,34 0,00 0,00 0,00 0,00 0,00 2.105,00 11.113,04 1.222,23 1.256,14 0,00 0,00 2.478,37 8.634,67 31/05/2023
856 634300 ELIUDE GRACA DAMASIO ROSARIO FRANCELINO OFICIAL DO MP BELO HORIZONTE - COMARCA; BH-18PJ VIOLENCIA DOMESTICA-SECRETARIA 6.603,76 660,38 0,00 0,00 0,00 0,00 0,00 4.005,00 11.269,14 944,43 852,96 0,00 0,00 1.797,39 9.471,75 31/05/2023
857 461700 ELIZABETH ALEIXO DA PAZ ANALISTA DO MP JUIZ DE FORA - COMARCA; JUIZ DE FORA-PJ-18PJ 12.343,61 2.468,72 0,00 0,00 0,00 0,00 0,00 2.105,00 16.917,33 2.150,92 2.596,93 0,00 0,00 4.747,85 12.169,48 31/05/2023
858 227300 ELIZABETH COIMBRA FELIX OFICIAL DO MP JABOTICATUBAS - COMARCA; JABOTICATUBAS-PJ-UNPJ 18.130,77 9.065,39 0,00 0,00 0,00 0,00 199,44 4.280,69 31.676,29 4.132,33 5.353,32 0,00 0,00 9.485,65 22.190,64 31/05/2023
859 354800 ELIZABETH DOS REIS OFICIAL DO MP BELO HORIZONTE - COMARCA; DIVISAO DE MATERIAIS 12.343,61 3.703,08 0,00 0,00 0,00 0,00 0,00 2.105,00 18.151,69 2.348,42 2.829,93 0,00 0,00 5.178,35 12.973,34 31/05/2023
860 612000 ELIZABETH MARIA DE QUEIROZ TANIGUCHI OFICIAL DO MP BELO HORIZONTE - COMARCA; SUPERINTENDENCIA GESTÃO DE PESSOAS 6.818,83 681,88 0,00 0,00 0,00 0,00 0,00 2.105,00 9.605,71 981,10 907,93 0,00 0,00 1.889,03 7.716,68 31/05/2023
861 452800 ELIZANGELA MARIA DAVI OFICIAL DO MP ARCOS - COMARCA; ARCOS-PJ-01PJ 7.506,70 1.501,34 0,00 0,00 0,00 0,00 0,00 2.105,00 11.113,04 1.222,23 1.204,00 0,00 0,00 2.426,23 8.686,81 31/05/2023
862 496300 ELIZANGELA MARQUES PINTO COELHO OFICIAL DO MP BELO HORIZONTE - COMARCA; DIRETORIA DE PESSOAL ADMINISTRATIVO - DPAD 10.516,49 2.103,30 0,00 0,00 0,00 0,00 0,00 2.105,00 14.724,79 1.800,11 2.090,45 0,00 0,00 3.890,56 10.834,23 31/05/2023
863 422500 ELIZETE FORTES DA CUNHA ANALISTA DO MP RIBEIRÃO DAS NEVES - COMARCA; RIBEIRAO DAS NEVES-PJ-07PJ 18.130,77 3.626,15 0,00 0,00 0,00 0,00 0,00 2.105,00 23.861,92 3.262,06 4.148,99 0,00 0,00 7.411,05 16.450,87 31/05/2023
864 506100 ELLEM CRISTINA ROCHA FONSECA BOWEN ANALISTA DO MP GOVERNADOR VALADARES - COMARCA; COORD REG PJ DEF EDU DIR CRIANCA ADOL RIODOCE 12.343,61 2.468,72 0,00 0,00 0,00 0,00 0,00 2.105,00 16.917,33 2.150,92 2.596,93 0,00 0,00 4.747,85 12.169,48 31/05/2023
865 468200 ELLEN CRISTINA BERNARDES DARE ANALISTA DO MP TRÊS PONTAS - COMARCA; TRES PONTAS-PJ-02PJ 12.343,61 2.468,72 0,00 0,00 0,00 0,00 0,00 3.055,00 17.867,33 2.150,92 2.544,79 0,00 0,00 4.695,71 13.171,62 31/05/2023
866 418800 ELLEN CRISTINA DE QUEIROZ FERREIRA ANALISTA DO MP BELO HORIZONTE - COMARCA; CENTRAL DE APOIO TECNICO-SETOR CONTABIL 17.559,01 3.511,80 0,00 0,00 0,00 0,00 0,00 3.530,00 24.600,81 982,16 4.359,68 0,00 0,00 5.341,84 19.258,97 31/05/2023
867 328401 ELLEN CRISTINA FERREIRA MORAIS MONTEIRO ANALISTA DO MP CAMANDUCAIA - COMARCA; CAMANDUCAIA-PJ-UNPJ 17.559,01 3.511,80 0,00 0,00 0,00 0,00 0,00 2.105,00 23.175,81 3.152,28 3.938,36 0,00 0,00 7.090,64 16.085,17 31/05/2023
868 556100 ELLEN CRISTINE BIANCHIN DA SILVA OFICIAL DO MP SÃO GONÇALO DO SAPUCAÍ - COMARCA; SAO GONCALO DO SAPUCAI-PJ-02PJ 7.506,70 750,67 0,00 0,00 0,00 0,00 0,00 2.105,00 10.362,37 1.102,13 1.030,59 0,00 0,00 2.132,72 8.229,65 31/05/2023
869 714500 ELLEN PROENCA CARVALHO DE ARAUJO ASSESSOR PROMOTOR JUSTICA MARIANA - COMARCA; MARIANA-PJ-02PJ 0,00 0,00 8.810,89 0,00 0,00 0,00 0,00 2.105,00 10.915,89 876,95 1.709,37 0,00 0,00 2.586,32 8.329,57 31/05/2023
870 447100 ELLEN ROSANA DE MACEDO BORGES OFICIAL DO MP UBERLÂNDIA - COMARCA; UBERLANDIA-PJ-17PJ 10.858,90 2.171,78 0,00 0,00 0,00 0,00 0,00 2.105,00 15.135,68 1.865,86 2.185,37 0,00 0,00 4.051,23 11.084,45 31/05/2023
871 477700 ELMA JACOB OFICIAL DO MP BELO HORIZONTE - COMARCA; COORD DE GABINETE DO PGJ 10.516,49 8.413,20 0,00 0,00 0,00 2.809,70 0,00 2.105,00 23.844,39 2.809,70 4.320,70 0,00 0,00 7.130,40 16.713,99 31/05/2023
872 123300 ELMA PAULA DOS SANTOS COELHO OFICIAL DO MP BELO HORIZONTE - COMARCA; BH-19PJ SAUDE-SECRETARIA 130PJ 23.070,31 23.070,31 0,00 0,00 0,00 5.795,34 0,00 2.105,00 54.040,96 5.795,34 9.452,28 8.550,66 0,00 23.798,28 30.242,68 31/05/2023
873 728200 ELMITA XISTO DO VALLE ASSESSOR ADMINISTRATIVO I BELO HORIZONTE - COMARCA; DIRET DE FORMACAO, APERFEIC. E POS-GRADUACAO 0,00 0,00 4.872,71 0,00 0,00 0,00 0,00 2.105,00 6.977,71 718,08 670,06 0,00 0,00 1.388,14 5.589,57 31/05/2023
874 356500 ELOISA CARDOSO SILVA FRANCA OFICIAL DO MP PEÇANHA - COMARCA; PECANHA-PJ-SECRETARIA 7.506,70 2.252,01 0,00 0,00 0,00 0,00 0,00 2.105,00 11.863,71 1.342,34 1.377,40 0,00 0,00 2.719,74 9.143,97 31/05/2023
875 251901 ELOISA COSTA E SILVA ANALISTA DO MP BELO HORIZONTE - COMARCA; CENT ESTAD COOPERACAO TECNICO-JURIDICA 12.343,61 4.937,44 0,00 0,00 0,00 0,00 0,00 2.105,00 19.386,05 2.545,92 3.115,06 0,00 0,00 5.660,98 13.725,07 31/05/2023
876 400400 ELOIZA MARIA FERRI PIRES DA SILVA OFICIAL DO MP BELO HORIZONTE - COMARCA; ASSESSORIA DE COMUNICACAO INTEGRADA 10.858,90 2.171,78 4.020,58 0,00 0,00 0,00 0,00 2.105,00 19.156,26 1.865,86 3.291,03 0,00 0,00 5.156,89 13.999,37 31/05/2023
877 258000 ELSO CECIANO PALMEIRA OFICIAL DO MP BELO HORIZONTE - COMARCA; DIRET DE PESSOAL DO MINISTERIO PUBLICO - DPMP 15.949,86 12.759,89 5.928,90 0,00 0,00 0,00 508,03 7.647,18 42.793,86 4.374,51 7.437,68 0,00 0,00 11.812,19 30.981,67 31/05/2023
878 206900 ELVIRA RITA DOS SANTOS ANALISTA DO MP BELO HORIZONTE - COMARCA; CENTRAL DE APOIO TECNICO-SETOR CONTABIL 23.070,31 9.228,12 0,00 0,00 0,00 4.948,70 546,29 8.064,54 45.857,96 4.948,70 7.997,11 0,00 0,00 12.945,81 32.912,15 31/05/2023
879 506800 ELVIS FERREIRA DA SILVA ANALISTA DO MP BELO HORIZONTE - COMARCA; DIRETORIA DE SISTEMAS DE INFORMACAO 12.343,61 2.468,72 0,00 0,00 0,00 0,00 0,00 3.055,00 17.867,33 2.150,92 2.440,52 0,00 0,00 4.591,44 13.275,89 31/05/2023
880 602400 ELZA MARIA MOREIRA MUNIZ ANALISTA DO MP RIO PARANAÍBA - COMARCA; RIO PARANAIBA-PJ-UNPJ 12.343,61 1.234,36 0,00 0,00 0,00 0,00 0,00 2.105,00 15.682,97 1.953,42 2.207,52 0,00 0,00 4.160,94 11.522,03 31/05/2023
881 368401 ELZIRA SIMOES DOS SANTOS ASSESSOR DE GABINETE I BELO HORIZONTE - COMARCA; ASSESSORIA DE COMUNICACAO INTEGRADA 0,00 7.252,31 18.130,77 0,00 0,00 0,00 558,43 8.196,94 34.138,45 876,95 6.266,73 0,00 0,00 7.143,68 26.994,77 31/05/2023
882 437400 EMANOELLE DA SILVA RODRIGUES OFICIAL DO MP UNAÍ - COMARCA; UNAI-PJ-03PJ 10.015,59 2.003,12 0,00 0,00 0,00 0,00 0,00 3.055,00 15.073,71 1.703,94 1.899,46 0,00 0,00 3.603,40 11.470,31 31/05/2023
883 458900 EMANUELLE CONRAD SILVA FREDERICO NAVES ANALISTA DO MP ALFENAS - COMARCA; ALFENAS-PJ-05PJ 17.559,01 3.511,80 0,00 0,00 0,00 0,00 0,00 3.055,00 24.125,81 3.152,28 3.990,50 0,00 0,00 7.142,78 16.983,03 31/05/2023
884 284100 EMERSON MAGNO ALMEIDA PEDROSA DA FONSECA ANALISTA DO MP BELO HORIZONTE - COMARCA; CENTRAL DE APOIO TECNICO-SETOR CONTABIL 23.070,31 6.921,09 0,00 0,00 0,00 0,00 549,84 9.053,28 39.594,52 4.579,57 4.453,90 0,00 0,00 9.033,47 30.561,05 31/05/2023
885 179900 EMERSON MORAIS DIAS OFICIAL DO MP BELO HORIZONTE - COMARCA; SUPERINTENDÊNCIA DE ENGENHARIA E ARQUITETURA 21.346,53 8.538,61 0,00 0,00 0,00 0,00 547,89 8.082,03 38.515,06 4.562,57 6.078,75 0,00 0,00 10.641,32 27.873,74 31/05/2023
886 488700 EMERSON SIQUEIRA DE SOUSA TEIXEIRA ANALISTA DO MP ITANHOMI - COMARCA; ITANHOMI-PJ-UNPJ 12.343,61 2.468,72 0,00 0,00 0,00 0,00 0,00 2.105,00 16.917,33 2.150,92 2.440,52 0,00 0,00 4.591,44 12.325,89 31/05/2023
887 194200 EMILIA ALVES FERREIRA RAMOS OFICIAL DO MP UBERLÂNDIA - COMARCA; UBERLANDIA-PJ-SEC CIVEIS CRIMINAIS 14.960,00 5.984,00 0,00 0,00 0,00 0,00 0,00 2.105,00 23.049,00 3.131,99 4.013,34 0,00 0,00 7.145,33 15.903,67 31/05/2023
888 679500 EMILY DIAS LEMOS E SILVA ASSESSOR PROCURADOR JUSTICA BELO HORIZONTE - COMARCA; GABINETE DE PROCURADOR DE JUSTIÇA - SALA 307 0,00 0,00 8.810,89 0,00 0,00 0,00 0,00 2.390,00 11.200,89 876,95 1.605,10 0,00 0,00 2.482,05 8.718,84 31/05/2023
889 620700 EMILY FONTANA DE SIQUEIRA ANALISTA DO MP BELO HORIZONTE - COMARCA; BH-18PJ VIOLENCIA DOMESTICA-SECRETARIA 11.577,56 1.157,76 0,00 0,00 0,00 0,00 0,00 2.136,67 14.871,99 1.818,60 2.065,00 0,00 0,00 3.883,60 10.988,39 31/05/2023
890 297000 ENEIDA SOARES COSTA MELO ANALISTA DO MP PIUMHI - COMARCA; PIUMHI-PJ-01PJ 23.070,31 6.921,09 0,00 0,00 0,00 0,00 549,84 8.103,28 38.644,52 4.579,57 6.103,29 0,00 0,00 10.682,86 27.961,66 31/05/2023
891 276000 ENEZIO RODRIGUES DE SOUZA FILHO OFICIAL DO MP UBERLÂNDIA - COMARCA; UBERLANDIA-PJ-10PJ 12.343,61 3.703,08 0,00 0,00 0,00 0,00 0,00 2.105,00 18.151,69 2.348,42 2.882,06 0,00 0,00 5.230,48 12.921,21 31/05/2023
892 387700 ENI MARIA DOS REIS OFICIAL DO MP POUSO ALEGRE - COMARCA; POUSO ALEGRE-PJ-07PJ 12.343,61 3.703,08 0,00 0,00 0,00 0,00 0,00 2.105,00 18.151,69 2.348,42 2.882,06 0,00 0,00 5.230,48 12.921,21 31/05/2023
893 605100 ENIA MAIA ASSESSOR ADMINISTRATIVO IV BELO HORIZONTE - COMARCA; DIRETORIA DE ORCAMENTO-DIOR/SPC 14.488,22 1.448,82 0,00 0,00 0,00 0,00 0,00 2.105,00 18.042,04 1.102,13 3.194,64 0,00 0,00 4.296,77 13.745,27 31/05/2023
894 612200 ENILDO GOMES MEIRA FILHO ANALISTA DO MP BELO HORIZONTE - COMARCA; BH-23PJ INFRACIONAL-ASS JURIDICA 11.577,56 1.157,76 0,00 0,00 0,00 0,00 3.274,80 3.055,00 19.065,12 2.342,57 2.717,20 0,00 0,00 5.059,77 14.005,35 31/05/2023
895 553700 ENIVALDO NOVATO PUBLIO ANALISTA DO MP DIVINÓPOLIS - COMARCA; DIVINOPOLIS-PJ-09PJ 12.343,61 1.234,36 0,00 0,00 0,00 0,00 547,65 8.079,31 22.204,93 1.953,42 2.259,65 0,00 0,00 4.213,07 17.991,86 31/05/2023
896 680600 ENZO JOSE FERES SOUZA JABER ASSESSOR PROMOTOR JUSTICA NOVO CRUZEIRO - COMARCA; NOVO CRUZEIRO-PJ-SECRETARIA 0,00 0,00 8.810,89 0,00 0,00 0,00 0,00 1.685,92 10.496,81 876,95 1.709,37 0,00 38,42 2.624,74 7.872,07 31/05/2023
897 417300 ERIC BARATTI DA SILVA ANALISTA DO MP FRUTAL - COMARCA; FRUTAL-PJ-02PJ 13.588,97 2.717,79 0,00 0,00 0,00 0,00 0,00 3.403,33 19.710,09 2.390,03 2.942,14 0,00 0,00 5.332,17 14.377,92 31/05/2023
898 637600 ERIC DA ROCHA CHEHUEN ANALISTA DO MP LIMA DUARTE - COMARCA; LIMA DUARTE-PJ-UNPJ 11.212,54 1.121,25 0,00 0,00 0,00 0,00 0,00 2.105,00 14.438,79 982,16 2.236,74 0,00 0,00 3.218,90 11.219,89 31/05/2023
899 398900 ERIC TEIXEIRA SILVA OFICIAL DO MP UBERLÂNDIA - COMARCA; UBERLANDIA-PJ-SEC CIVEIS CRIMINAIS 11.954,43 3.586,33 0,00 0,00 0,00 0,00 1.195,44 2.105,00 18.841,20 2.458,74 3.041,34 0,00 0,00 5.500,08 13.341,12 31/05/2023
900 703600 ERICA CORDEIRO SANTOS ASSESSOR PROMOTOR JUSTICA MINAS NOVAS - COMARCA; MINAS NOVAS-PJ-UNPJ 0,00 0,00 8.810,89 0,00 0,00 0,00 0,00 2.105,00 10.915,89 876,95 1.709,37 0,00 0,00 2.586,32 8.329,57 31/05/2023
901 274200 ERICA DE SOUZA ANDRADE OFICIAL DO MP CURVELO - COMARCA; CURVELO-PJ-03PJ 14.960,00 4.488,00 0,00 0,00 0,00 0,00 0,00 2.105,00 21.553,00 2.892,63 3.615,63 0,00 0,00 6.508,26 15.044,74 31/05/2023
902 225700 ERICA GOMES DO COUTO OFICIAL DO MP BELO HORIZONTE - COMARCA; BH-21PJ TUTELA FUNDACOES-SECRETARIA 18.720,84 7.488,34 0,00 0,00 0,00 0,00 0,00 2.105,00 28.314,18 3.974,42 5.229,60 0,00 0,00 9.204,02 19.110,16 31/05/2023
903 632600 ERICA LEONOR MARTINS OFICIAL DO MP RESENDE COSTA - COMARCA; RESENDE COSTA-PJ-UNPJ 7.270,07 727,01 0,00 0,00 0,00 0,00 0,00 2.105,00 10.102,08 1.060,48 1.022,61 0,00 0,00 2.083,09 8.018,99 31/05/2023
904 524800 ERICA MACHADO DA COSTA E SOUZA ANALISTA DO MP BELO HORIZONTE - COMARCA; ASSESS TECNICO-JUR JUNTO AS PROC. DE JUST 13.588,97 2.717,79 0,00 0,00 0,00 0,00 2.173,23 2.105,00 20.584,99 2.390,03 3.539,78 0,00 0,00 5.929,81 14.655,18 31/05/2023
905 249500 ERICA RODRIGUES ANDRADE OFICIAL DO MP SÃO FRANCISCO - COMARCA; SAO FRANCISCO-PJ-02PJ 12.343,61 4.937,44 0,00 0,00 0,00 0,00 0,00 2.105,00 19.386,05 2.545,92 3.115,06 0,00 0,00 5.660,98 13.725,07 31/05/2023
906 260800 ERICA VIANA GIARDINI DE OLIVEIRA OFICIAL DO MP BELO HORIZONTE - COMARCA; DIRETORIA GESTAO COMPRAS LICITACOES 13.160,57 5.264,23 3.787,91 0,00 0,00 0,00 0,00 2.105,00 24.317,71 2.728,92 4.473,08 0,00 0,00 7.202,00 17.115,71 31/05/2023
907 299800 ERICH DOUGLAS RIBEIRO GARCIA ANALISTA DO MP BELO HORIZONTE - COMARCA; CENTRAL DE APOIO TECNICO-SETOR CONTABIL 22.191,68 6.657,50 0,00 0,00 0,00 0,00 528,90 7.874,84 37.252,92 4.396,82 5.839,44 0,00 0,00 10.236,26 27.016,66 31/05/2023
908 365000 ERICK EDUARDO JOSE DA SILVA OFICIAL DO MP JUIZ DE FORA - COMARCA; JUIZ DE FORA-PJ-12PJ 7.506,70 2.252,01 0,00 0,00 0,00 0,00 0,00 2.105,00 11.863,71 1.342,34 1.429,54 0,00 0,00 2.771,88 9.091,83 31/05/2023
909 227400 ERIKA DE LAET GOULART BOECHAT OFICIAL DO MP BELO HORIZONTE - COMARCA; BH-17PJ PATRIMONIO PUBLICO-SECRETARIA 18.720,84 7.488,34 0,00 0,00 0,00 0,00 192,20 4.201,73 30.603,11 3.974,42 5.177,46 0,00 0,00 9.151,88 21.451,23 31/05/2023
910 681301 ERIKA FERNANDA ELISEU FERREIRA ASSESSOR PROCURADOR JUSTICA BELO HORIZONTE - COMARCA; GABINETE DE PROCURADOR DE JUSTIÇA - SALA 411 0,00 0,00 8.810,89 0,00 0,00 0,00 0,00 2.105,00 10.915,89 876,95 1.709,37 0,00 0,00 2.586,32 8.329,57 31/05/2023
911 285100 ERIKA FERREIRA DA SILVA OFICIAL DO MP JUIZ DE FORA - COMARCA; JUIZ DE FORA-PJ-11PJ 12.343,61 3.703,08 0,00 0,00 0,00 0,00 0,00 2.105,00 18.151,69 2.348,42 2.882,06 0,00 0,00 5.230,48 12.921,21 31/05/2023
912 420100 ERIKA JEANINE VERSIANI DE CASTRO ANALISTA DO MP BELO HORIZONTE - COMARCA; CAO-EDUCACAO 18.130,77 3.626,15 0,00 0,00 0,00 0,00 0,00 2.105,00 23.861,92 3.262,06 4.201,13 0,00 0,00 7.463,19 16.398,73 31/05/2023
913 677100 ERIKA LAYS CARDOSO FERNANDES ASSESSOR PROMOTOR JUSTICA GRAO MOGOL - COMARCA; GRAO MOGOL-PJ-UNPJ 0,00 0,00 8.810,89 0,00 0,00 0,00 0,00 2.105,00 10.915,89 876,95 1.709,37 0,00 0,00 2.586,32 8.329,57 31/05/2023
914 606900 ERIKA MARIA BARBOSA ANALISTA DO MP BELO HORIZONTE - COMARCA; CAO-SAUDE 11.577,56 1.157,76 0,00 0,00 0,00 0,00 0,00 2.105,00 14.840,32 1.818,60 2.065,00 0,00 0,00 3.883,60 10.956,72 31/05/2023
915 491000 ERIKA ROCHA PEREIRA E SILVA COORDENADOR II BELO HORIZONTE - COMARCA; DIR GOVERNANCA TECNOLOGIA INFORMACAO 20.533,67 4.106,73 0,00 0,00 0,00 0,00 90,35 3.090,62 27.821,37 2.307,78 5.256,51 0,00 0,00 7.564,29 20.257,08 31/05/2023
916 283201 ERIKA STEHLING COORDENADOR I BELO HORIZONTE - COMARCA; CENTRAL DE APOIO TECNICO-SETOR DE ENGENHARIA 16.469,17 3.293,83 0,00 0,00 0,00 0,00 0,00 2.105,00 21.868,00 2.150,92 3.958,36 0,00 0,00 6.109,28 15.758,72 31/05/2023
917 254000 ERLANDIA DA SILVA MENDES OFICIAL DO MP IPATINGA - COMARCA; IPATINGA-PJ-03PJ 17.559,01 8.779,51 0,00 0,00 0,00 0,00 193,15 4.212,08 30.743,75 3.995,11 5.103,07 0,00 0,00 9.098,18 21.645,57 31/05/2023
918 348500 ERNILANDIA DE OLIVEIRA DIAS OFICIAL DO MP MONTES CLAROS - COMARCA; MONTES CLAROS-PJ-16PJ 12.343,61 3.703,08 0,00 0,00 0,00 0,00 0,00 2.105,00 18.151,69 2.348,42 2.882,06 0,00 0,00 5.230,48 12.921,21 31/05/2023
919 199300 ERTON PORTINARI DE ANDRADE OFICIAL DO MP SETE LAGOAS - COMARCA; SETE LAGOAS-PJ-05PJ 20.533,67 10.266,84 0,00 0,00 0,00 0,00 564,68 8.265,10 39.630,29 4.709,03 5.854,60 0,00 0,00 10.563,63 29.066,66 31/05/2023
920 618800 ESLY DE CARLA AYALLA BARBOSA MENDES OFICIAL DO MP NOVA LIMA - COMARCA; NOVA LIMA-PJ-SECRETARIA 6.818,83 681,88 0,00 0,00 0,00 0,00 0,00 2.105,00 9.605,71 981,10 907,93 0,00 0,00 1.889,03 7.716,68 31/05/2023
921 537000 ESTANISLAU CORREIA ALMEIDA JUNIOR OFICIAL DO MP UBERLÂNDIA - COMARCA; UBERLANDIA-PJ-25PJ 7.506,70 1.501,34 0,00 0,00 0,00 0,00 0,00 2.105,00 11.113,04 1.222,23 1.256,14 0,00 0,00 2.478,37 8.634,67 31/05/2023
922 692100 ESTEFANIA FARIA FERREIRA ASSESSOR PROCURADOR JUSTICA BELO HORIZONTE - COMARCA; GABINETE DE PROCURADOR DE JUSTIÇA - SALA 814 0,00 0,00 8.810,89 0,00 0,00 0,00 0,00 2.105,00 10.915,89 876,95 1.709,37 0,00 0,00 2.586,32 8.329,57 31/05/2023
923 326900 ESTER ALICE PIMENTA OFICIAL DO MP BELO HORIZONTE - COMARCA; COORD DE INCLUSAO E MOBILIZACAO SOCIAIS 12.343,61 3.703,08 0,00 0,00 0,00 0,00 0,00 2.105,00 18.151,69 2.348,42 2.882,06 0,00 0,00 5.230,48 12.921,21 31/05/2023
924 503700 ESTHER GONCALVES FONSECA ANALISTA DO MP BELO HORIZONTE - COMARCA; DIR CRIACAO E MIDIAS 12.343,61 2.468,72 0,00 0,00 0,00 0,00 0,00 2.105,00 16.917,33 2.150,92 2.596,93 0,00 0,00 4.747,85 12.169,48 31/05/2023
925 475600 ETIENE DE FATIMA OLIVEIRA PEREIRA ANALISTA DO MP PATROCÍNIO - COMARCA; PATROCINIO-PJ-04PJ 12.343,61 2.468,72 0,00 0,00 0,00 0,00 0,00 2.105,00 16.917,33 982,16 2.703,58 0,00 0,00 3.685,74 13.231,59 31/05/2023
926 428800 EUGENIA RODRIGUES TRAJANO BORGES ANALISTA DO MP UBERABA - COMARCA; UBERABA-PJ-10PJ 17.559,01 3.511,80 0,00 0,00 0,00 0,00 0,00 3.055,00 24.125,81 3.152,28 4.042,64 0,00 0,00 7.194,92 16.930,89 31/05/2023
927 272700 EUGENIO DE BARCELOS FILHO OFICIAL DO MP FRUTAL - COMARCA; FRUTAL-PJ-03PJ 12.343,61 3.703,08 0,00 0,00 0,00 0,00 0,00 2.105,00 18.151,69 2.348,42 2.882,06 0,00 0,00 5.230,48 12.921,21 31/05/2023
928 254100 EULALIA ALVES MIRANDA LUCAS OFICIAL DO MP ALMENARA - COMARCA; ALMENARA-PJ-02PJ 15.949,86 7.974,93 0,00 0,00 0,00 0,00 0,00 2.105,00 26.029,79 3.608,91 4.597,63 0,00 0,00 8.206,54 17.823,25 31/05/2023
929 641200 EUNICE ELVIRA DA SILVA MATOS OFICIAL DO MP BELO HORIZONTE - COMARCA; BH-14PJ DEFESA CONSUMIDOR-SECRETARIA 6.603,76 660,38 0,00 0,00 0,00 0,00 0,00 2.105,00 9.369,14 944,43 852,96 0,00 0,00 1.797,39 7.571,75 31/05/2023
930 557900 EURIPEDES JOSUE PERES OFICIAL DO MP IBIÁ - COMARCA; IBIA-PJ-UNPJ 7.506,70 750,67 0,00 0,00 0,00 0,00 0,00 2.105,00 10.362,37 1.102,13 1.082,73 0,00 0,00 2.184,86 8.177,51 31/05/2023
931 225800 EURO CESAR VIEIRA BARBOSA ANALISTA DO MP BELO HORIZONTE - COMARCA; BH-17PJ PATRIMONIO PUBLICO-SECRETARIA 23.070,31 9.228,12 0,00 0,00 0,00 0,00 473,71 7.272,75 40.044,89 4.948,70 6.531,94 0,00 0,00 11.480,64 28.564,25 31/05/2023
932 199400 EUSTAQUIO ADAILTON LIMA E SILVA OFICIAL DO MP MANGA - COMARCA; MANGA-PJ-01PJ 20.533,67 14.373,58 0,00 0,00 0,00 0,00 511,97 7.690,16 43.109,38 5.366,11 7.082,44 0,00 0,00 12.448,55 30.660,83 31/05/2023
933 548000 EVA VILMA LEAO REIS JULIO OFICIAL DO MP BELO HORIZONTE - COMARCA; BH-07PJ 01 TRIBUNAL JURI-SECRETARIA 7.506,70 3.002,68 0,00 0,00 0,00 0,00 0,00 2.105,00 12.614,38 1.462,45 1.602,95 0,00 0,00 3.065,40 9.548,98 31/05/2023
934 517000 EVALDO SENA COSTA FILHO ANALISTA DO MP CONTAGEM - COMARCA; CONTAGEM-PJ-20PJ 12.343,61 4.937,44 0,00 0,00 0,00 0,00 0,00 2.105,00 19.386,05 2.545,92 3.062,93 0,00 0,00 5.608,85 13.777,20 31/05/2023
935 217500 EVELANGE LEAO RABELO ASSESSOR ADMINISTRATIVO II BELO HORIZONTE - COMARCA; CAO-PESSOAS IDOSAS E PESSOAS COM DEFICIENCIA 0,00 3.002,68 7.506,70 0,00 0,00 0,00 0,00 2.105,00 12.614,38 876,95 2.176,46 0,00 0,00 3.053,41 9.560,97 31/05/2023
936 679600 EVERTON BARBOSA DA SILVA ASSESSOR PROCURADOR JUSTICA BELO HORIZONTE - COMARCA; GABINETE DE PROCURADOR DE JUSTIÇA - SALA 510 0,00 0,00 8.810,89 0,00 0,00 0,00 258,45 4.924,48 13.993,82 876,95 1.709,37 0,00 0,00 2.586,32 11.407,50 31/05/2023
937 540400 EVIE SARAMELLA DE RESENDE OFICIAL DO MP BARBACENA - COMARCA; BARBACENA-PJ-05PJ 7.506,70 1.501,34 0,00 0,00 0,00 0,00 0,00 2.105,00 11.113,04 1.222,23 1.256,14 0,00 0,00 2.478,37 8.634,67 31/05/2023
938 469000 EWERTON CARDOSO DE SA RODRIGUES ANALISTA DO MP CAMPO BELO - COMARCA; CAMPO BELO-PJ-02PJ 12.343,61 2.468,72 0,00 0,00 0,00 0,00 0,00 2.105,00 16.917,33 2.150,92 2.492,65 0,00 0,00 4.643,57 12.273,76 31/05/2023
939 368900 FABIANA BARBOSA SIQUEIRA OFICIAL DO MP BELO HORIZONTE - COMARCA; CAO-ORDEM ECONOMICA E TRIBUTARIA-SECRETARIA 13.588,97 4.076,69 0,00 0,00 0,00 0,00 0,00 2.105,00 19.770,66 2.607,45 3.203,91 0,00 0,00 5.811,36 13.959,30 31/05/2023
940 273800 FABIANA CARNEIRO AMORIM OFICIAL DO MP BELO HORIZONTE - COMARCA; BH-23PJ CIVEL-COORD ADM CIVEL 15.447,01 4.634,10 4.346,47 0,00 0,00 0,00 89,57 3.082,10 27.599,25 2.993,93 4.957,16 0,00 0,00 7.951,09 19.648,16 31/05/2023
941 519300 FABIANA DE OLIVEIRA LOUREIRO ANALISTA DO MP BELO HORIZONTE - COMARCA; BH-09PJ AUDITORIA MILITAR-SECRETARIA 12.343,61 2.468,72 0,00 0,00 0,00 0,00 217,25 4.474,97 19.504,55 2.150,92 2.596,93 0,00 0,00 4.747,85 14.756,70 31/05/2023
942 363400 FABIANA DOURADO DUPIN VIEGAS ANALISTA DO MP BELO HORIZONTE - COMARCA; GABINETE DE PROCURADOR DE JUSTIÇA - SALA 705 21.346,53 6.403,96 0,00 0,00 0,00 0,00 0,00 2.105,00 29.855,49 4.221,03 5.533,50 0,00 0,00 9.754,53 20.100,96 31/05/2023
943 410800 FABIANA DUARTE QUITITE ANALISTA DO MP BELO HORIZONTE - COMARCA; BH-15PJ M AMB PAT HIST CULT-GAB 116PJ 18.130,77 3.626,15 0,00 0,00 0,00 0,00 0,00 2.105,00 23.861,92 3.262,06 4.201,13 0,00 0,00 7.463,19 16.398,73 31/05/2023
944 419500 FABIANA EULALIA DOS SANTOS ANALISTA DO MP SÃO JOÃO DEL REI - COMARCA; SAO JOAO DEL REI-PJ-01PJ 18.130,77 3.626,15 0,00 0,00 0,00 0,00 0,00 2.105,00 23.861,92 3.262,06 4.201,13 0,00 0,00 7.463,19 16.398,73 31/05/2023
945 725200 FABIANA LOPES DE JESUS ASSESSOR PROMOTOR JUSTICA CONTAGEM - COMARCA; CONTAGEM-PJ-01PJ 0,00 0,00 8.810,89 0,00 2.936,96 0,00 0,00 2.105,00 13.852,85 876,95 2.517,04 0,00 0,00 3.393,99 10.458,86 31/05/2023
946 700300 FABIANA MARCIA DE SOUZA ASSESSOR ADMINISTRATIVO II BELO HORIZONTE - COMARCA; DIRET DE CONTROLE E DE MANUTENCAO DE IMOVEIS 0,00 0,00 7.506,70 0,00 0,00 0,00 0,00 2.105,00 9.611,70 876,95 1.350,72 0,00 0,00 2.227,67 7.384,03 31/05/2023
947 331500 FABIANA PACHECO OFICIAL DO MP GUAXUPÉ - COMARCA; GUAXUPE-PJ-01PJ 12.343,61 3.703,08 0,00 0,00 0,00 0,00 0,00 2.105,00 18.151,69 2.348,42 2.777,79 0,00 0,00 5.126,21 13.025,48 31/05/2023
948 510700 FABIANA PEREIRA SANTOS BORGES ANALISTA DO MP BELO HORIZONTE - COMARCA; DIRETORIA DE SISTEMAS DE INFORMACAO 12.343,61 2.468,72 5.538,92 0,00 0,00 0,00 0,00 2.105,00 22.456,25 2.150,92 4.067,99 0,00 0,00 6.218,91 16.237,34 31/05/2023
949 181700 FABIANA SOUZA FERREIRA OFICIAL DO MP BELO HORIZONTE - COMARCA; BH-19PJ SAUDE-SECRETARIA 150PJ 7.506,70 3.002,68 0,00 0,00 0,00 0,00 0,00 2.105,00 12.614,38 1.462,45 1.498,67 0,00 0,00 2.961,12 9.653,26 31/05/2023
950 272900 FABIANA STOCKLER LEITE OFICIAL DO MP LAJINHA - COMARCA; LAJINHA-PJ-SECRETARIA 12.343,61 6.171,81 0,00 0,00 0,00 0,00 0,00 2.105,00 20.620,42 2.743,42 3.400,20 0,00 0,00 6.143,62 14.476,80 31/05/2023
951 225500 FABIANE DE FATIMA PORTELLA ANALISTA DO MP BELO HORIZONTE - COMARCA; BH-18PJ DIREITOS HUMANOS-SECRETARIA 23.070,31 9.228,12 0,00 0,00 0,00 0,00 0,00 2.105,00 34.403,43 4.948,70 6.636,22 0,00 0,00 11.584,92 22.818,51 31/05/2023
952 433800 FABIANE DINIZ MATTOS ANALISTA DO MP BELO HORIZONTE - COMARCA; BH-23PJ INFRACIONAL-ASS JURIDICA 18.130,77 3.626,15 0,00 0,00 0,00 0,00 5.594,64 2.105,00 29.456,56 4.157,20 5.493,49 0,00 0,00 9.650,69 19.805,87 31/05/2023
953 455000 FABIANO CARVALHO DA SILVA ANALISTA DO MP LAVRAS - COMARCA; LAVRAS-PJ-05PJ 12.343,61 2.468,72 0,00 0,00 0,00 0,00 0,00 2.105,00 16.917,33 2.150,92 2.596,93 0,00 0,00 4.747,85 12.169,48 31/05/2023
954 498800 FABIANO FURTADO PESSOA COELHO ANALISTA DO MP BELO HORIZONTE - COMARCA; DIRETORIA DE REDES E BANCOS DE DADOS 12.343,61 2.468,72 0,00 0,00 0,00 0,00 0,00 2.105,00 16.917,33 2.150,92 2.492,65 0,00 0,00 4.643,57 12.273,76 31/05/2023
955 663000 FABIANO MARQUES CORREA ASSESSOR ADMINISTRATIVO II BELO HORIZONTE - COMARCA; DIRETORIA DE SUPORTE E MANUTENCAO 0,00 0,00 7.506,70 0,00 0,00 0,00 0,00 2.105,00 9.611,70 876,95 1.350,72 0,00 0,00 2.227,67 7.384,03 31/05/2023
956 394600 FABIANO PALHARES SILVA ANALISTA DO MP BELO HORIZONTE - COMARCA; CENTRAL DE APOIO TECN-SETOR DE MEIO AMBIENTE 18.720,84 5.616,25 0,00 0,00 0,00 0,00 535,42 7.945,90 32.818,41 3.674,88 4.745,01 0,00 0,00 8.419,89 24.398,52 31/05/2023
957 676600 FABIANO RESENDE VELOSO ASSESSOR PROCURADOR JUSTICA BELO HORIZONTE - COMARCA; GABINETE DE PROCURADOR DE JUSTIÇA - SALA 1002 0,00 0,00 8.810,89 0,00 0,00 0,00 0,00 2.105,00 10.915,89 876,95 1.709,37 0,00 0,00 2.586,32 8.329,57 31/05/2023
958 444400 FABIANO SARAIVA MEDEIROS ANALISTA DO MP BETIM - COMARCA; BETIM-PJ-11PJ 17.559,01 3.511,80 0,00 0,00 0,00 0,00 0,00 2.105,00 23.175,81 3.152,28 3.938,36 0,00 0,00 7.090,64 16.085,17 31/05/2023
959 408700 FABIANO SOARES PORTILHO ANALISTA DO MP JUIZ DE FORA - COMARCA; GAECO REGIONAL DA ZONA DA MATA-JUIZ DE FORA 18.130,77 3.626,15 0,00 0,00 0,00 0,00 0,00 2.105,00 23.861,92 3.262,06 4.201,13 0,00 0,00 7.463,19 16.398,73 31/05/2023
960 442600 FABIO CARVALHO VIEIRA ANALISTA DO MP MONTES CLAROS - COMARCA; MONTES CLAROS-PJ-06PJ 12.343,61 2.468,72 0,00 0,00 0,00 0,00 543,12 8.029,93 23.385,38 2.150,92 2.596,93 0,00 0,00 4.747,85 18.637,53 31/05/2023
961 716600 FABIO DAMASCENA MONTEIRO DE CARVALHO ASSESSOR PROMOTOR JUSTICA JACINTO - COMARCA; JACINTO-PJ-UNPJ 0,00 0,00 8.810,89 0,00 0,00 0,00 0,00 2.105,00 10.915,89 876,95 1.709,37 0,00 0,00 2.586,32 8.329,57 31/05/2023
962 702700 FABIO JUNIOR COSTA BARREIROS ASSESSOR ADMINISTRATIVO II BELO HORIZONTE - COMARCA; DIVISAO DE MANUTENCAO PREDIAL 0,00 0,00 7.506,70 0,00 0,00 0,00 0,00 2.105,00 9.611,70 876,95 903,70 0,00 0,00 1.780,65 7.831,05 31/05/2023
963 240101 FABIO JUNQUEIRA DE ASSIS FONSECA OFICIAL DO MP BELO HORIZONTE - COMARCA; BH-17PJ PATRIMONIO PUBLICO-SECRETARIA 10.341,72 3.102,52 0,00 0,00 0,00 0,00 542,25 8.020,47 22.006,96 1.932,03 2.280,90 0,00 0,00 4.212,93 17.794,03 31/05/2023
964 271500 FABIO LUIZ VIEIRA OFICIAL DO MP SANTA VITÓRIA - COMARCA; SANTA VITORIA-PJ-UNPJ 12.343,61 3.703,08 0,00 0,00 0,00 0,00 0,00 2.160,05 18.206,74 2.348,42 2.829,93 0,00 0,00 5.178,35 13.028,39 31/05/2023
965 213100 FABIO PRATES GONCALVES ASSESSOR ADMINISTRATIVO IV BELO HORIZONTE - COMARCA; DIR RELACOES INSTITUCIONAIS 0,00 5.795,29 14.488,22 0,00 0,00 0,00 1.016,88 2.105,00 23.405,39 876,95 4.987,57 0,00 0,00 5.864,52 17.540,87 31/05/2023
966 436700 FABIO SANTIAGO DE CARVALHO OFICIAL DO MP POÇO FUNDO - COMARCA; POCO FUNDO-PJ-UNPJ 11.212,54 2.242,51 0,00 0,00 0,00 0,00 0,00 2.105,00 15.560,05 1.933,76 2.283,39 0,00 0,00 4.217,15 11.342,90 31/05/2023
967 208400 FABIOLA DE SOUSA CARDOSO ANALISTA DO MP BELO HORIZONTE - COMARCA; CGMP-DIR ESTAGIO PROBATORIO E ORIENT 23.070,31 9.228,12 6.160,10 0,00 0,00 0,00 551,32 8.119,39 47.129,24 4.948,70 8.091,39 868,57 0,00 13.908,66 33.220,58 31/05/2023
968 392200 FABIOLA LEROY COSTA ANALISTA DO MP ESMERALDAS - COMARCA; ESMERALDAS-PJ-01PJ 12.343,61 3.703,08 0,00 0,00 0,00 0,00 0,00 4.005,00 20.051,69 2.348,42 2.882,06 0,00 0,00 5.230,48 14.821,21 31/05/2023
969 409000 FABIOLA MONTEIRO DE CARVALHO CASTRO ANALISTA DO MP BOM SUCESSO - COMARCA; BOM SUCESSO-PJ-UNPJ 15.447,01 3.089,40 0,00 0,00 0,00 0,00 0,00 2.105,00 20.641,41 2.746,77 3.457,19 0,00 0,00 6.203,96 14.437,45 31/05/2023
970 525800 FABRICIA ALVES DANTAS OFICIAL DO MP MONTES CLAROS - COMARCA; MONTES CLAROS-PJ-01PJ 9.699,77 1.939,95 0,00 0,00 0,00 0,00 0,00 2.105,00 13.744,72 1.643,30 1.811,92 0,00 0,00 3.455,22 10.289,50 31/05/2023
971 263400 FABRICIA PINTO TEIXEIRA SANTIAGO OFICIAL DO MP BELO HORIZONTE - COMARCA; CAO-FUNDACOES-SECRETARIA 17.559,01 5.267,70 0,00 0,00 0,00 0,00 0,00 2.105,00 24.931,71 3.433,22 4.343,98 0,00 0,00 7.777,20 17.154,51 31/05/2023
972 420800 FABRICIO BERNARDES DE OLIVEIRA OFICIAL DO MP ITURAMA - COMARCA; ITURAMA-PJ-02PJ 11.212,54 2.242,51 0,00 0,00 0,00 0,00 0,00 3.112,89 16.567,94 1.933,76 2.231,26 0,00 0,00 4.165,02 12.402,92 31/05/2023
973 474000 FABRICIO DE FREITAS SALES ANALISTA DO MP MONTES CLAROS - COMARCA; COORD REG PP NORTE MINAS GERAIS MONTES CLAROS 12.343,61 2.468,72 0,00 0,00 0,00 0,00 0,00 2.105,00 16.917,33 2.150,92 2.596,93 0,00 0,00 4.747,85 12.169,48 31/05/2023
974 510100 FABRICIO FURTADO ASSIS DO CARMO ANALISTA DO MP BELO HORIZONTE - COMARCA; SERVICO MEDICO-DEPTO PERIC MEDICA SAUDE OCUP 12.343,61 2.468,72 0,00 0,00 0,00 0,00 1.181,10 4.005,00 19.998,43 2.150,92 2.921,73 0,00 0,00 5.072,65 14.925,78 31/05/2023
975 519600 FABRICIO GONTIJO SALVATI ANALISTA DO MP JUIZ DE FORA - COMARCA; JUIZ DE FORA-CAO ESPECIALIZADO-SECRETARIA 12.343,61 2.468,72 0,00 0,00 0,00 0,00 0,00 2.105,00 16.917,33 2.150,92 2.596,93 0,00 0,00 4.747,85 12.169,48 31/05/2023
976 637400 FABRICIO HENRIQUE DA SILVA PASSOS ANALISTA DO MP BELO HORIZONTE - COMARCA; DIR CRIACAO E MIDIAS 12.343,61 1.234,36 4.020,58 0,00 0,00 0,00 0,00 2.105,00 19.703,55 1.953,42 3.417,45 0,00 0,00 5.370,87 14.332,68 31/05/2023
977 428200 FABRICIO ORZIL VIANA ANALISTA DO MP SANTA LUZIA - COMARCA; SANTA LUZIA-PJ-04PJ 12.343,61 2.468,72 0,00 0,00 0,00 0,00 0,00 2.105,00 16.917,33 2.150,92 2.596,93 0,00 0,00 4.747,85 12.169,48 31/05/2023
978 455600 FABRICIO PAIVA DA ROCHA ANALISTA DO MP SÃO JOÃO DEL REI - COMARCA; SAO JOAO DEL REI-PJ-06PJ 12.343,61 2.468,72 0,00 0,00 0,00 0,00 0,00 3.055,00 17.867,33 2.150,92 2.544,79 0,00 0,00 4.695,71 13.171,62 31/05/2023
979 511500 FABRICIO RENE CARDOSO DE PADUA ANALISTA DO MP SÃO SEBASTIÃO DO PARAÍSO - COMARCA; SAO SEBASTIAO DO PARAISO-PJ-03PJ 12.343,61 2.468,72 0,00 0,00 0,00 0,00 0,00 2.105,00 16.917,33 2.150,92 2.596,93 0,00 0,00 4.747,85 12.169,48 31/05/2023
980 496100 FABRICIO RESENDE GONCALVES OFICIAL DO MP ENTRE-RIOS DE MINAS - COMARCA; ENTRE RIOS DE MINAS-PJ-UNPJ 9.699,77 1.939,95 0,00 0,00 0,00 0,00 0,00 2.105,00 13.744,72 1.643,30 1.864,06 0,00 0,00 3.507,36 10.237,36 31/05/2023
981 650300 FABRICIO ROBERTO AZEVEDO OFICIAL DO MP NOVA SERRANA - COMARCA; NOVA SERRANA-PJ-04PJ 6.097,80 609,78 0,00 0,00 0,00 0,00 0,00 2.105,00 8.812,58 858,46 723,55 0,00 0,00 1.582,01 7.230,57 31/05/2023
982 514900 FADUA MARIA DRUMOND CHEQUER ANALISTA DO MP BETIM - COMARCA; BETIM-PJ-12PJ 12.343,61 2.468,72 0,00 0,00 0,00 0,00 0,00 2.105,00 16.917,33 2.150,92 2.492,65 0,00 0,00 4.643,57 12.273,76 31/05/2023
983 282500 FANNY FERREIRA MELO OFICIAL DO MP ARAXÁ - COMARCA; ARAXA-PJ-03PJ 13.160,57 3.948,17 0,00 0,00 0,00 0,00 0,00 2.105,00 19.213,74 2.518,35 3.127,40 0,00 0,00 5.645,75 13.567,99 31/05/2023
984 692500 FARID JUNIOR NUNES DA SILVA ASSESSOR PROCURADOR JUSTICA BELO HORIZONTE - COMARCA; GABINETE DE PROCURADOR DE JUSTIÇA - SALA 912 0,00 0,00 8.810,89 0,00 0,00 0,00 0,00 2.105,00 10.915,89 876,95 1.605,10 0,00 0,00 2.482,05 8.433,84 31/05/2023
985 382800 FATIMA DE OLIVEIRA COELHO E SILVA OFICIAL DO MP BELO HORIZONTE - COMARCA; DIRETORIA DE ADMINISTRACAO FINANCEIRA 11.212,54 4.485,02 4.020,58 0,00 0,00 0,00 506,10 7.626,08 27.850,32 2.292,56 3.854,94 0,00 0,00 6.147,50 21.702,82 31/05/2023
986 398601 FELIPE ANTONIO HORTA DE PAULA ANALISTA DO MP BELO HORIZONTE - COMARCA; PROC. JUSTICA DIR. DIFUSOS E COLETIVOS-SEC 12.343,61 2.468,72 0,00 0,00 0,00 0,00 1.238,89 2.154,37 18.205,59 2.348,42 2.882,06 0,00 0,00 5.230,48 12.975,11 31/05/2023
987 430900 FELIPE BOY VIEIRA ANALISTA DO MP BELO HORIZONTE - COMARCA; DIRETORIA DE SEGURANCA 15.949,86 3.189,97 6.160,10 0,00 0,00 0,00 0,00 2.105,00 27.404,93 982,16 5.435,46 0,00 0,00 6.417,62 20.987,31 31/05/2023
988 631700 FELIPE DE MORAIS SIMOES COELHO ANALISTA DO MP BELO HORIZONTE - COMARCA; BH-18PJ VIOLENCIA DOMESTICA-SECRETARIA 10.516,49 1.051,65 0,00 0,00 0,00 0,00 0,00 2.105,00 13.673,14 1.631,85 1.847,52 0,00 0,00 3.479,37 10.193,77 31/05/2023
989 549100 FELIPE FERNANDES ALVIM ANALISTA DO MP LAJINHA - COMARCA; LAJINHA-PJ-UNPJ 12.343,61 2.468,72 0,00 0,00 0,00 0,00 1.238,89 3.104,37 19.155,59 2.348,42 2.882,06 0,00 0,00 5.230,48 13.925,11 31/05/2023
990 693100 FELIPE FROIS DO AMARAL ASSESSOR PROMOTOR JUSTICA RIBEIRÃO DAS NEVES - COMARCA; RIBEIRAO NEVES-SEC PJ EXECUCAO PENAL 0,00 0,00 8.810,89 0,00 0,00 0,00 0,00 2.105,00 10.915,89 876,95 1.709,37 0,00 0,00 2.586,32 8.329,57 31/05/2023
991 620100 FELIPE GOMES DE AZEVEDO OFICIAL DO MP BELO HORIZONTE - COMARCA; DIVISAO DE SERVICOS 6.818,83 681,88 4.020,58 0,00 0,00 0,00 0,00 2.105,00 13.626,29 981,10 2.013,59 0,00 0,00 2.994,69 10.631,60 31/05/2023
992 601600 FELIPE RODRIGUES DE SIQUEIRA ANALISTA DO MP BELO HORIZONTE - COMARCA; BH-02PJ FAMILIA-SECRETARIA 12.343,61 1.234,36 0,00 0,00 0,00 0,00 0,00 2.105,00 15.682,97 982,16 2.018,08 0,00 0,00 3.000,24 12.682,73 31/05/2023
993 628900 FELIX FERNANDO JUNIO VIEIRA ANALISTA DO MP BELO HORIZONTE - COMARCA; BH-21PJ TUTELA DAS FUNDACOES-ASS CURADORES 11.577,56 1.157,76 0,00 0,00 0,00 0,00 0,00 3.055,00 15.790,32 1.818,60 2.012,86 0,00 0,00 3.831,46 11.958,86 31/05/2023
994 544500 FELLIPE LEMOS MARCONDES BUENO ANALISTA DO MP SÃO SEBASTIÃO DO PARAÍSO - COMARCA; SAO SEBASTIAO DO PARAISO-PJ-04PJ 12.343,61 2.468,72 0,00 0,00 0,00 0,00 0,00 2.105,00 16.917,33 2.150,92 2.596,93 0,00 0,00 4.747,85 12.169,48 31/05/2023
995 688500 FELLIPE TADEU DE ANDRADE RAMOS ASSESSOR PROCURADOR JUSTICA BELO HORIZONTE - COMARCA; GABINETE DE PROCURADOR DE JUSTIÇA - SALA 907 0,00 0,00 8.810,89 0,00 0,00 0,00 0,00 2.105,00 10.915,89 876,95 1.709,37 0,00 0,00 2.586,32 8.329,57 31/05/2023
996 612600 FERNANDA ADRIANA DE PAULA GUIDO ANALISTA DO MP BELO HORIZONTE - COMARCA; CENT ESTAD COOPERACAO TECNICO-JURIDICA 11.577,56 1.157,76 0,00 0,00 0,00 0,00 0,00 3.055,00 15.790,32 1.818,60 2.117,14 0,00 0,00 3.935,74 11.854,58 31/05/2023
997 508400 FERNANDA AGANETTI MATTOS DE OLIVEIRA ANALISTA DO MP BELO HORIZONTE - COMARCA; CENT ESTAD COOPERACAO TECNICO-JURIDICA 12.343,61 2.468,72 0,00 0,00 0,00 0,00 0,00 4.005,00 18.817,33 982,16 2.918,34 0,00 0,00 3.900,50 14.916,83 31/05/2023
998 453600 FERNANDA ALBERNAZ RABELO ANALISTA DO MP BELO HORIZONTE - COMARCA; GABINETE DE PROCURADOR DE JUSTIÇA - SALA 616 12.343,61 2.468,72 0,00 0,00 0,00 0,00 0,00 3.055,00 17.867,33 2.150,92 2.596,93 0,00 0,00 4.747,85 13.119,48 31/05/2023
999 255600 FERNANDA ALINA DE ALMEIDA ANDRADE OFICIAL DO MP BELO HORIZONTE - COMARCA; DIRETORIA DE INTELIGENCIA 12.343,61 4.937,44 0,00 0,00 0,00 0,00 0,00 2.105,00 19.386,05 2.545,92 3.167,20 0,00 0,00 5.713,12 13.672,93 31/05/2023
1000 443200 FERNANDA ALMEIDA LOPES ANALISTA DO MP CONTAGEM - COMARCA; CONTAGEM-PJ-10PJ 17.559,01 3.511,80 0,00 0,00 0,00 0,00 540,82 8.954,83 30.566,46 3.152,28 3.938,36 0,00 0,00 7.090,64 23.475,82 31/05/2023
1001 281100 FERNANDA ANANIAS MEIRA ANALISTA DO MP BELO HORIZONTE - COMARCA; BH-23PJ INFRACIONAL-ASS JURIDICA 22.191,68 6.657,50 0,00 0,00 0,00 0,00 5.934,69 2.105,00 36.888,87 5.346,37 7.210,35 0,00 0,00 12.556,72 24.332,15 31/05/2023
1002 539000 FERNANDA BARBOSA ALVES ANALISTA DO MP UBERABA - COMARCA; UBERABA-PJ-04PJ 12.343,61 2.468,72 0,00 0,00 0,00 0,00 0,00 3.055,00 17.867,33 2.150,92 2.596,93 0,00 0,00 4.747,85 13.119,48 31/05/2023
1003 451200 FERNANDA BLOISE PRADO OFICIAL DO MP BELO HORIZONTE - COMARCA; GAECO - SECRETARIA 10.516,49 2.103,30 0,00 0,00 0,00 0,00 0,00 2.105,00 14.724,79 1.800,11 2.090,45 0,00 0,00 3.890,56 10.834,23 31/05/2023
1004 427900 FERNANDA BRAGA CARNEIRO BICALHO ANALISTA DO MP PEÇANHA - COMARCA; PECANHA-PJ-SECRETARIA 12.343,61 2.468,72 0,00 0,00 0,00 0,00 0,00 2.105,00 16.917,33 2.150,92 2.544,79 0,00 0,00 4.695,71 12.221,62 31/05/2023
1005 507100 FERNANDA CABRINI VAZ MOTA ANALISTA DO MP BELO HORIZONTE - COMARCA; DIVISAO DE MATERIAIS 12.343,61 2.468,72 4.020,58 0,00 0,00 0,00 552,43 10.031,53 29.416,87 982,16 3.873,33 0,00 0,00 4.855,49 24.561,38 31/05/2023
1006 259800 FERNANDA CALZAVARA DE SOUSA OFICIAL DO MP BELO HORIZONTE - COMARCA; DIRET DE INFORMACAO E CONHECIMENTO-DINC/CEAF 17.559,01 7.023,60 6.160,10 0,00 0,00 0,00 563,62 9.203,54 40.509,87 3.714,17 6.495,75 0,00 0,00 10.209,92 30.299,95 31/05/2023
1007 494400 FERNANDA CAMPOS BARATA OFICIAL DO MP JUIZ DE FORA - COMARCA; JUIZ DE FORA-PJ-08PJ 7.506,70 1.501,34 0,00 0,00 0,00 0,00 0,00 2.105,00 11.113,04 1.222,23 1.256,14 0,00 0,00 2.478,37 8.634,67 31/05/2023
1008 555600 FERNANDA CAROLINE RIBEIRO ANALISTA DO MP BELO HORIZONTE - COMARCA; DIRETORIA GESTAO CONTRATOS CONVENIOS 12.343,61 1.234,36 0,00 0,00 0,00 0,00 0,00 2.105,00 15.682,97 1.953,42 2.311,79 0,00 0,00 4.265,21 11.417,76 31/05/2023
1009 692000 FERNANDA CESAR SILVA ASSESSOR PROCURADOR JUSTICA BELO HORIZONTE - COMARCA; GABINETE DE PROCURADOR DE JUSTIÇA - SALA 809 0,00 0,00 8.810,89 0,00 0,00 0,00 0,00 2.105,00 10.915,89 876,95 1.709,37 0,00 0,00 2.586,32 8.329,57 31/05/2023
1010 294500 FERNANDA COSTA FLORES OFICIAL DO MP PARÁ DE MINAS - COMARCA; PARA DE MINAS-PJ-04PJ 13.160,57 3.948,17 0,00 0,00 0,00 0,00 0,00 2.105,00 19.213,74 2.518,35 3.127,40 0,00 0,00 5.645,75 13.567,99 31/05/2023
1011 344500 FERNANDA CRISTINA DE SOUZA PAZ ASSESSOR ADMINISTRATIVO II BELO HORIZONTE - COMARCA; CENTRAL DE APOIO TECN-SETOR DE MEIO AMBIENTE 0,00 0,00 7.506,70 0,00 0,00 0,00 0,00 2.105,00 9.611,70 876,95 1.246,45 0,00 0,00 2.123,40 7.488,30 31/05/2023
1012 538100 FERNANDA CRISTINA DOS SANTOS ROSA OFICIAL DO MP RIBEIRÃO DAS NEVES - COMARCA; RIBEIRAO DAS NEVES-PJ-04PJ 7.506,70 3.002,68 0,00 0,00 0,00 0,00 0,00 2.105,00 12.614,38 1.462,45 1.602,95 0,00 0,00 3.065,40 9.548,98 31/05/2023
1013 337800 FERNANDA CRISTINA ROLAND CLIMACO MENDES COORDENADOR II BELO HORIZONTE - COMARCA; DIRETORIA DE PAGAMENTO DE PESSOAL-DPAG 20.533,67 6.160,10 0,00 0,00 0,00 0,00 195,75 4.240,50 31.130,02 2.993,93 5.632,50 0,00 0,00 8.626,43 22.503,59 31/05/2023
1014 545400 FERNANDA CUNHA GUIMARAES ANALISTA DO MP BELO HORIZONTE - COMARCA; CAO-VIOLENCIA DOMESTICA E FAMILIAR 12.343,61 2.468,72 0,00 0,00 0,00 0,00 0,00 2.105,00 16.917,33 2.150,92 2.596,93 0,00 0,00 4.747,85 12.169,48 31/05/2023
1015 429801 FERNANDA CUNHA PINHEIRO DA SILVA ANALISTA DO MP BELO HORIZONTE - COMARCA; ASSESSORIA DE COMUNICACAO INTEGRADA 12.343,61 2.468,72 0,00 0,00 0,00 0,00 543,12 8.029,93 23.385,38 2.150,92 2.492,65 0,00 0,00 4.643,57 18.741,81 31/05/2023
1016 408000 FERNANDA DAS NEVES RAMOS ANALISTA DO MP BELO HORIZONTE - COMARCA; BH-17PJ PATRIMONIO PUBLICO-SECRETARIA 18.130,77 3.626,15 0,00 0,00 0,00 0,00 0,00 2.105,00 23.861,92 3.262,06 4.201,13 0,00 0,00 7.463,19 16.398,73 31/05/2023
1017 496000 FERNANDA DE ALMEIDA VIANA ANALISTA DO MP BELO HORIZONTE - COMARCA; PROC JUST ATUACAO TRIBUNAIS SUPERIORES-GAB002 12.343,61 2.468,72 0,00 0,00 0,00 0,00 0,00 4.005,00 18.817,33 2.150,92 2.492,65 0,00 0,00 4.643,57 14.173,76 31/05/2023
1018 266700 FERNANDA DE CASTRO LUCAS OFICIAL DO MP BELO HORIZONTE - COMARCA; DIRET DE DESENV DE RECURSOS HUMANOS-DDRH 17.559,01 5.267,70 6.160,10 0,00 0,00 0,00 531,42 8.852,36 38.370,59 3.433,22 6.090,14 0,00 0,00 9.523,36 28.847,23 31/05/2023
1019 433200 FERNANDA DE FIGUEIREDO NORTE ANALISTA DO MP BELO HORIZONTE - COMARCA; ASSESS JUR DO CONS SUPERIOR DO MINISTERIO PUB 18.130,77 3.626,15 0,00 0,00 0,00 0,00 0,00 2.105,00 23.861,92 3.262,06 4.096,85 0,00 0,00 7.358,91 16.503,01 31/05/2023
1020 419200 FERNANDA DE MIRANDA MARTINS SIMOES ANALISTA DO MP UBERLÂNDIA - COMARCA; UBERLANDIA-PJ-17PJ 18.130,77 3.626,15 0,00 0,00 0,00 0,00 0,00 3.055,00 24.811,92 3.262,06 4.201,13 0,00 0,00 7.463,19 17.348,73 31/05/2023
1021 441400 FERNANDA DE MORAIS PINTO ANALISTA DO MP BELO HORIZONTE - COMARCA; PROC. JUSTICA DIR. DIFUSOS E COLETIVOS-SEC 17.559,01 3.511,80 0,00 0,00 0,00 0,00 0,00 2.105,00 23.175,81 3.152,28 4.042,64 0,00 0,00 7.194,92 15.980,89 31/05/2023
1022 432200 FERNANDA DE MOURA GUIMARAES ANALISTA DO MP BELO HORIZONTE - COMARCA; BH-26 CRIME CONT CRIAN ADOL-SECRETARIA 17.559,01 3.511,80 0,00 0,00 0,00 0,00 0,00 2.105,00 23.175,81 3.152,28 4.042,64 0,00 0,00 7.194,92 15.980,89 31/05/2023
1023 461800 FERNANDA DE OLIVEIRA SANTOS ANALISTA DO MP JUIZ DE FORA - COMARCA; JUIZ DE FORA-PJ-21PJ 14.960,00 2.992,00 0,00 0,00 0,00 0,00 0,00 3.055,00 21.007,00 2.653,27 3.322,19 0,00 0,00 5.975,46 15.031,54 31/05/2023
1024 432500 FERNANDA DE PAULA PINTO ANALISTA DO MP BELO HORIZONTE - COMARCA; PROC JUST ATUACAO TRIBUNAIS SUPERIORES-GAB003 17.559,01 3.511,80 0,00 0,00 0,00 0,00 0,00 3.055,00 24.125,81 3.152,28 4.042,64 0,00 0,00 7.194,92 16.930,89 31/05/2023
1025 431600 FERNANDA DIAS BARBOSA PEREIRA ANALISTA DO MP BELO HORIZONTE - COMARCA; BH-02PJ FAMILIA-SECRETARIA 17.559,01 3.511,80 0,00 0,00 0,00 0,00 309,04 6.426,33 27.806,18 3.152,28 3.886,22 0,00 0,00 7.038,50 20.767,68 31/05/2023
1026 162200 FERNANDA FERNANDES MONTEIRO ASSESSOR ADMINISTRATIVO II BELO HORIZONTE - COMARCA; BH-18PJ VIOLENCIA DOMESTICA-SECRETARIA 0,00 3.753,35 7.506,70 0,00 0,00 0,00 0,00 2.105,00 13.365,05 876,95 2.278,62 0,00 0,00 3.155,57 10.209,48 31/05/2023
1027 512800 FERNANDA FERREIRA BARBOSA MOREIRA ANALISTA DO MP IPATINGA - COMARCA; IPATINGA-PJ-05PJ 12.343,61 2.468,72 0,00 0,00 0,00 0,00 0,00 2.105,00 16.917,33 982,16 2.767,68 0,00 0,00 3.749,84 13.167,49 31/05/2023
1028 329200 FERNANDA GABRIEL GUZELLA OFICIAL DO MP BELO HORIZONTE - COMARCA; DIRET DE PLANOS PROJETOS E PROGRAMAS INST 12.343,61 3.703,08 0,00 0,00 0,00 0,00 0,00 2.105,00 18.151,69 2.348,42 2.882,06 0,00 0,00 5.230,48 12.921,21 31/05/2023
1029 324200 FERNANDA GEORGIA NEVES ZAHAN OFICIAL DO MP IPANEMA - COMARCA; IPANEMA-PJ-01PJ 12.343,61 9.874,89 0,00 0,00 0,00 0,00 0,00 2.105,00 24.323,50 3.335,91 4.307,75 0,00 0,00 7.643,66 16.679,84 31/05/2023
1030 548200 FERNANDA GONCALVES DE CARVALHO ZUZA OFICIAL DO MP TUPACIGUARA - COMARCA; TUPACIGUARA-PJ-01PJ 7.506,70 1.501,34 0,00 0,00 0,00 0,00 750,67 2.105,00 11.863,71 1.342,34 1.429,54 0,00 0,00 2.771,88 9.091,83 31/05/2023
1031 355400 FERNANDA HELENA BASQUES OFICIAL DO MP SABARÁ - COMARCA; SABARA-PJ-01PJ 12.343,61 3.703,08 3.004,68 0,00 0,00 0,00 0,00 2.105,00 21.156,37 2.348,42 3.708,35 0,00 0,00 6.056,77 15.099,60 31/05/2023
1032 454800 FERNANDA IATAROLA BARBOSA DIAS ANALISTA DO MP BARBACENA - COMARCA; BARBACENA-PJ-05PJ 14.960,00 2.992,00 0,00 0,00 0,00 0,00 0,00 2.105,00 20.057,00 2.653,27 3.270,05 0,00 0,00 5.923,32 14.133,68 31/05/2023
1033 515500 FERNANDA LILIANE MARUGEIRO ANALISTA DO MP LAGOA SANTA - COMARCA; LAGOA SANTA-PJ-01PJ 12.343,61 2.468,72 0,00 0,00 0,00 0,00 0,00 3.055,00 17.867,33 2.150,92 2.544,79 0,00 0,00 4.695,71 13.171,62 31/05/2023
1034 392900 FERNANDA MAGALHAES SILVA ANALISTA DO MP BELO HORIZONTE - COMARCA; DIR CONTEUDO JORNALISTICO 18.720,84 5.616,25 0,00 0,00 0,00 0,00 0,00 2.105,00 26.442,09 3.674,88 4.797,15 0,00 0,00 8.472,03 17.970,06 31/05/2023
1035 409200 FERNANDA MAIA SANTIAGO CARDOSO ANALISTA DO MP PIRAPORA - COMARCA; PIRAPORA-PJ-02PJ 12.343,61 2.468,72 0,00 0,00 0,00 0,00 0,00 3.055,00 17.867,33 2.150,92 2.596,93 0,00 0,00 4.747,85 13.119,48 31/05/2023
1036 714100 FERNANDA MELO FIORENZANO REIS ASSESSOR ADMINISTRATIVO IV BELO HORIZONTE - COMARCA; DIR CONTEUDO JORNALISTICO 0,00 0,00 14.488,22 0,00 0,00 0,00 0,00 2.105,00 16.593,22 876,95 3.270,64 0,00 0,00 4.147,59 12.445,63 31/05/2023
1037 556500 FERNANDA OTERO COSTA ANALISTA DO MP BELO HORIZONTE - COMARCA; ASSESS TECNICO-JUR JUNTO AS PROC. DE JUST 12.343,61 1.234,36 0,00 0,00 0,00 0,00 0,00 2.105,00 15.682,97 982,16 2.453,68 0,00 0,00 3.435,84 12.247,13 31/05/2023
1038 615300 FERNANDA PATRICIA RIBEIRO MOTA OFICIAL DO MP UBERABA - COMARCA; UBERABA-PJ-10PJ 7.506,70 750,67 0,00 0,00 0,00 0,00 0,00 2.105,00 10.362,37 982,16 1.100,26 0,00 0,00 2.082,42 8.279,95 31/05/2023
1039 619800 FERNANDA PINTO PEREIRA ANALISTA DO MP UBERLÂNDIA - COMARCA; UBERLANDIA-PJ-20PJ 11.577,56 1.157,76 0,00 0,00 0,00 0,00 0,00 4.005,00 16.740,32 1.818,60 2.065,00 0,00 0,00 3.883,60 12.856,72 31/05/2023
1040 412900 FERNANDA PORTELA ROSA ANALISTA DO MP BELO HORIZONTE - COMARCA; BH-08PJ JUIZADO ESPECIAL-SECRETARIA 18.130,77 3.626,15 0,00 0,00 0,00 0,00 0,00 3.055,00 24.811,92 3.262,06 4.201,13 0,00 0,00 7.463,19 17.348,73 31/05/2023
1041 274301 FERNANDA QUEIROZ PARREIRA ANALISTA DO MP PATOS DE MINAS - COMARCA; GAECO REGIONAL DE PATOS DE MINAS 12.343,61 2.468,72 0,00 0,00 0,00 0,00 0,00 2.105,00 16.917,33 2.150,92 2.596,93 0,00 0,00 4.747,85 12.169,48 31/05/2023
1042 467900 FERNANDA QUEIROZ SIMOES GANNAM ANALISTA DO MP SÃO LOURENÇO - COMARCA; SAO LOURENCO-PJ-02PJ 14.960,00 2.992,00 0,00 0,00 0,00 0,00 0,00 2.105,00 20.057,00 2.653,27 3.270,05 0,00 0,00 5.923,32 14.133,68 31/05/2023
1043 681001 FERNANDA ROCHA DE MATOS TEIXEIRA ASSESSOR PROMOTOR JUSTICA BELO VALE - COMARCA; BELO VALE-PJ-UNPJ 0,00 0,00 8.810,89 0,00 0,00 0,00 0,00 3.055,00 11.865,89 876,95 1.657,24 0,00 0,00 2.534,19 9.331,70 31/05/2023
1044 255500 FERNANDA SIMOES LOPES MENDES ANALIST